<?xml version="1.0" encoding="UTF-8" standalone="no" ?>
<gpx xmlns="http://www.topografix.com/GPX/1/1" xmlns:xsi="http://www.w3.org/2001/XMLSchema-instance" xsi:schemaLocation="http://www.topografix.com/GPX/1/1 http://www.topografix.com/GPX/1/1/gpx.xsd" version="1.1" creator="VisuGPX - https://www.visugpx.com">
  <metadata>
    <name>Praslay (Combe de Farge)</name>
  </metadata>
  <trk>
    <name><![CDATA[Randonnée du matin à praslay 6KM]]></name>
    <trkseg>
      <trkpt lat="47.74109" lon="5.10541">
        <ele>392.99</ele>
        <time>2022-05-05T06:56:05Z</time>
      </trkpt>
      <trkpt lat="47.74111" lon="5.10544">
        <ele>393.17</ele>
        <time>2022-05-05T06:56:43Z</time>
      </trkpt>
      <trkpt lat="47.74114" lon="5.10544">
        <ele>393.39</ele>
        <time>2022-05-05T06:56:51Z</time>
      </trkpt>
      <trkpt lat="47.74121" lon="5.10544">
        <ele>393.94</ele>
        <time>2022-05-05T06:57:24Z</time>
      </trkpt>
      <trkpt lat="47.74126" lon="5.10544">
        <ele>394.33</ele>
        <time>2022-05-05T06:57:26Z</time>
      </trkpt>
      <trkpt lat="47.74123" lon="5.10545">
        <ele>394.2</ele>
        <time>2022-05-05T06:57:37Z</time>
      </trkpt>
      <trkpt lat="47.7412" lon="5.10545">
        <ele>393.96</ele>
        <time>2022-05-05T06:57:39Z</time>
      </trkpt>
      <trkpt lat="47.74117" lon="5.10544">
        <ele>393.63</ele>
        <time>2022-05-05T06:57:43Z</time>
      </trkpt>
      <trkpt lat="47.74115" lon="5.10543">
        <ele>393.39</ele>
        <time>2022-05-05T06:57:48Z</time>
      </trkpt>
      <trkpt lat="47.74118" lon="5.10543">
        <ele>393.62</ele>
        <time>2022-05-05T07:13:56Z</time>
      </trkpt>
      <trkpt lat="47.7412" lon="5.10542">
        <ele>393.67</ele>
        <time>2022-05-05T07:13:59Z</time>
      </trkpt>
      <trkpt lat="47.74123" lon="5.10541">
        <ele>393.79</ele>
        <time>2022-05-05T07:14:00Z</time>
      </trkpt>
      <trkpt lat="47.74126" lon="5.10538">
        <ele>393.67</ele>
        <time>2022-05-05T07:14:03Z</time>
      </trkpt>
      <trkpt lat="47.74127" lon="5.10535">
        <ele>393.39</ele>
        <time>2022-05-05T07:14:07Z</time>
      </trkpt>
      <trkpt lat="47.74128" lon="5.10531">
        <ele>392.98</ele>
        <time>2022-05-05T07:14:10Z</time>
      </trkpt>
      <trkpt lat="47.7413" lon="5.10528">
        <ele>392.71</ele>
        <time>2022-05-05T07:14:12Z</time>
      </trkpt>
      <trkpt lat="47.74131" lon="5.10524">
        <ele>392.35</ele>
        <time>2022-05-05T07:14:15Z</time>
      </trkpt>
      <trkpt lat="47.74132" lon="5.1052">
        <ele>391.98</ele>
        <time>2022-05-05T07:14:18Z</time>
      </trkpt>
      <trkpt lat="47.74133" lon="5.10515">
        <ele>391.51</ele>
        <time>2022-05-05T07:14:20Z</time>
      </trkpt>
      <trkpt lat="47.74134" lon="5.10511">
        <ele>391.12</ele>
        <time>2022-05-05T07:14:23Z</time>
      </trkpt>
      <trkpt lat="47.74134" lon="5.10507">
        <ele>390.71</ele>
        <time>2022-05-05T07:14:25Z</time>
      </trkpt>
      <trkpt lat="47.74135" lon="5.10502">
        <ele>390.21</ele>
        <time>2022-05-05T07:14:28Z</time>
      </trkpt>
      <trkpt lat="47.74135" lon="5.10498">
        <ele>389.87</ele>
        <time>2022-05-05T07:14:30Z</time>
      </trkpt>
      <trkpt lat="47.74136" lon="5.10492">
        <ele>389.45</ele>
        <time>2022-05-05T07:14:34Z</time>
      </trkpt>
      <trkpt lat="47.74135" lon="5.10488">
        <ele>389.2</ele>
        <time>2022-05-05T07:14:35Z</time>
      </trkpt>
      <trkpt lat="47.74135" lon="5.10483">
        <ele>388.86</ele>
        <time>2022-05-05T07:14:37Z</time>
      </trkpt>
      <trkpt lat="47.74135" lon="5.10478">
        <ele>388.53</ele>
        <time>2022-05-05T07:14:40Z</time>
      </trkpt>
      <trkpt lat="47.74135" lon="5.10474">
        <ele>388.26</ele>
        <time>2022-05-05T07:14:42Z</time>
      </trkpt>
      <trkpt lat="47.74135" lon="5.10469">
        <ele>388.12</ele>
        <time>2022-05-05T07:14:44Z</time>
      </trkpt>
      <trkpt lat="47.74134" lon="5.10464">
        <ele>388.12</ele>
        <time>2022-05-05T07:14:46Z</time>
      </trkpt>
      <trkpt lat="47.74133" lon="5.1046">
        <ele>388.12</ele>
        <time>2022-05-05T07:14:48Z</time>
      </trkpt>
      <trkpt lat="47.74133" lon="5.10456">
        <ele>388.09</ele>
        <time>2022-05-05T07:14:50Z</time>
      </trkpt>
      <trkpt lat="47.74133" lon="5.10451">
        <ele>388.05</ele>
        <time>2022-05-05T07:14:53Z</time>
      </trkpt>
      <trkpt lat="47.74133" lon="5.10446">
        <ele>388.01</ele>
        <time>2022-05-05T07:14:56Z</time>
      </trkpt>
      <trkpt lat="47.74133" lon="5.10441">
        <ele>388.05</ele>
        <time>2022-05-05T07:14:59Z</time>
      </trkpt>
      <trkpt lat="47.74133" lon="5.10437">
        <ele>388.11</ele>
        <time>2022-05-05T07:15:01Z</time>
      </trkpt>
      <trkpt lat="47.74133" lon="5.10433">
        <ele>388.17</ele>
        <time>2022-05-05T07:15:03Z</time>
      </trkpt>
      <trkpt lat="47.74131" lon="5.10429">
        <ele>388.32</ele>
        <time>2022-05-05T07:15:06Z</time>
      </trkpt>
      <trkpt lat="47.7413" lon="5.10425">
        <ele>388.45</ele>
        <time>2022-05-05T07:15:09Z</time>
      </trkpt>
      <trkpt lat="47.74128" lon="5.10422">
        <ele>388.63</ele>
        <time>2022-05-05T07:15:12Z</time>
      </trkpt>
      <trkpt lat="47.74125" lon="5.1042">
        <ele>388.88</ele>
        <time>2022-05-05T07:15:14Z</time>
      </trkpt>
      <trkpt lat="47.74122" lon="5.10419">
        <ele>389.11</ele>
        <time>2022-05-05T07:15:18Z</time>
      </trkpt>
      <trkpt lat="47.74119" lon="5.10418">
        <ele>389.36</ele>
        <time>2022-05-05T07:15:22Z</time>
      </trkpt>
      <trkpt lat="47.74116" lon="5.10418">
        <ele>389.57</ele>
        <time>2022-05-05T07:15:24Z</time>
      </trkpt>
      <trkpt lat="47.74113" lon="5.10418">
        <ele>389.77</ele>
        <time>2022-05-05T07:15:27Z</time>
      </trkpt>
      <trkpt lat="47.7411" lon="5.10418">
        <ele>389.94</ele>
        <time>2022-05-05T07:15:29Z</time>
      </trkpt>
      <trkpt lat="47.74107" lon="5.10419">
        <ele>389.98</ele>
        <time>2022-05-05T07:15:31Z</time>
      </trkpt>
      <trkpt lat="47.74105" lon="5.1042">
        <ele>389.98</ele>
        <time>2022-05-05T07:15:33Z</time>
      </trkpt>
      <trkpt lat="47.74102" lon="5.1042">
        <ele>390.09</ele>
        <time>2022-05-05T07:15:36Z</time>
      </trkpt>
      <trkpt lat="47.74099" lon="5.10421">
        <ele>390.12</ele>
        <time>2022-05-05T07:15:38Z</time>
      </trkpt>
      <trkpt lat="47.74096" lon="5.10421">
        <ele>390.23</ele>
        <time>2022-05-05T07:15:40Z</time>
      </trkpt>
      <trkpt lat="47.74093" lon="5.10421">
        <ele>390.34</ele>
        <time>2022-05-05T07:15:42Z</time>
      </trkpt>
      <trkpt lat="47.7409" lon="5.10422">
        <ele>390.38</ele>
        <time>2022-05-05T07:15:45Z</time>
      </trkpt>
      <trkpt lat="47.74087" lon="5.10423">
        <ele>390.41</ele>
        <time>2022-05-05T07:15:47Z</time>
      </trkpt>
      <trkpt lat="47.74084" lon="5.10424">
        <ele>390.45</ele>
        <time>2022-05-05T07:15:50Z</time>
      </trkpt>
      <trkpt lat="47.74082" lon="5.10425">
        <ele>390.44</ele>
        <time>2022-05-05T07:15:51Z</time>
      </trkpt>
      <trkpt lat="47.74078" lon="5.10426">
        <ele>390.52</ele>
        <time>2022-05-05T07:15:53Z</time>
      </trkpt>
      <trkpt lat="47.74076" lon="5.10427">
        <ele>390.55</ele>
        <time>2022-05-05T07:15:56Z</time>
      </trkpt>
      <trkpt lat="47.74073" lon="5.10427">
        <ele>390.67</ele>
        <time>2022-05-05T07:15:58Z</time>
      </trkpt>
      <trkpt lat="47.7407" lon="5.10427">
        <ele>390.79</ele>
        <time>2022-05-05T07:16:00Z</time>
      </trkpt>
      <trkpt lat="47.74067" lon="5.10427">
        <ele>390.91</ele>
        <time>2022-05-05T07:16:02Z</time>
      </trkpt>
      <trkpt lat="47.74064" lon="5.10426">
        <ele>391.03</ele>
        <time>2022-05-05T07:16:05Z</time>
      </trkpt>
      <trkpt lat="47.74061" lon="5.10426">
        <ele>391.14</ele>
        <time>2022-05-05T07:16:07Z</time>
      </trkpt>
      <trkpt lat="47.7406" lon="5.10421">
        <ele>391.08</ele>
        <time>2022-05-05T07:16:12Z</time>
      </trkpt>
      <trkpt lat="47.74058" lon="5.10418">
        <ele>391.04</ele>
        <time>2022-05-05T07:16:15Z</time>
      </trkpt>
      <trkpt lat="47.74056" lon="5.10415">
        <ele>391.18</ele>
        <time>2022-05-05T07:16:18Z</time>
      </trkpt>
      <trkpt lat="47.74055" lon="5.1041">
        <ele>391.7</ele>
        <time>2022-05-05T07:16:21Z</time>
      </trkpt>
      <trkpt lat="47.74055" lon="5.10405">
        <ele>392.24</ele>
        <time>2022-05-05T07:16:24Z</time>
      </trkpt>
      <trkpt lat="47.74054" lon="5.104">
        <ele>392.74</ele>
        <time>2022-05-05T07:16:26Z</time>
      </trkpt>
      <trkpt lat="47.74054" lon="5.10396">
        <ele>393.18</ele>
        <time>2022-05-05T07:16:29Z</time>
      </trkpt>
      <trkpt lat="47.74054" lon="5.10391">
        <ele>393.72</ele>
        <time>2022-05-05T07:16:31Z</time>
      </trkpt>
      <trkpt lat="47.74054" lon="5.10386">
        <ele>394.34</ele>
        <time>2022-05-05T07:16:34Z</time>
      </trkpt>
      <trkpt lat="47.74054" lon="5.10382">
        <ele>394.89</ele>
        <time>2022-05-05T07:16:36Z</time>
      </trkpt>
      <trkpt lat="47.74054" lon="5.10378">
        <ele>395.45</ele>
        <time>2022-05-05T07:16:39Z</time>
      </trkpt>
      <trkpt lat="47.74054" lon="5.10373">
        <ele>396.14</ele>
        <time>2022-05-05T07:16:43Z</time>
      </trkpt>
      <trkpt lat="47.74056" lon="5.10369">
        <ele>396.81</ele>
        <time>2022-05-05T07:16:45Z</time>
      </trkpt>
      <trkpt lat="47.74056" lon="5.10364">
        <ele>397.51</ele>
        <time>2022-05-05T07:16:49Z</time>
      </trkpt>
      <trkpt lat="47.74057" lon="5.10359">
        <ele>397.68</ele>
        <time>2022-05-05T07:16:51Z</time>
      </trkpt>
      <trkpt lat="47.74058" lon="5.10355">
        <ele>397.4</ele>
        <time>2022-05-05T07:16:54Z</time>
      </trkpt>
      <trkpt lat="47.74058" lon="5.10351">
        <ele>397.29</ele>
        <time>2022-05-05T07:16:57Z</time>
      </trkpt>
      <trkpt lat="47.74058" lon="5.10347">
        <ele>397.19</ele>
        <time>2022-05-05T07:17:00Z</time>
      </trkpt>
      <trkpt lat="47.7406" lon="5.10343">
        <ele>396.86</ele>
        <time>2022-05-05T07:17:02Z</time>
      </trkpt>
      <trkpt lat="47.74061" lon="5.10339">
        <ele>396.69</ele>
        <time>2022-05-05T07:17:05Z</time>
      </trkpt>
      <trkpt lat="47.74062" lon="5.10334">
        <ele>396.54</ele>
        <time>2022-05-05T07:17:08Z</time>
      </trkpt>
      <trkpt lat="47.74063" lon="5.1033">
        <ele>396.46</ele>
        <time>2022-05-05T07:17:12Z</time>
      </trkpt>
      <trkpt lat="47.74064" lon="5.10325">
        <ele>396.39</ele>
        <time>2022-05-05T07:17:14Z</time>
      </trkpt>
      <trkpt lat="47.74064" lon="5.10321">
        <ele>396.39</ele>
        <time>2022-05-05T07:17:17Z</time>
      </trkpt>
      <trkpt lat="47.74065" lon="5.10316">
        <ele>396.32</ele>
        <time>2022-05-05T07:17:21Z</time>
      </trkpt>
      <trkpt lat="47.74065" lon="5.10311">
        <ele>396.32</ele>
        <time>2022-05-05T07:17:23Z</time>
      </trkpt>
      <trkpt lat="47.74065" lon="5.10307">
        <ele>396.32</ele>
        <time>2022-05-05T07:17:27Z</time>
      </trkpt>
      <trkpt lat="47.74065" lon="5.10302">
        <ele>396.66</ele>
        <time>2022-05-05T07:17:30Z</time>
      </trkpt>
      <trkpt lat="47.74064" lon="5.10298">
        <ele>397.13</ele>
        <time>2022-05-05T07:17:32Z</time>
      </trkpt>
      <trkpt lat="47.74063" lon="5.10293">
        <ele>397.7</ele>
        <time>2022-05-05T07:17:34Z</time>
      </trkpt>
      <trkpt lat="47.74061" lon="5.10289">
        <ele>398.28</ele>
        <time>2022-05-05T07:17:38Z</time>
      </trkpt>
      <trkpt lat="47.74059" lon="5.10285">
        <ele>398.88</ele>
        <time>2022-05-05T07:17:40Z</time>
      </trkpt>
      <trkpt lat="47.74057" lon="5.10281">
        <ele>399.5</ele>
        <time>2022-05-05T07:17:44Z</time>
      </trkpt>
      <trkpt lat="47.74055" lon="5.10279">
        <ele>399.97</ele>
        <time>2022-05-05T07:17:46Z</time>
      </trkpt>
      <trkpt lat="47.74053" lon="5.10276">
        <ele>400.78</ele>
        <time>2022-05-05T07:17:49Z</time>
      </trkpt>
      <trkpt lat="47.7405" lon="5.10274">
        <ele>401.68</ele>
        <time>2022-05-05T07:17:54Z</time>
      </trkpt>
      <trkpt lat="47.74047" lon="5.10272">
        <ele>402.58</ele>
        <time>2022-05-05T07:17:58Z</time>
      </trkpt>
      <trkpt lat="47.74044" lon="5.1027">
        <ele>403.48</ele>
        <time>2022-05-05T07:18:01Z</time>
      </trkpt>
      <trkpt lat="47.74041" lon="5.1027">
        <ele>404.02</ele>
        <time>2022-05-05T07:18:04Z</time>
      </trkpt>
      <trkpt lat="47.74039" lon="5.10268">
        <ele>404.74</ele>
        <time>2022-05-05T07:18:09Z</time>
      </trkpt>
      <trkpt lat="47.74036" lon="5.10268">
        <ele>405.28</ele>
        <time>2022-05-05T07:18:12Z</time>
      </trkpt>
      <trkpt lat="47.74033" lon="5.10269">
        <ele>405.64</ele>
        <time>2022-05-05T07:18:16Z</time>
      </trkpt>
      <trkpt lat="47.7403" lon="5.1027">
        <ele>406</ele>
        <time>2022-05-05T07:18:18Z</time>
      </trkpt>
      <trkpt lat="47.74027" lon="5.1027">
        <ele>406.69</ele>
        <time>2022-05-05T07:18:22Z</time>
      </trkpt>
      <trkpt lat="47.74025" lon="5.1027">
        <ele>407.44</ele>
        <time>2022-05-05T07:18:27Z</time>
      </trkpt>
      <trkpt lat="47.74022" lon="5.10269">
        <ele>408.74</ele>
        <time>2022-05-05T07:18:31Z</time>
      </trkpt>
      <trkpt lat="47.74019" lon="5.1027">
        <ele>409.7</ele>
        <time>2022-05-05T07:18:35Z</time>
      </trkpt>
      <trkpt lat="47.74016" lon="5.1027">
        <ele>410.83</ele>
        <time>2022-05-05T07:18:39Z</time>
      </trkpt>
      <trkpt lat="47.74012" lon="5.10271">
        <ele>412.19</ele>
        <time>2022-05-05T07:18:43Z</time>
      </trkpt>
      <trkpt lat="47.74009" lon="5.1027">
        <ele>413.46</ele>
        <time>2022-05-05T07:18:46Z</time>
      </trkpt>
      <trkpt lat="47.74007" lon="5.10268">
        <ele>414.46</ele>
        <time>2022-05-05T07:18:49Z</time>
      </trkpt>
      <trkpt lat="47.74004" lon="5.10267">
        <ele>415.69</ele>
        <time>2022-05-05T07:18:52Z</time>
      </trkpt>
      <trkpt lat="47.74" lon="5.10266">
        <ele>417.27</ele>
        <time>2022-05-05T07:18:55Z</time>
      </trkpt>
      <trkpt lat="47.73998" lon="5.10264">
        <ele>417.52</ele>
        <time>2022-05-05T07:18:57Z</time>
      </trkpt>
      <trkpt lat="47.73995" lon="5.10263">
        <ele>417.7</ele>
        <time>2022-05-05T07:19:00Z</time>
      </trkpt>
      <trkpt lat="47.73993" lon="5.1026">
        <ele>418.15</ele>
        <time>2022-05-05T07:19:04Z</time>
      </trkpt>
      <trkpt lat="47.7399" lon="5.10259">
        <ele>418.4</ele>
        <time>2022-05-05T07:19:06Z</time>
      </trkpt>
      <trkpt lat="47.73987" lon="5.10258">
        <ele>418.67</ele>
        <time>2022-05-05T07:19:09Z</time>
      </trkpt>
      <trkpt lat="47.73984" lon="5.10258">
        <ele>418.79</ele>
        <time>2022-05-05T07:19:11Z</time>
      </trkpt>
      <trkpt lat="47.73981" lon="5.10258">
        <ele>418.91</ele>
        <time>2022-05-05T07:19:15Z</time>
      </trkpt>
      <trkpt lat="47.73978" lon="5.10256">
        <ele>419.42</ele>
        <time>2022-05-05T07:19:19Z</time>
      </trkpt>
      <trkpt lat="47.73975" lon="5.10255">
        <ele>419.77</ele>
        <time>2022-05-05T07:19:21Z</time>
      </trkpt>
      <trkpt lat="47.73972" lon="5.10254">
        <ele>420.13</ele>
        <time>2022-05-05T07:19:26Z</time>
      </trkpt>
      <trkpt lat="47.7397" lon="5.10253">
        <ele>420.28</ele>
        <time>2022-05-05T07:19:28Z</time>
      </trkpt>
      <trkpt lat="47.73967" lon="5.10251">
        <ele>420.6</ele>
        <time>2022-05-05T07:19:31Z</time>
      </trkpt>
      <trkpt lat="47.73964" lon="5.10249">
        <ele>420.84</ele>
        <time>2022-05-05T07:19:35Z</time>
      </trkpt>
      <trkpt lat="47.73962" lon="5.10247">
        <ele>421.02</ele>
        <time>2022-05-05T07:19:38Z</time>
      </trkpt>
      <trkpt lat="47.73959" lon="5.10245">
        <ele>421.16</ele>
        <time>2022-05-05T07:19:40Z</time>
      </trkpt>
      <trkpt lat="47.73957" lon="5.10243">
        <ele>421.32</ele>
        <time>2022-05-05T07:19:45Z</time>
      </trkpt>
      <trkpt lat="47.73954" lon="5.1024">
        <ele>421.55</ele>
        <time>2022-05-05T07:19:49Z</time>
      </trkpt>
      <trkpt lat="47.73951" lon="5.10238">
        <ele>421.63</ele>
        <time>2022-05-05T07:19:52Z</time>
      </trkpt>
      <trkpt lat="47.73949" lon="5.10237">
        <ele>421.64</ele>
        <time>2022-05-05T07:19:57Z</time>
      </trkpt>
      <trkpt lat="47.73947" lon="5.10234">
        <ele>421.87</ele>
        <time>2022-05-05T07:19:59Z</time>
      </trkpt>
      <trkpt lat="47.73944" lon="5.1023">
        <ele>422.2</ele>
        <time>2022-05-05T07:20:02Z</time>
      </trkpt>
      <trkpt lat="47.73943" lon="5.10227">
        <ele>422.62</ele>
        <time>2022-05-05T07:20:04Z</time>
      </trkpt>
      <trkpt lat="47.73942" lon="5.10223">
        <ele>423.18</ele>
        <time>2022-05-05T07:20:08Z</time>
      </trkpt>
      <trkpt lat="47.73941" lon="5.10219">
        <ele>423.72</ele>
        <time>2022-05-05T07:20:12Z</time>
      </trkpt>
      <trkpt lat="47.7394" lon="5.10215">
        <ele>424.26</ele>
        <time>2022-05-05T07:20:17Z</time>
      </trkpt>
      <trkpt lat="47.73939" lon="5.10211">
        <ele>424.8</ele>
        <time>2022-05-05T07:20:19Z</time>
      </trkpt>
      <trkpt lat="47.73939" lon="5.10206">
        <ele>425.34</ele>
        <time>2022-05-05T07:20:22Z</time>
      </trkpt>
      <trkpt lat="47.73939" lon="5.10201">
        <ele>425.88</ele>
        <time>2022-05-05T07:20:26Z</time>
      </trkpt>
      <trkpt lat="47.7394" lon="5.10196">
        <ele>426.31</ele>
        <time>2022-05-05T07:20:28Z</time>
      </trkpt>
      <trkpt lat="47.7394" lon="5.10192">
        <ele>426.55</ele>
        <time>2022-05-05T07:20:31Z</time>
      </trkpt>
      <trkpt lat="47.73941" lon="5.10187">
        <ele>426.61</ele>
        <time>2022-05-05T07:20:34Z</time>
      </trkpt>
      <trkpt lat="47.73943" lon="5.10183">
        <ele>426.55</ele>
        <time>2022-05-05T07:20:36Z</time>
      </trkpt>
      <trkpt lat="47.73944" lon="5.10179">
        <ele>426.6</ele>
        <time>2022-05-05T07:20:38Z</time>
      </trkpt>
      <trkpt lat="47.73945" lon="5.10175">
        <ele>426.68</ele>
        <time>2022-05-05T07:20:41Z</time>
      </trkpt>
      <trkpt lat="47.73947" lon="5.10171">
        <ele>426.75</ele>
        <time>2022-05-05T07:20:43Z</time>
      </trkpt>
      <trkpt lat="47.73948" lon="5.10168">
        <ele>426.82</ele>
        <time>2022-05-05T07:20:45Z</time>
      </trkpt>
      <trkpt lat="47.73951" lon="5.10164">
        <ele>426.83</ele>
        <time>2022-05-05T07:20:49Z</time>
      </trkpt>
      <trkpt lat="47.73953" lon="5.10161">
        <ele>426.88</ele>
        <time>2022-05-05T07:20:51Z</time>
      </trkpt>
      <trkpt lat="47.73956" lon="5.10158">
        <ele>426.97</ele>
        <time>2022-05-05T07:20:53Z</time>
      </trkpt>
      <trkpt lat="47.73958" lon="5.10155">
        <ele>427.13</ele>
        <time>2022-05-05T07:20:57Z</time>
      </trkpt>
      <trkpt lat="47.73961" lon="5.10153">
        <ele>427.28</ele>
        <time>2022-05-05T07:20:59Z</time>
      </trkpt>
      <trkpt lat="47.73963" lon="5.10151">
        <ele>427.46</ele>
        <time>2022-05-05T07:21:01Z</time>
      </trkpt>
      <trkpt lat="47.73966" lon="5.10149">
        <ele>427.7</ele>
        <time>2022-05-05T07:21:04Z</time>
      </trkpt>
      <trkpt lat="47.73968" lon="5.10146">
        <ele>428.04</ele>
        <time>2022-05-05T07:21:06Z</time>
      </trkpt>
      <trkpt lat="47.7397" lon="5.10144">
        <ele>428.33</ele>
        <time>2022-05-05T07:21:08Z</time>
      </trkpt>
      <trkpt lat="47.73973" lon="5.10141">
        <ele>428.78</ele>
        <time>2022-05-05T07:21:12Z</time>
      </trkpt>
      <trkpt lat="47.73975" lon="5.10139">
        <ele>428.99</ele>
        <time>2022-05-05T07:21:14Z</time>
      </trkpt>
      <trkpt lat="47.73978" lon="5.10136">
        <ele>428.96</ele>
        <time>2022-05-05T07:21:16Z</time>
      </trkpt>
      <trkpt lat="47.7398" lon="5.10133">
        <ele>428.97</ele>
        <time>2022-05-05T07:21:19Z</time>
      </trkpt>
      <trkpt lat="47.73983" lon="5.1013">
        <ele>429.05</ele>
        <time>2022-05-05T07:21:22Z</time>
      </trkpt>
      <trkpt lat="47.73985" lon="5.10127">
        <ele>429.16</ele>
        <time>2022-05-05T07:21:25Z</time>
      </trkpt>
      <trkpt lat="47.73988" lon="5.10124">
        <ele>429.38</ele>
        <time>2022-05-05T07:21:27Z</time>
      </trkpt>
      <trkpt lat="47.7399" lon="5.10121">
        <ele>429.59</ele>
        <time>2022-05-05T07:21:31Z</time>
      </trkpt>
      <trkpt lat="47.73993" lon="5.10118">
        <ele>429.94</ele>
        <time>2022-05-05T07:21:34Z</time>
      </trkpt>
      <trkpt lat="47.73995" lon="5.10115">
        <ele>430.26</ele>
        <time>2022-05-05T07:21:35Z</time>
      </trkpt>
      <trkpt lat="47.73997" lon="5.10112">
        <ele>430.62</ele>
        <time>2022-05-05T07:21:39Z</time>
      </trkpt>
      <trkpt lat="47.73999" lon="5.10108">
        <ele>431.22</ele>
        <time>2022-05-05T07:21:42Z</time>
      </trkpt>
      <trkpt lat="47.74001" lon="5.10105">
        <ele>431.6</ele>
        <time>2022-05-05T07:21:44Z</time>
      </trkpt>
      <trkpt lat="47.74004" lon="5.10103">
        <ele>431.63</ele>
        <time>2022-05-05T07:21:47Z</time>
      </trkpt>
      <trkpt lat="47.74006" lon="5.10099">
        <ele>431.97</ele>
        <time>2022-05-05T07:21:50Z</time>
      </trkpt>
      <trkpt lat="47.74008" lon="5.10096">
        <ele>432.21</ele>
        <time>2022-05-05T07:21:52Z</time>
      </trkpt>
      <trkpt lat="47.7401" lon="5.10092">
        <ele>432.59</ele>
        <time>2022-05-05T07:21:55Z</time>
      </trkpt>
      <trkpt lat="47.74012" lon="5.10089">
        <ele>432.87</ele>
        <time>2022-05-05T07:21:57Z</time>
      </trkpt>
      <trkpt lat="47.74015" lon="5.10087">
        <ele>432.99</ele>
        <time>2022-05-05T07:22:01Z</time>
      </trkpt>
      <trkpt lat="47.74017" lon="5.10084">
        <ele>433.3</ele>
        <time>2022-05-05T07:22:03Z</time>
      </trkpt>
      <trkpt lat="47.74019" lon="5.10082">
        <ele>433.46</ele>
        <time>2022-05-05T07:22:06Z</time>
      </trkpt>
      <trkpt lat="47.74021" lon="5.10078">
        <ele>433.82</ele>
        <time>2022-05-05T07:22:08Z</time>
      </trkpt>
      <trkpt lat="47.74023" lon="5.10074">
        <ele>434.18</ele>
        <time>2022-05-05T07:22:11Z</time>
      </trkpt>
      <trkpt lat="47.74024" lon="5.1007">
        <ele>434.58</ele>
        <time>2022-05-05T07:22:13Z</time>
      </trkpt>
      <trkpt lat="47.74026" lon="5.10066">
        <ele>434.94</ele>
        <time>2022-05-05T07:22:16Z</time>
      </trkpt>
      <trkpt lat="47.74027" lon="5.10062">
        <ele>435.33</ele>
        <time>2022-05-05T07:22:18Z</time>
      </trkpt>
      <trkpt lat="47.74028" lon="5.10058">
        <ele>435.72</ele>
        <time>2022-05-05T07:22:21Z</time>
      </trkpt>
      <trkpt lat="47.7403" lon="5.10054">
        <ele>436.06</ele>
        <time>2022-05-05T07:22:25Z</time>
      </trkpt>
      <trkpt lat="47.74032" lon="5.10049">
        <ele>436.6</ele>
        <time>2022-05-05T07:22:27Z</time>
      </trkpt>
      <trkpt lat="47.74033" lon="5.10046">
        <ele>436.94</ele>
        <time>2022-05-05T07:22:29Z</time>
      </trkpt>
      <trkpt lat="47.74035" lon="5.10043">
        <ele>437.17</ele>
        <time>2022-05-05T07:22:32Z</time>
      </trkpt>
      <trkpt lat="47.74036" lon="5.10039">
        <ele>437.62</ele>
        <time>2022-05-05T07:22:34Z</time>
      </trkpt>
      <trkpt lat="47.74037" lon="5.10033">
        <ele>438.31</ele>
        <time>2022-05-05T07:22:38Z</time>
      </trkpt>
      <trkpt lat="47.74039" lon="5.10029">
        <ele>438.63</ele>
        <time>2022-05-05T07:22:40Z</time>
      </trkpt>
      <trkpt lat="47.74041" lon="5.10026">
        <ele>438.86</ele>
        <time>2022-05-05T07:22:43Z</time>
      </trkpt>
      <trkpt lat="47.74042" lon="5.10021">
        <ele>439.56</ele>
        <time>2022-05-05T07:22:47Z</time>
      </trkpt>
      <trkpt lat="47.74043" lon="5.10017">
        <ele>440.12</ele>
        <time>2022-05-05T07:22:51Z</time>
      </trkpt>
      <trkpt lat="47.74044" lon="5.10013">
        <ele>440.69</ele>
        <time>2022-05-05T07:24:12Z</time>
      </trkpt>
      <trkpt lat="47.74044" lon="5.10009">
        <ele>441.35</ele>
        <time>2022-05-05T07:24:13Z</time>
      </trkpt>
      <trkpt lat="47.74045" lon="5.10005">
        <ele>441.93</ele>
        <time>2022-05-05T07:24:16Z</time>
      </trkpt>
      <trkpt lat="47.74045" lon="5.1">
        <ele>442.76</ele>
        <time>2022-05-05T07:24:19Z</time>
      </trkpt>
      <trkpt lat="47.74046" lon="5.09996">
        <ele>443.26</ele>
        <time>2022-05-05T07:24:21Z</time>
      </trkpt>
      <trkpt lat="47.74047" lon="5.09991">
        <ele>443.91</ele>
        <time>2022-05-05T07:24:24Z</time>
      </trkpt>
      <trkpt lat="47.74049" lon="5.09987">
        <ele>444.34</ele>
        <time>2022-05-05T07:24:27Z</time>
      </trkpt>
      <trkpt lat="47.7405" lon="5.09982">
        <ele>444.99</ele>
        <time>2022-05-05T07:24:30Z</time>
      </trkpt>
      <trkpt lat="47.74052" lon="5.09976">
        <ele>445.71</ele>
        <time>2022-05-05T07:24:33Z</time>
      </trkpt>
      <trkpt lat="47.74053" lon="5.09972">
        <ele>446.21</ele>
        <time>2022-05-05T07:24:35Z</time>
      </trkpt>
      <trkpt lat="47.74054" lon="5.09968">
        <ele>446.56</ele>
        <time>2022-05-05T07:24:37Z</time>
      </trkpt>
      <trkpt lat="47.74055" lon="5.09964">
        <ele>446.92</ele>
        <time>2022-05-05T07:24:40Z</time>
      </trkpt>
      <trkpt lat="47.74056" lon="5.0996">
        <ele>447.19</ele>
        <time>2022-05-05T07:24:43Z</time>
      </trkpt>
      <trkpt lat="47.74058" lon="5.09955">
        <ele>447.18</ele>
        <time>2022-05-05T07:24:45Z</time>
      </trkpt>
      <trkpt lat="47.74059" lon="5.09951">
        <ele>447.37</ele>
        <time>2022-05-05T07:24:47Z</time>
      </trkpt>
      <trkpt lat="47.7406" lon="5.09946">
        <ele>447.69</ele>
        <time>2022-05-05T07:24:50Z</time>
      </trkpt>
      <trkpt lat="47.74061" lon="5.09943">
        <ele>447.76</ele>
        <time>2022-05-05T07:24:53Z</time>
      </trkpt>
      <trkpt lat="47.74062" lon="5.09939">
        <ele>447.9</ele>
        <time>2022-05-05T07:24:55Z</time>
      </trkpt>
      <trkpt lat="47.74063" lon="5.09935">
        <ele>448.08</ele>
        <time>2022-05-05T07:24:56Z</time>
      </trkpt>
      <trkpt lat="47.74064" lon="5.09931">
        <ele>448.28</ele>
        <time>2022-05-05T07:24:59Z</time>
      </trkpt>
      <trkpt lat="47.74066" lon="5.09927">
        <ele>448.33</ele>
        <time>2022-05-05T07:25:02Z</time>
      </trkpt>
      <trkpt lat="47.74067" lon="5.09923">
        <ele>448.61</ele>
        <time>2022-05-05T07:25:03Z</time>
      </trkpt>
      <trkpt lat="47.74068" lon="5.09919">
        <ele>448.93</ele>
        <time>2022-05-05T07:25:06Z</time>
      </trkpt>
      <trkpt lat="47.74069" lon="5.09915">
        <ele>449.21</ele>
        <time>2022-05-05T07:25:09Z</time>
      </trkpt>
      <trkpt lat="47.74071" lon="5.0991">
        <ele>449.42</ele>
        <time>2022-05-05T07:25:11Z</time>
      </trkpt>
      <trkpt lat="47.74071" lon="5.09906">
        <ele>449.8</ele>
        <time>2022-05-05T07:25:37Z</time>
      </trkpt>
      <trkpt lat="47.74071" lon="5.09901">
        <ele>450.28</ele>
        <time>2022-05-05T07:27:25Z</time>
      </trkpt>
      <trkpt lat="47.74072" lon="5.09898">
        <ele>450.5</ele>
        <time>2022-05-05T07:27:39Z</time>
      </trkpt>
      <trkpt lat="47.74073" lon="5.09894">
        <ele>450.84</ele>
        <time>2022-05-05T07:27:47Z</time>
      </trkpt>
      <trkpt lat="47.74075" lon="5.0989">
        <ele>451.18</ele>
        <time>2022-05-05T07:28:00Z</time>
      </trkpt>
      <trkpt lat="47.74077" lon="5.09886">
        <ele>451.46</ele>
        <time>2022-05-05T07:28:30Z</time>
      </trkpt>
      <trkpt lat="47.74078" lon="5.09882">
        <ele>451.74</ele>
        <time>2022-05-05T07:28:35Z</time>
      </trkpt>
      <trkpt lat="47.74077" lon="5.09878">
        <ele>452.1</ele>
        <time>2022-05-05T07:28:41Z</time>
      </trkpt>
      <trkpt lat="47.74078" lon="5.09874">
        <ele>452.37</ele>
        <time>2022-05-05T07:28:43Z</time>
      </trkpt>
      <trkpt lat="47.74079" lon="5.09869">
        <ele>452.7</ele>
        <time>2022-05-05T07:28:46Z</time>
      </trkpt>
      <trkpt lat="47.7408" lon="5.09865">
        <ele>452.94</ele>
        <time>2022-05-05T07:28:49Z</time>
      </trkpt>
      <trkpt lat="47.7408" lon="5.09861">
        <ele>453.25</ele>
        <time>2022-05-05T07:28:52Z</time>
      </trkpt>
      <trkpt lat="47.74081" lon="5.09856">
        <ele>453.75</ele>
        <time>2022-05-05T07:28:54Z</time>
      </trkpt>
      <trkpt lat="47.74081" lon="5.09852">
        <ele>454.21</ele>
        <time>2022-05-05T07:28:59Z</time>
      </trkpt>
      <trkpt lat="47.74082" lon="5.09847">
        <ele>454.67</ele>
        <time>2022-05-05T07:29:02Z</time>
      </trkpt>
      <trkpt lat="47.74082" lon="5.09842">
        <ele>455.23</ele>
        <time>2022-05-05T07:29:05Z</time>
      </trkpt>
      <trkpt lat="47.74082" lon="5.09838">
        <ele>455.67</ele>
        <time>2022-05-05T07:29:08Z</time>
      </trkpt>
      <trkpt lat="47.74083" lon="5.09833">
        <ele>456.07</ele>
        <time>2022-05-05T07:29:12Z</time>
      </trkpt>
      <trkpt lat="47.74083" lon="5.09828">
        <ele>456.45</ele>
        <time>2022-05-05T07:29:15Z</time>
      </trkpt>
      <trkpt lat="47.74083" lon="5.09824">
        <ele>456.74</ele>
        <time>2022-05-05T07:29:17Z</time>
      </trkpt>
      <trkpt lat="47.74084" lon="5.09818">
        <ele>457.17</ele>
        <time>2022-05-05T07:29:22Z</time>
      </trkpt>
      <trkpt lat="47.74084" lon="5.09814">
        <ele>457.47</ele>
        <time>2022-05-05T07:29:24Z</time>
      </trkpt>
      <trkpt lat="47.74084" lon="5.0981">
        <ele>457.76</ele>
        <time>2022-05-05T07:29:27Z</time>
      </trkpt>
      <trkpt lat="47.74084" lon="5.09806">
        <ele>458.06</ele>
        <time>2022-05-05T07:29:30Z</time>
      </trkpt>
      <trkpt lat="47.74084" lon="5.09802">
        <ele>458.6</ele>
        <time>2022-05-05T07:29:34Z</time>
      </trkpt>
      <trkpt lat="47.74083" lon="5.09797">
        <ele>459.36</ele>
        <time>2022-05-05T07:29:38Z</time>
      </trkpt>
      <trkpt lat="47.74084" lon="5.09793">
        <ele>459.88</ele>
        <time>2022-05-05T07:29:41Z</time>
      </trkpt>
      <trkpt lat="47.74085" lon="5.09789">
        <ele>460.55</ele>
        <time>2022-05-05T07:29:46Z</time>
      </trkpt>
      <trkpt lat="47.74086" lon="5.09785">
        <ele>461.2</ele>
        <time>2022-05-05T07:29:51Z</time>
      </trkpt>
      <trkpt lat="47.74087" lon="5.0978">
        <ele>461.97</ele>
        <time>2022-05-05T07:29:55Z</time>
      </trkpt>
      <trkpt lat="47.74087" lon="5.09776">
        <ele>462.43</ele>
        <time>2022-05-05T07:29:59Z</time>
      </trkpt>
      <trkpt lat="47.74088" lon="5.09771">
        <ele>462.95</ele>
        <time>2022-05-05T07:30:01Z</time>
      </trkpt>
      <trkpt lat="47.74088" lon="5.09767">
        <ele>463.3</ele>
        <time>2022-05-05T07:30:05Z</time>
      </trkpt>
      <trkpt lat="47.74088" lon="5.09762">
        <ele>463.75</ele>
        <time>2022-05-05T07:30:10Z</time>
      </trkpt>
      <trkpt lat="47.74089" lon="5.09758">
        <ele>464.11</ele>
        <time>2022-05-05T07:30:14Z</time>
      </trkpt>
      <trkpt lat="47.74089" lon="5.09753">
        <ele>464.54</ele>
        <time>2022-05-05T07:30:18Z</time>
      </trkpt>
      <trkpt lat="47.74089" lon="5.09749">
        <ele>464.87</ele>
        <time>2022-05-05T07:30:20Z</time>
      </trkpt>
      <trkpt lat="47.74088" lon="5.09744">
        <ele>465.26</ele>
        <time>2022-05-05T07:30:24Z</time>
      </trkpt>
      <trkpt lat="47.74088" lon="5.0974">
        <ele>465.55</ele>
        <time>2022-05-05T07:30:26Z</time>
      </trkpt>
      <trkpt lat="47.74088" lon="5.09735">
        <ele>465.91</ele>
        <time>2022-05-05T07:30:30Z</time>
      </trkpt>
      <trkpt lat="47.74088" lon="5.0973">
        <ele>466.27</ele>
        <time>2022-05-05T07:30:32Z</time>
      </trkpt>
      <trkpt lat="47.74088" lon="5.09726">
        <ele>466.56</ele>
        <time>2022-05-05T07:30:36Z</time>
      </trkpt>
      <trkpt lat="47.74087" lon="5.09722">
        <ele>466.88</ele>
        <time>2022-05-05T07:30:38Z</time>
      </trkpt>
      <trkpt lat="47.74085" lon="5.09717">
        <ele>467.13</ele>
        <time>2022-05-05T07:30:44Z</time>
      </trkpt>
      <trkpt lat="47.74085" lon="5.09713">
        <ele>467.27</ele>
        <time>2022-05-05T07:30:47Z</time>
      </trkpt>
      <trkpt lat="47.74084" lon="5.09709">
        <ele>467.45</ele>
        <time>2022-05-05T07:30:50Z</time>
      </trkpt>
      <trkpt lat="47.74083" lon="5.09705">
        <ele>467.63</ele>
        <time>2022-05-05T07:30:54Z</time>
      </trkpt>
      <trkpt lat="47.74082" lon="5.09701">
        <ele>467.8</ele>
        <time>2022-05-05T07:30:56Z</time>
      </trkpt>
      <trkpt lat="47.74081" lon="5.09696">
        <ele>467.96</ele>
        <time>2022-05-05T07:31:00Z</time>
      </trkpt>
      <trkpt lat="47.7408" lon="5.09691">
        <ele>468.12</ele>
        <time>2022-05-05T07:31:03Z</time>
      </trkpt>
      <trkpt lat="47.74079" lon="5.09686">
        <ele>468.3</ele>
        <time>2022-05-05T07:31:05Z</time>
      </trkpt>
      <trkpt lat="47.74077" lon="5.09682">
        <ele>468.45</ele>
        <time>2022-05-05T07:31:07Z</time>
      </trkpt>
      <trkpt lat="47.74076" lon="5.09677">
        <ele>468.63</ele>
        <time>2022-05-05T07:31:10Z</time>
      </trkpt>
      <trkpt lat="47.74074" lon="5.09674">
        <ele>468.74</ele>
        <time>2022-05-05T07:31:12Z</time>
      </trkpt>
      <trkpt lat="47.74073" lon="5.09669">
        <ele>468.92</ele>
        <time>2022-05-05T07:31:17Z</time>
      </trkpt>
      <trkpt lat="47.74071" lon="5.09666">
        <ele>469.02</ele>
        <time>2022-05-05T07:31:21Z</time>
      </trkpt>
      <trkpt lat="47.7407" lon="5.09662">
        <ele>469.17</ele>
        <time>2022-05-05T07:31:24Z</time>
      </trkpt>
      <trkpt lat="47.74068" lon="5.09658">
        <ele>469.31</ele>
        <time>2022-05-05T07:31:26Z</time>
      </trkpt>
      <trkpt lat="47.74066" lon="5.09654">
        <ele>469.46</ele>
        <time>2022-05-05T07:31:27Z</time>
      </trkpt>
      <trkpt lat="47.74065" lon="5.0965">
        <ele>469.6</ele>
        <time>2022-05-05T07:31:30Z</time>
      </trkpt>
      <trkpt lat="47.74065" lon="5.09646">
        <ele>469.74</ele>
        <time>2022-05-05T07:31:32Z</time>
      </trkpt>
      <trkpt lat="47.74063" lon="5.09641">
        <ele>469.92</ele>
        <time>2022-05-05T07:31:36Z</time>
      </trkpt>
      <trkpt lat="47.74062" lon="5.09636">
        <ele>470.13</ele>
        <time>2022-05-05T07:31:38Z</time>
      </trkpt>
      <trkpt lat="47.7406" lon="5.09633">
        <ele>470.25</ele>
        <time>2022-05-05T07:31:39Z</time>
      </trkpt>
      <trkpt lat="47.74059" lon="5.09629">
        <ele>470.4</ele>
        <time>2022-05-05T07:31:41Z</time>
      </trkpt>
      <trkpt lat="47.74057" lon="5.09626">
        <ele>470.49</ele>
        <time>2022-05-05T07:31:43Z</time>
      </trkpt>
      <trkpt lat="47.74055" lon="5.09622">
        <ele>470.59</ele>
        <time>2022-05-05T07:31:46Z</time>
      </trkpt>
      <trkpt lat="47.74054" lon="5.09618">
        <ele>470.68</ele>
        <time>2022-05-05T07:31:49Z</time>
      </trkpt>
      <trkpt lat="47.74053" lon="5.09613">
        <ele>470.77</ele>
        <time>2022-05-05T07:31:51Z</time>
      </trkpt>
      <trkpt lat="47.74052" lon="5.09608">
        <ele>470.51</ele>
        <time>2022-05-05T07:31:54Z</time>
      </trkpt>
      <trkpt lat="47.74051" lon="5.09604">
        <ele>470.12</ele>
        <time>2022-05-05T07:31:56Z</time>
      </trkpt>
      <trkpt lat="47.7405" lon="5.09599">
        <ele>469.64</ele>
        <time>2022-05-05T07:31:59Z</time>
      </trkpt>
      <trkpt lat="47.74049" lon="5.09595">
        <ele>469.23</ele>
        <time>2022-05-05T07:32:00Z</time>
      </trkpt>
      <trkpt lat="47.74048" lon="5.0959">
        <ele>468.73</ele>
        <time>2022-05-05T07:32:03Z</time>
      </trkpt>
      <trkpt lat="47.74047" lon="5.09586">
        <ele>468.3</ele>
        <time>2022-05-05T07:32:05Z</time>
      </trkpt>
      <trkpt lat="47.74046" lon="5.0958">
        <ele>467.77</ele>
        <time>2022-05-05T07:32:08Z</time>
      </trkpt>
      <trkpt lat="47.74045" lon="5.09575">
        <ele>467.37</ele>
        <time>2022-05-05T07:32:11Z</time>
      </trkpt>
      <trkpt lat="47.74044" lon="5.09571">
        <ele>467.05</ele>
        <time>2022-05-05T07:32:14Z</time>
      </trkpt>
      <trkpt lat="47.74044" lon="5.09566">
        <ele>466.76</ele>
        <time>2022-05-05T07:32:15Z</time>
      </trkpt>
      <trkpt lat="47.74043" lon="5.0956">
        <ele>466.34</ele>
        <time>2022-05-05T07:32:19Z</time>
      </trkpt>
      <trkpt lat="47.74042" lon="5.09556">
        <ele>466.05</ele>
        <time>2022-05-05T07:32:22Z</time>
      </trkpt>
      <trkpt lat="47.74041" lon="5.09552">
        <ele>465.64</ele>
        <time>2022-05-05T07:32:24Z</time>
      </trkpt>
      <trkpt lat="47.7404" lon="5.09548">
        <ele>465.22</ele>
        <time>2022-05-05T07:32:27Z</time>
      </trkpt>
      <trkpt lat="47.74039" lon="5.09544">
        <ele>464.81</ele>
        <time>2022-05-05T07:32:29Z</time>
      </trkpt>
      <trkpt lat="47.74038" lon="5.0954">
        <ele>464.41</ele>
        <time>2022-05-05T07:32:33Z</time>
      </trkpt>
      <trkpt lat="47.74037" lon="5.09535">
        <ele>463.94</ele>
        <time>2022-05-05T07:32:36Z</time>
      </trkpt>
      <trkpt lat="47.74036" lon="5.09531">
        <ele>463.56</ele>
        <time>2022-05-05T07:32:38Z</time>
      </trkpt>
      <trkpt lat="47.74035" lon="5.09528">
        <ele>463.28</ele>
        <time>2022-05-05T07:32:40Z</time>
      </trkpt>
      <trkpt lat="47.74034" lon="5.09524">
        <ele>462.85</ele>
        <time>2022-05-05T07:32:44Z</time>
      </trkpt>
      <trkpt lat="47.74032" lon="5.0952">
        <ele>462.35</ele>
        <time>2022-05-05T07:32:47Z</time>
      </trkpt>
      <trkpt lat="47.74031" lon="5.09516">
        <ele>461.89</ele>
        <time>2022-05-05T07:32:50Z</time>
      </trkpt>
      <trkpt lat="47.74031" lon="5.0951">
        <ele>461.27</ele>
        <time>2022-05-05T07:32:54Z</time>
      </trkpt>
      <trkpt lat="47.7403" lon="5.09506">
        <ele>460.79</ele>
        <time>2022-05-05T07:32:55Z</time>
      </trkpt>
      <trkpt lat="47.74029" lon="5.09502">
        <ele>460.3</ele>
        <time>2022-05-05T07:32:58Z</time>
      </trkpt>
      <trkpt lat="47.74028" lon="5.09498">
        <ele>460.09</ele>
        <time>2022-05-05T07:33:00Z</time>
      </trkpt>
      <trkpt lat="47.74027" lon="5.09493">
        <ele>460.34</ele>
        <time>2022-05-05T07:33:05Z</time>
      </trkpt>
      <trkpt lat="47.74026" lon="5.09489">
        <ele>460.58</ele>
        <time>2022-05-05T07:33:06Z</time>
      </trkpt>
      <trkpt lat="47.74025" lon="5.09484">
        <ele>460.8</ele>
        <time>2022-05-05T07:33:09Z</time>
      </trkpt>
      <trkpt lat="47.74024" lon="5.0948">
        <ele>460.97</ele>
        <time>2022-05-05T07:33:11Z</time>
      </trkpt>
      <trkpt lat="47.74023" lon="5.09476">
        <ele>461.11</ele>
        <time>2022-05-05T07:33:16Z</time>
      </trkpt>
      <trkpt lat="47.74021" lon="5.09472">
        <ele>461.26</ele>
        <time>2022-05-05T07:33:19Z</time>
      </trkpt>
      <trkpt lat="47.74019" lon="5.09468">
        <ele>461.57</ele>
        <time>2022-05-05T07:33:21Z</time>
      </trkpt>
      <trkpt lat="47.74017" lon="5.09464">
        <ele>461.87</ele>
        <time>2022-05-05T07:33:23Z</time>
      </trkpt>
      <trkpt lat="47.74015" lon="5.0946">
        <ele>462.14</ele>
        <time>2022-05-05T07:33:25Z</time>
      </trkpt>
      <trkpt lat="47.74013" lon="5.09456">
        <ele>462.39</ele>
        <time>2022-05-05T07:33:28Z</time>
      </trkpt>
      <trkpt lat="47.74012" lon="5.09453">
        <ele>462.56</ele>
        <time>2022-05-05T07:33:30Z</time>
      </trkpt>
      <trkpt lat="47.7401" lon="5.09448">
        <ele>462.83</ele>
        <time>2022-05-05T07:33:33Z</time>
      </trkpt>
      <trkpt lat="47.74009" lon="5.09444">
        <ele>462.97</ele>
        <time>2022-05-05T07:33:37Z</time>
      </trkpt>
      <trkpt lat="47.74008" lon="5.0944">
        <ele>462.73</ele>
        <time>2022-05-05T07:33:40Z</time>
      </trkpt>
      <trkpt lat="47.74006" lon="5.09436">
        <ele>462.46</ele>
        <time>2022-05-05T07:33:42Z</time>
      </trkpt>
      <trkpt lat="47.74005" lon="5.09433">
        <ele>462.25</ele>
        <time>2022-05-05T07:33:44Z</time>
      </trkpt>
      <trkpt lat="47.74004" lon="5.09429">
        <ele>461.97</ele>
        <time>2022-05-05T07:33:45Z</time>
      </trkpt>
      <trkpt lat="47.74002" lon="5.09425">
        <ele>461.65</ele>
        <time>2022-05-05T07:33:48Z</time>
      </trkpt>
      <trkpt lat="47.74001" lon="5.09421">
        <ele>461.34</ele>
        <time>2022-05-05T07:33:50Z</time>
      </trkpt>
      <trkpt lat="47.74" lon="5.09417">
        <ele>461.02</ele>
        <time>2022-05-05T07:33:53Z</time>
      </trkpt>
      <trkpt lat="47.73999" lon="5.09413">
        <ele>460.54</ele>
        <time>2022-05-05T07:33:57Z</time>
      </trkpt>
      <trkpt lat="47.73998" lon="5.09408">
        <ele>459.94</ele>
        <time>2022-05-05T07:34:01Z</time>
      </trkpt>
      <trkpt lat="47.73997" lon="5.09403">
        <ele>459.36</ele>
        <time>2022-05-05T07:34:03Z</time>
      </trkpt>
      <trkpt lat="47.73995" lon="5.094">
        <ele>458.95</ele>
        <time>2022-05-05T07:34:07Z</time>
      </trkpt>
      <trkpt lat="47.73993" lon="5.09397">
        <ele>458.55</ele>
        <time>2022-05-05T07:34:10Z</time>
      </trkpt>
      <trkpt lat="47.73991" lon="5.09394">
        <ele>458.17</ele>
        <time>2022-05-05T07:34:13Z</time>
      </trkpt>
      <trkpt lat="47.73989" lon="5.09391">
        <ele>457.8</ele>
        <time>2022-05-05T07:34:15Z</time>
      </trkpt>
      <trkpt lat="47.73987" lon="5.09387">
        <ele>457.43</ele>
        <time>2022-05-05T07:34:17Z</time>
      </trkpt>
      <trkpt lat="47.73985" lon="5.09384">
        <ele>457.2</ele>
        <time>2022-05-05T07:34:18Z</time>
      </trkpt>
      <trkpt lat="47.73984" lon="5.0938">
        <ele>456.97</ele>
        <time>2022-05-05T07:34:20Z</time>
      </trkpt>
      <trkpt lat="47.73983" lon="5.09376">
        <ele>456.74</ele>
        <time>2022-05-05T07:34:22Z</time>
      </trkpt>
      <trkpt lat="47.73982" lon="5.09372">
        <ele>456.53</ele>
        <time>2022-05-05T07:34:26Z</time>
      </trkpt>
      <trkpt lat="47.73981" lon="5.09369">
        <ele>456.37</ele>
        <time>2022-05-05T07:34:29Z</time>
      </trkpt>
      <trkpt lat="47.73979" lon="5.09364">
        <ele>456.13</ele>
        <time>2022-05-05T07:34:30Z</time>
      </trkpt>
      <trkpt lat="47.73978" lon="5.09361">
        <ele>455.99</ele>
        <time>2022-05-05T07:34:32Z</time>
      </trkpt>
      <trkpt lat="47.73976" lon="5.09357">
        <ele>455.68</ele>
        <time>2022-05-05T07:34:35Z</time>
      </trkpt>
      <trkpt lat="47.73974" lon="5.09354">
        <ele>455.47</ele>
        <time>2022-05-05T07:34:36Z</time>
      </trkpt>
      <trkpt lat="47.73973" lon="5.0935">
        <ele>455.19</ele>
        <time>2022-05-05T07:34:39Z</time>
      </trkpt>
      <trkpt lat="47.73971" lon="5.09347">
        <ele>454.94</ele>
        <time>2022-05-05T07:34:41Z</time>
      </trkpt>
      <trkpt lat="47.73969" lon="5.09344">
        <ele>454.63</ele>
        <time>2022-05-05T07:34:42Z</time>
      </trkpt>
      <trkpt lat="47.73967" lon="5.09341">
        <ele>454.28</ele>
        <time>2022-05-05T07:34:44Z</time>
      </trkpt>
      <trkpt lat="47.73965" lon="5.09339">
        <ele>453.99</ele>
        <time>2022-05-05T07:34:47Z</time>
      </trkpt>
      <trkpt lat="47.73962" lon="5.09337">
        <ele>453.63</ele>
        <time>2022-05-05T07:34:49Z</time>
      </trkpt>
      <trkpt lat="47.73959" lon="5.09335">
        <ele>453.23</ele>
        <time>2022-05-05T07:34:53Z</time>
      </trkpt>
      <trkpt lat="47.73956" lon="5.09333">
        <ele>452.8</ele>
        <time>2022-05-05T07:34:56Z</time>
      </trkpt>
      <trkpt lat="47.73954" lon="5.0933">
        <ele>452.29</ele>
        <time>2022-05-05T07:34:59Z</time>
      </trkpt>
      <trkpt lat="47.73952" lon="5.09326">
        <ele>451.58</ele>
        <time>2022-05-05T07:35:03Z</time>
      </trkpt>
      <trkpt lat="47.7395" lon="5.09324">
        <ele>451.06</ele>
        <time>2022-05-05T07:35:10Z</time>
      </trkpt>
      <trkpt lat="47.73949" lon="5.0932">
        <ele>450.32</ele>
        <time>2022-05-05T07:35:17Z</time>
      </trkpt>
      <trkpt lat="47.73947" lon="5.09316">
        <ele>449.35</ele>
        <time>2022-05-05T07:35:22Z</time>
      </trkpt>
      <trkpt lat="47.73945" lon="5.09312">
        <ele>448.28</ele>
        <time>2022-05-05T07:35:23Z</time>
      </trkpt>
      <trkpt lat="47.73943" lon="5.09309">
        <ele>447.42</ele>
        <time>2022-05-05T07:35:26Z</time>
      </trkpt>
      <trkpt lat="47.73941" lon="5.09306">
        <ele>446.59</ele>
        <time>2022-05-05T07:35:29Z</time>
      </trkpt>
      <trkpt lat="47.73939" lon="5.09303">
        <ele>445.76</ele>
        <time>2022-05-05T07:35:32Z</time>
      </trkpt>
      <trkpt lat="47.73937" lon="5.09301">
        <ele>445.11</ele>
        <time>2022-05-05T07:35:35Z</time>
      </trkpt>
      <trkpt lat="47.73934" lon="5.09299">
        <ele>444.32</ele>
        <time>2022-05-05T07:35:38Z</time>
      </trkpt>
      <trkpt lat="47.73931" lon="5.09298">
        <ele>443.7</ele>
        <time>2022-05-05T07:35:42Z</time>
      </trkpt>
      <trkpt lat="47.73928" lon="5.09296">
        <ele>442.91</ele>
        <time>2022-05-05T07:35:45Z</time>
      </trkpt>
      <trkpt lat="47.73925" lon="5.09294">
        <ele>442.12</ele>
        <time>2022-05-05T07:35:48Z</time>
      </trkpt>
      <trkpt lat="47.73923" lon="5.09293">
        <ele>441.65</ele>
        <time>2022-05-05T07:35:52Z</time>
      </trkpt>
      <trkpt lat="47.7392" lon="5.09291">
        <ele>440.86</ele>
        <time>2022-05-05T07:35:54Z</time>
      </trkpt>
      <trkpt lat="47.73917" lon="5.09289">
        <ele>440.07</ele>
        <time>2022-05-05T07:35:58Z</time>
      </trkpt>
      <trkpt lat="47.73914" lon="5.09288">
        <ele>439.88</ele>
        <time>2022-05-05T07:36:00Z</time>
      </trkpt>
      <trkpt lat="47.73911" lon="5.09286">
        <ele>439.54</ele>
        <time>2022-05-05T07:36:03Z</time>
      </trkpt>
      <trkpt lat="47.73909" lon="5.09283">
        <ele>438.99</ele>
        <time>2022-05-05T07:36:06Z</time>
      </trkpt>
      <trkpt lat="47.73907" lon="5.09281">
        <ele>438.62</ele>
        <time>2022-05-05T07:36:08Z</time>
      </trkpt>
      <trkpt lat="47.73904" lon="5.09279">
        <ele>438.24</ele>
        <time>2022-05-05T07:36:11Z</time>
      </trkpt>
      <trkpt lat="47.73902" lon="5.09277">
        <ele>437.97</ele>
        <time>2022-05-05T07:36:15Z</time>
      </trkpt>
      <trkpt lat="47.73899" lon="5.09274">
        <ele>437.79</ele>
        <time>2022-05-05T07:36:17Z</time>
      </trkpt>
      <trkpt lat="47.73897" lon="5.09271">
        <ele>437.55</ele>
        <time>2022-05-05T07:36:20Z</time>
      </trkpt>
      <trkpt lat="47.73895" lon="5.09269">
        <ele>437.33</ele>
        <time>2022-05-05T07:36:22Z</time>
      </trkpt>
      <trkpt lat="47.73892" lon="5.09267">
        <ele>437.01</ele>
        <time>2022-05-05T07:36:25Z</time>
      </trkpt>
      <trkpt lat="47.73889" lon="5.09265">
        <ele>436.63</ele>
        <time>2022-05-05T07:36:28Z</time>
      </trkpt>
      <trkpt lat="47.73886" lon="5.09263">
        <ele>435.93</ele>
        <time>2022-05-05T07:36:31Z</time>
      </trkpt>
      <trkpt lat="47.73883" lon="5.09262">
        <ele>435.3</ele>
        <time>2022-05-05T07:36:33Z</time>
      </trkpt>
      <trkpt lat="47.7388" lon="5.09261">
        <ele>434.65</ele>
        <time>2022-05-05T07:36:36Z</time>
      </trkpt>
      <trkpt lat="47.73877" lon="5.0926">
        <ele>433.97</ele>
        <time>2022-05-05T07:36:38Z</time>
      </trkpt>
      <trkpt lat="47.73875" lon="5.09259">
        <ele>433.46</ele>
        <time>2022-05-05T07:36:40Z</time>
      </trkpt>
      <trkpt lat="47.73872" lon="5.09257">
        <ele>432.57</ele>
        <time>2022-05-05T07:36:42Z</time>
      </trkpt>
      <trkpt lat="47.73869" lon="5.09255">
        <ele>431.63</ele>
        <time>2022-05-05T07:36:45Z</time>
      </trkpt>
      <trkpt lat="47.73866" lon="5.09254">
        <ele>430.84</ele>
        <time>2022-05-05T07:36:48Z</time>
      </trkpt>
      <trkpt lat="47.73863" lon="5.09253">
        <ele>430.03</ele>
        <time>2022-05-05T07:36:50Z</time>
      </trkpt>
      <trkpt lat="47.7386" lon="5.09251">
        <ele>429.21</ele>
        <time>2022-05-05T07:36:53Z</time>
      </trkpt>
      <trkpt lat="47.73857" lon="5.0925">
        <ele>429</ele>
        <time>2022-05-05T07:36:56Z</time>
      </trkpt>
      <trkpt lat="47.73855" lon="5.09248">
        <ele>429.04</ele>
        <time>2022-05-05T07:36:58Z</time>
      </trkpt>
      <trkpt lat="47.73852" lon="5.09247">
        <ele>429.04</ele>
        <time>2022-05-05T07:37:00Z</time>
      </trkpt>
      <trkpt lat="47.73849" lon="5.09245">
        <ele>429.02</ele>
        <time>2022-05-05T07:37:03Z</time>
      </trkpt>
      <trkpt lat="47.73846" lon="5.09244">
        <ele>428.98</ele>
        <time>2022-05-05T07:37:06Z</time>
      </trkpt>
      <trkpt lat="47.73843" lon="5.09242">
        <ele>428.91</ele>
        <time>2022-05-05T07:37:09Z</time>
      </trkpt>
      <trkpt lat="47.7384" lon="5.09241">
        <ele>428.83</ele>
        <time>2022-05-05T07:37:12Z</time>
      </trkpt>
      <trkpt lat="47.73838" lon="5.0924">
        <ele>428.76</ele>
        <time>2022-05-05T07:37:14Z</time>
      </trkpt>
      <trkpt lat="47.73835" lon="5.09238">
        <ele>428.62</ele>
        <time>2022-05-05T07:37:16Z</time>
      </trkpt>
      <trkpt lat="47.73832" lon="5.09237">
        <ele>428.37</ele>
        <time>2022-05-05T07:37:19Z</time>
      </trkpt>
      <trkpt lat="47.73829" lon="5.09235">
        <ele>427.91</ele>
        <time>2022-05-05T07:37:21Z</time>
      </trkpt>
      <trkpt lat="47.73826" lon="5.09234">
        <ele>427.48</ele>
        <time>2022-05-05T07:37:24Z</time>
      </trkpt>
      <trkpt lat="47.73823" lon="5.09232">
        <ele>426.99</ele>
        <time>2022-05-05T07:37:27Z</time>
      </trkpt>
      <trkpt lat="47.73821" lon="5.09231">
        <ele>426.68</ele>
        <time>2022-05-05T07:37:30Z</time>
      </trkpt>
      <trkpt lat="47.73818" lon="5.09229">
        <ele>426.17</ele>
        <time>2022-05-05T07:37:32Z</time>
      </trkpt>
      <trkpt lat="47.73815" lon="5.09228">
        <ele>425.71</ele>
        <time>2022-05-05T07:37:36Z</time>
      </trkpt>
      <trkpt lat="47.73812" lon="5.09227">
        <ele>425.23</ele>
        <time>2022-05-05T07:37:39Z</time>
      </trkpt>
      <trkpt lat="47.73809" lon="5.09226">
        <ele>424.75</ele>
        <time>2022-05-05T07:37:42Z</time>
      </trkpt>
      <trkpt lat="47.73805" lon="5.09224">
        <ele>424.01</ele>
        <time>2022-05-05T07:37:45Z</time>
      </trkpt>
      <trkpt lat="47.73803" lon="5.09222">
        <ele>423.42</ele>
        <time>2022-05-05T07:37:48Z</time>
      </trkpt>
      <trkpt lat="47.738" lon="5.0922">
        <ele>422.58</ele>
        <time>2022-05-05T07:37:50Z</time>
      </trkpt>
      <trkpt lat="47.73798" lon="5.09218">
        <ele>421.95</ele>
        <time>2022-05-05T07:37:53Z</time>
      </trkpt>
      <trkpt lat="47.73795" lon="5.09217">
        <ele>421.23</ele>
        <time>2022-05-05T07:37:55Z</time>
      </trkpt>
      <trkpt lat="47.73792" lon="5.09216">
        <ele>420.51</ele>
        <time>2022-05-05T07:37:59Z</time>
      </trkpt>
      <trkpt lat="47.73789" lon="5.09215">
        <ele>419.8</ele>
        <time>2022-05-05T07:38:01Z</time>
      </trkpt>
      <trkpt lat="47.73786" lon="5.09214">
        <ele>419.1</ele>
        <time>2022-05-05T07:38:04Z</time>
      </trkpt>
      <trkpt lat="47.73783" lon="5.09212">
        <ele>418.32</ele>
        <time>2022-05-05T07:38:08Z</time>
      </trkpt>
      <trkpt lat="47.73781" lon="5.09211">
        <ele>417.84</ele>
        <time>2022-05-05T07:38:10Z</time>
      </trkpt>
      <trkpt lat="47.73778" lon="5.09209">
        <ele>417.09</ele>
        <time>2022-05-05T07:38:14Z</time>
      </trkpt>
      <trkpt lat="47.73774" lon="5.09208">
        <ele>416.83</ele>
        <time>2022-05-05T07:38:17Z</time>
      </trkpt>
      <trkpt lat="47.73771" lon="5.09207">
        <ele>416.59</ele>
        <time>2022-05-05T07:38:20Z</time>
      </trkpt>
      <trkpt lat="47.73768" lon="5.09206">
        <ele>416.3</ele>
        <time>2022-05-05T07:38:22Z</time>
      </trkpt>
      <trkpt lat="47.73765" lon="5.09205">
        <ele>415.97</ele>
        <time>2022-05-05T07:38:26Z</time>
      </trkpt>
      <trkpt lat="47.73762" lon="5.09204">
        <ele>415.59</ele>
        <time>2022-05-05T07:38:28Z</time>
      </trkpt>
      <trkpt lat="47.7376" lon="5.09203">
        <ele>415.24</ele>
        <time>2022-05-05T07:38:31Z</time>
      </trkpt>
      <trkpt lat="47.73756" lon="5.09203">
        <ele>414.93</ele>
        <time>2022-05-05T07:38:34Z</time>
      </trkpt>
      <trkpt lat="47.73753" lon="5.09203">
        <ele>414.7</ele>
        <time>2022-05-05T07:38:38Z</time>
      </trkpt>
      <trkpt lat="47.7375" lon="5.09203">
        <ele>414.46</ele>
        <time>2022-05-05T07:38:40Z</time>
      </trkpt>
      <trkpt lat="47.73747" lon="5.09203">
        <ele>413.82</ele>
        <time>2022-05-05T07:38:44Z</time>
      </trkpt>
      <trkpt lat="47.73744" lon="5.09203">
        <ele>413.18</ele>
        <time>2022-05-05T07:38:46Z</time>
      </trkpt>
      <trkpt lat="47.73741" lon="5.09203">
        <ele>412.54</ele>
        <time>2022-05-05T07:38:49Z</time>
      </trkpt>
      <trkpt lat="47.73738" lon="5.09203">
        <ele>411.9</ele>
        <time>2022-05-05T07:38:51Z</time>
      </trkpt>
      <trkpt lat="47.73735" lon="5.09203">
        <ele>411.27</ele>
        <time>2022-05-05T07:38:54Z</time>
      </trkpt>
      <trkpt lat="47.73731" lon="5.09202">
        <ele>410.2</ele>
        <time>2022-05-05T07:38:57Z</time>
      </trkpt>
      <trkpt lat="47.73728" lon="5.09202">
        <ele>409.57</ele>
        <time>2022-05-05T07:39:00Z</time>
      </trkpt>
      <trkpt lat="47.73725" lon="5.09203">
        <ele>409.13</ele>
        <time>2022-05-05T07:39:02Z</time>
      </trkpt>
      <trkpt lat="47.73723" lon="5.09203">
        <ele>408.71</ele>
        <time>2022-05-05T07:39:05Z</time>
      </trkpt>
      <trkpt lat="47.7372" lon="5.09202">
        <ele>408.18</ele>
        <time>2022-05-05T07:39:07Z</time>
      </trkpt>
      <trkpt lat="47.73717" lon="5.09202">
        <ele>407.93</ele>
        <time>2022-05-05T07:39:09Z</time>
      </trkpt>
      <trkpt lat="47.73714" lon="5.09203">
        <ele>407.86</ele>
        <time>2022-05-05T07:39:12Z</time>
      </trkpt>
      <trkpt lat="47.73711" lon="5.09204">
        <ele>407.77</ele>
        <time>2022-05-05T07:39:15Z</time>
      </trkpt>
      <trkpt lat="47.73708" lon="5.09204">
        <ele>407.52</ele>
        <time>2022-05-05T07:39:18Z</time>
      </trkpt>
      <trkpt lat="47.73705" lon="5.09205">
        <ele>407.42</ele>
        <time>2022-05-05T07:39:20Z</time>
      </trkpt>
      <trkpt lat="47.73702" lon="5.09206">
        <ele>407.32</ele>
        <time>2022-05-05T07:39:23Z</time>
      </trkpt>
      <trkpt lat="47.73699" lon="5.09206">
        <ele>407.06</ele>
        <time>2022-05-05T07:39:26Z</time>
      </trkpt>
      <trkpt lat="47.73696" lon="5.09207">
        <ele>406.95</ele>
        <time>2022-05-05T07:39:30Z</time>
      </trkpt>
      <trkpt lat="47.73694" lon="5.09208">
        <ele>406.91</ele>
        <time>2022-05-05T07:39:31Z</time>
      </trkpt>
      <trkpt lat="47.73691" lon="5.09208">
        <ele>406.64</ele>
        <time>2022-05-05T07:39:34Z</time>
      </trkpt>
      <trkpt lat="47.73688" lon="5.09209">
        <ele>406.51</ele>
        <time>2022-05-05T07:39:36Z</time>
      </trkpt>
      <trkpt lat="47.73685" lon="5.0921">
        <ele>406.37</ele>
        <time>2022-05-05T07:39:39Z</time>
      </trkpt>
      <trkpt lat="47.73682" lon="5.09211">
        <ele>406.22</ele>
        <time>2022-05-05T07:39:41Z</time>
      </trkpt>
      <trkpt lat="47.73679" lon="5.09213">
        <ele>406.19</ele>
        <time>2022-05-05T07:39:44Z</time>
      </trkpt>
      <trkpt lat="47.73677" lon="5.09214">
        <ele>406.12</ele>
        <time>2022-05-05T07:39:47Z</time>
      </trkpt>
      <trkpt lat="47.73674" lon="5.09215">
        <ele>405.94</ele>
        <time>2022-05-05T07:39:50Z</time>
      </trkpt>
      <trkpt lat="47.73671" lon="5.09216">
        <ele>405.76</ele>
        <time>2022-05-05T07:39:52Z</time>
      </trkpt>
      <trkpt lat="47.73668" lon="5.09216">
        <ele>405.46</ele>
        <time>2022-05-05T07:39:56Z</time>
      </trkpt>
      <trkpt lat="47.73665" lon="5.09217">
        <ele>405.28</ele>
        <time>2022-05-05T07:39:59Z</time>
      </trkpt>
      <trkpt lat="47.73662" lon="5.09218">
        <ele>405.09</ele>
        <time>2022-05-05T07:40:02Z</time>
      </trkpt>
      <trkpt lat="47.73659" lon="5.09219">
        <ele>404.89</ele>
        <time>2022-05-05T07:40:05Z</time>
      </trkpt>
      <trkpt lat="47.73657" lon="5.09221">
        <ele>404.85</ele>
        <time>2022-05-05T07:40:08Z</time>
      </trkpt>
      <trkpt lat="47.73654" lon="5.09223">
        <ele>404.76</ele>
        <time>2022-05-05T07:40:11Z</time>
      </trkpt>
      <trkpt lat="47.73651" lon="5.09224">
        <ele>404.59</ele>
        <time>2022-05-05T07:40:14Z</time>
      </trkpt>
      <trkpt lat="47.73648" lon="5.09225">
        <ele>404.42</ele>
        <time>2022-05-05T07:40:16Z</time>
      </trkpt>
      <trkpt lat="47.73646" lon="5.09226">
        <ele>404.35</ele>
        <time>2022-05-05T07:40:20Z</time>
      </trkpt>
      <trkpt lat="47.73642" lon="5.09228">
        <ele>404.19</ele>
        <time>2022-05-05T07:40:24Z</time>
      </trkpt>
      <trkpt lat="47.73639" lon="5.09229">
        <ele>403.99</ele>
        <time>2022-05-05T07:40:27Z</time>
      </trkpt>
      <trkpt lat="47.73636" lon="5.0923">
        <ele>403.99</ele>
        <time>2022-05-05T07:40:31Z</time>
      </trkpt>
      <trkpt lat="47.73633" lon="5.09232">
        <ele>404.12</ele>
        <time>2022-05-05T07:40:33Z</time>
      </trkpt>
      <trkpt lat="47.7363" lon="5.09234">
        <ele>404.24</ele>
        <time>2022-05-05T07:40:36Z</time>
      </trkpt>
      <trkpt lat="47.73628" lon="5.09235">
        <ele>404.27</ele>
        <time>2022-05-05T07:40:39Z</time>
      </trkpt>
      <trkpt lat="47.73625" lon="5.09236">
        <ele>404.24</ele>
        <time>2022-05-05T07:40:43Z</time>
      </trkpt>
      <trkpt lat="47.73622" lon="5.09237">
        <ele>404.2</ele>
        <time>2022-05-05T07:40:46Z</time>
      </trkpt>
      <trkpt lat="47.73619" lon="5.09238">
        <ele>404.15</ele>
        <time>2022-05-05T07:40:49Z</time>
      </trkpt>
      <trkpt lat="47.73617" lon="5.09241">
        <ele>404.38</ele>
        <time>2022-05-05T07:40:53Z</time>
      </trkpt>
      <trkpt lat="47.73614" lon="5.09243">
        <ele>404.43</ele>
        <time>2022-05-05T07:40:59Z</time>
      </trkpt>
      <trkpt lat="47.73611" lon="5.09246">
        <ele>404.56</ele>
        <time>2022-05-05T07:41:03Z</time>
      </trkpt>
      <trkpt lat="47.73608" lon="5.09248">
        <ele>404.66</ele>
        <time>2022-05-05T07:41:05Z</time>
      </trkpt>
      <trkpt lat="47.73605" lon="5.09248">
        <ele>404.55</ele>
        <time>2022-05-05T07:41:07Z</time>
      </trkpt>
      <trkpt lat="47.73602" lon="5.09249">
        <ele>404.55</ele>
        <time>2022-05-05T07:41:10Z</time>
      </trkpt>
      <trkpt lat="47.73599" lon="5.09249">
        <ele>404.44</ele>
        <time>2022-05-05T07:41:15Z</time>
      </trkpt>
      <trkpt lat="47.73596" lon="5.0925">
        <ele>404.46</ele>
        <time>2022-05-05T07:41:19Z</time>
      </trkpt>
      <trkpt lat="47.73593" lon="5.0925">
        <ele>404.35</ele>
        <time>2022-05-05T07:41:21Z</time>
      </trkpt>
      <trkpt lat="47.73589" lon="5.09251">
        <ele>404.32</ele>
        <time>2022-05-05T07:41:25Z</time>
      </trkpt>
      <trkpt lat="47.73587" lon="5.09251">
        <ele>404.24</ele>
        <time>2022-05-05T07:41:27Z</time>
      </trkpt>
      <trkpt lat="47.73584" lon="5.09252">
        <ele>404.24</ele>
        <time>2022-05-05T07:41:31Z</time>
      </trkpt>
      <trkpt lat="47.73581" lon="5.09251">
        <ele>404.02</ele>
        <time>2022-05-05T07:41:35Z</time>
      </trkpt>
      <trkpt lat="47.73578" lon="5.09249">
        <ele>403.66</ele>
        <time>2022-05-05T07:41:37Z</time>
      </trkpt>
      <trkpt lat="47.73575" lon="5.09246">
        <ele>403.12</ele>
        <time>2022-05-05T07:41:40Z</time>
      </trkpt>
      <trkpt lat="47.73573" lon="5.09243">
        <ele>402.62</ele>
        <time>2022-05-05T07:41:42Z</time>
      </trkpt>
      <trkpt lat="47.73572" lon="5.09239">
        <ele>402.01</ele>
        <time>2022-05-05T07:41:47Z</time>
      </trkpt>
      <trkpt lat="47.73571" lon="5.09235">
        <ele>401.4</ele>
        <time>2022-05-05T07:41:50Z</time>
      </trkpt>
      <trkpt lat="47.73571" lon="5.09231">
        <ele>400.82</ele>
        <time>2022-05-05T07:41:53Z</time>
      </trkpt>
      <trkpt lat="47.73572" lon="5.09226">
        <ele>400.14</ele>
        <time>2022-05-05T07:41:57Z</time>
      </trkpt>
      <trkpt lat="47.73572" lon="5.09222">
        <ele>399.57</ele>
        <time>2022-05-05T07:41:59Z</time>
      </trkpt>
      <trkpt lat="47.73574" lon="5.09218">
        <ele>399.36</ele>
        <time>2022-05-05T07:42:02Z</time>
      </trkpt>
      <trkpt lat="47.73575" lon="5.09213">
        <ele>399.07</ele>
        <time>2022-05-05T07:42:06Z</time>
      </trkpt>
      <trkpt lat="47.73576" lon="5.09209">
        <ele>398.88</ele>
        <time>2022-05-05T07:42:09Z</time>
      </trkpt>
      <trkpt lat="47.73577" lon="5.09204">
        <ele>398.67</ele>
        <time>2022-05-05T07:42:12Z</time>
      </trkpt>
      <trkpt lat="47.73579" lon="5.09201">
        <ele>398.72</ele>
        <time>2022-05-05T07:42:15Z</time>
      </trkpt>
      <trkpt lat="47.7358" lon="5.09196">
        <ele>398.6</ele>
        <time>2022-05-05T07:42:19Z</time>
      </trkpt>
      <trkpt lat="47.73582" lon="5.09192">
        <ele>398.46</ele>
        <time>2022-05-05T07:42:21Z</time>
      </trkpt>
      <trkpt lat="47.73583" lon="5.09188">
        <ele>398.03</ele>
        <time>2022-05-05T07:42:24Z</time>
      </trkpt>
      <trkpt lat="47.73585" lon="5.09185">
        <ele>397.64</ele>
        <time>2022-05-05T07:42:26Z</time>
      </trkpt>
      <trkpt lat="47.73586" lon="5.09181">
        <ele>397.11</ele>
        <time>2022-05-05T07:42:29Z</time>
      </trkpt>
      <trkpt lat="47.73588" lon="5.09177">
        <ele>396.64</ele>
        <time>2022-05-05T07:42:31Z</time>
      </trkpt>
      <trkpt lat="47.7359" lon="5.09174">
        <ele>396.35</ele>
        <time>2022-05-05T07:42:34Z</time>
      </trkpt>
      <trkpt lat="47.73592" lon="5.09169">
        <ele>395.88</ele>
        <time>2022-05-05T07:42:37Z</time>
      </trkpt>
      <trkpt lat="47.73595" lon="5.09166">
        <ele>395.73</ele>
        <time>2022-05-05T07:42:39Z</time>
      </trkpt>
      <trkpt lat="47.73597" lon="5.09162">
        <ele>395.23</ele>
        <time>2022-05-05T07:42:42Z</time>
      </trkpt>
      <trkpt lat="47.73599" lon="5.0916">
        <ele>395.03</ele>
        <time>2022-05-05T07:42:43Z</time>
      </trkpt>
      <trkpt lat="47.73601" lon="5.09156">
        <ele>394.49</ele>
        <time>2022-05-05T07:42:46Z</time>
      </trkpt>
      <trkpt lat="47.73602" lon="5.09153">
        <ele>394.05</ele>
        <time>2022-05-05T07:42:47Z</time>
      </trkpt>
      <trkpt lat="47.73604" lon="5.0915">
        <ele>393.64</ele>
        <time>2022-05-05T07:42:49Z</time>
      </trkpt>
      <trkpt lat="47.73606" lon="5.09147">
        <ele>393.22</ele>
        <time>2022-05-05T07:42:52Z</time>
      </trkpt>
      <trkpt lat="47.73608" lon="5.09143">
        <ele>392.61</ele>
        <time>2022-05-05T07:42:54Z</time>
      </trkpt>
      <trkpt lat="47.7361" lon="5.0914">
        <ele>392.16</ele>
        <time>2022-05-05T07:42:57Z</time>
      </trkpt>
      <trkpt lat="47.73613" lon="5.09137">
        <ele>391.87</ele>
        <time>2022-05-05T07:42:59Z</time>
      </trkpt>
      <trkpt lat="47.73615" lon="5.09134">
        <ele>391.6</ele>
        <time>2022-05-05T07:43:02Z</time>
      </trkpt>
      <trkpt lat="47.73617" lon="5.0913">
        <ele>391.21</ele>
        <time>2022-05-05T07:43:05Z</time>
      </trkpt>
      <trkpt lat="47.73619" lon="5.09127">
        <ele>390.98</ele>
        <time>2022-05-05T07:43:07Z</time>
      </trkpt>
      <trkpt lat="47.73621" lon="5.09124">
        <ele>390.76</ele>
        <time>2022-05-05T07:43:10Z</time>
      </trkpt>
      <trkpt lat="47.73623" lon="5.0912">
        <ele>390.43</ele>
        <time>2022-05-05T07:43:12Z</time>
      </trkpt>
      <trkpt lat="47.73625" lon="5.09117">
        <ele>390.24</ele>
        <time>2022-05-05T07:43:14Z</time>
      </trkpt>
      <trkpt lat="47.73627" lon="5.09114">
        <ele>390.07</ele>
        <time>2022-05-05T07:43:16Z</time>
      </trkpt>
      <trkpt lat="47.73629" lon="5.0911">
        <ele>389.85</ele>
        <time>2022-05-05T07:43:19Z</time>
      </trkpt>
      <trkpt lat="47.73631" lon="5.09107">
        <ele>389.85</ele>
        <time>2022-05-05T07:43:22Z</time>
      </trkpt>
      <trkpt lat="47.73633" lon="5.09103">
        <ele>389.78</ele>
        <time>2022-05-05T07:43:24Z</time>
      </trkpt>
      <trkpt lat="47.73634" lon="5.09099">
        <ele>389.6</ele>
        <time>2022-05-05T07:43:27Z</time>
      </trkpt>
      <trkpt lat="47.73636" lon="5.09096">
        <ele>389.6</ele>
        <time>2022-05-05T07:43:29Z</time>
      </trkpt>
      <trkpt lat="47.73638" lon="5.09093">
        <ele>389.6</ele>
        <time>2022-05-05T07:43:32Z</time>
      </trkpt>
      <trkpt lat="47.73641" lon="5.0909">
        <ele>389.61</ele>
        <time>2022-05-05T07:43:35Z</time>
      </trkpt>
      <trkpt lat="47.73642" lon="5.09087">
        <ele>389.42</ele>
        <time>2022-05-05T07:43:37Z</time>
      </trkpt>
      <trkpt lat="47.73644" lon="5.09084">
        <ele>389.25</ele>
        <time>2022-05-05T07:43:39Z</time>
      </trkpt>
      <trkpt lat="47.73646" lon="5.09081">
        <ele>389.11</ele>
        <time>2022-05-05T07:43:41Z</time>
      </trkpt>
      <trkpt lat="47.73648" lon="5.09077">
        <ele>388.95</ele>
        <time>2022-05-05T07:43:44Z</time>
      </trkpt>
      <trkpt lat="47.7365" lon="5.09074">
        <ele>388.86</ele>
        <time>2022-05-05T07:43:46Z</time>
      </trkpt>
      <trkpt lat="47.73651" lon="5.0907">
        <ele>388.69</ele>
        <time>2022-05-05T07:43:49Z</time>
      </trkpt>
      <trkpt lat="47.73653" lon="5.09066">
        <ele>388.58</ele>
        <time>2022-05-05T07:43:51Z</time>
      </trkpt>
      <trkpt lat="47.73654" lon="5.09062">
        <ele>388.43</ele>
        <time>2022-05-05T07:43:53Z</time>
      </trkpt>
      <trkpt lat="47.73654" lon="5.09057">
        <ele>388.16</ele>
        <time>2022-05-05T07:43:57Z</time>
      </trkpt>
      <trkpt lat="47.73653" lon="5.09053">
        <ele>388.02</ele>
        <time>2022-05-05T07:43:59Z</time>
      </trkpt>
      <trkpt lat="47.73651" lon="5.09049">
        <ele>387.87</ele>
        <time>2022-05-05T07:44:02Z</time>
      </trkpt>
      <trkpt lat="47.73649" lon="5.09047">
        <ele>387.73</ele>
        <time>2022-05-05T07:44:04Z</time>
      </trkpt>
      <trkpt lat="47.73646" lon="5.09044">
        <ele>387.51</ele>
        <time>2022-05-05T07:44:07Z</time>
      </trkpt>
      <trkpt lat="47.73644" lon="5.09042">
        <ele>387.37</ele>
        <time>2022-05-05T07:44:10Z</time>
      </trkpt>
      <trkpt lat="47.73641" lon="5.0904">
        <ele>387.15</ele>
        <time>2022-05-05T07:44:12Z</time>
      </trkpt>
      <trkpt lat="47.73639" lon="5.09038">
        <ele>387.01</ele>
        <time>2022-05-05T07:44:15Z</time>
      </trkpt>
      <trkpt lat="47.73636" lon="5.09037">
        <ele>386.9</ele>
        <time>2022-05-05T07:44:18Z</time>
      </trkpt>
      <trkpt lat="47.73633" lon="5.09036">
        <ele>386.79</ele>
        <time>2022-05-05T07:44:21Z</time>
      </trkpt>
      <trkpt lat="47.7363" lon="5.09035">
        <ele>386.68</ele>
        <time>2022-05-05T07:44:23Z</time>
      </trkpt>
      <trkpt lat="47.73627" lon="5.09036">
        <ele>386.57</ele>
        <time>2022-05-05T07:44:27Z</time>
      </trkpt>
      <trkpt lat="47.73625" lon="5.09038">
        <ele>386.5</ele>
        <time>2022-05-05T07:44:29Z</time>
      </trkpt>
      <trkpt lat="47.73622" lon="5.09039">
        <ele>386.39</ele>
        <time>2022-05-05T07:44:32Z</time>
      </trkpt>
      <trkpt lat="47.73619" lon="5.0904">
        <ele>386.28</ele>
        <time>2022-05-05T07:44:34Z</time>
      </trkpt>
      <trkpt lat="47.73616" lon="5.0904">
        <ele>386.18</ele>
        <time>2022-05-05T07:44:37Z</time>
      </trkpt>
      <trkpt lat="47.73613" lon="5.09041">
        <ele>386.07</ele>
        <time>2022-05-05T07:44:39Z</time>
      </trkpt>
      <trkpt lat="47.73611" lon="5.09042">
        <ele>385.99</ele>
        <time>2022-05-05T07:44:41Z</time>
      </trkpt>
      <trkpt lat="47.73607" lon="5.09042">
        <ele>385.7</ele>
        <time>2022-05-05T07:44:44Z</time>
      </trkpt>
      <trkpt lat="47.73605" lon="5.09043">
        <ele>385.56</ele>
        <time>2022-05-05T07:44:46Z</time>
      </trkpt>
      <trkpt lat="47.73602" lon="5.09044">
        <ele>385.34</ele>
        <time>2022-05-05T07:44:49Z</time>
      </trkpt>
      <trkpt lat="47.73599" lon="5.09046">
        <ele>385.13</ele>
        <time>2022-05-05T07:44:51Z</time>
      </trkpt>
      <trkpt lat="47.73597" lon="5.09048">
        <ele>384.98</ele>
        <time>2022-05-05T07:44:55Z</time>
      </trkpt>
      <trkpt lat="47.73594" lon="5.09049">
        <ele>384.77</ele>
        <time>2022-05-05T07:44:57Z</time>
      </trkpt>
      <trkpt lat="47.73591" lon="5.0905">
        <ele>384.55</ele>
        <time>2022-05-05T07:44:59Z</time>
      </trkpt>
      <trkpt lat="47.73588" lon="5.09052">
        <ele>384.34</ele>
        <time>2022-05-05T07:45:02Z</time>
      </trkpt>
      <trkpt lat="47.73586" lon="5.09053">
        <ele>384.19</ele>
        <time>2022-05-05T07:45:04Z</time>
      </trkpt>
      <trkpt lat="47.73583" lon="5.09055">
        <ele>384.01</ele>
        <time>2022-05-05T07:45:07Z</time>
      </trkpt>
      <trkpt lat="47.7358" lon="5.09058">
        <ele>384.38</ele>
        <time>2022-05-05T07:45:10Z</time>
      </trkpt>
      <trkpt lat="47.73577" lon="5.09061">
        <ele>384.82</ele>
        <time>2022-05-05T07:45:13Z</time>
      </trkpt>
      <trkpt lat="47.73574" lon="5.09063">
        <ele>385.14</ele>
        <time>2022-05-05T07:45:15Z</time>
      </trkpt>
      <trkpt lat="47.73572" lon="5.09065">
        <ele>385.43</ele>
        <time>2022-05-05T07:45:18Z</time>
      </trkpt>
      <trkpt lat="47.73569" lon="5.09068">
        <ele>385.86</ele>
        <time>2022-05-05T07:45:19Z</time>
      </trkpt>
      <trkpt lat="47.73566" lon="5.0907">
        <ele>386.18</ele>
        <time>2022-05-05T07:45:22Z</time>
      </trkpt>
      <trkpt lat="47.73563" lon="5.09072">
        <ele>386.51</ele>
        <time>2022-05-05T07:45:25Z</time>
      </trkpt>
      <trkpt lat="47.7356" lon="5.09074">
        <ele>386.83</ele>
        <time>2022-05-05T07:45:27Z</time>
      </trkpt>
      <trkpt lat="47.73558" lon="5.09077">
        <ele>387.23</ele>
        <time>2022-05-05T07:45:29Z</time>
      </trkpt>
      <trkpt lat="47.73555" lon="5.0908">
        <ele>387.64</ele>
        <time>2022-05-05T07:45:32Z</time>
      </trkpt>
      <trkpt lat="47.73553" lon="5.09082">
        <ele>387.86</ele>
        <time>2022-05-05T07:45:34Z</time>
      </trkpt>
      <trkpt lat="47.7355" lon="5.09084">
        <ele>388.02</ele>
        <time>2022-05-05T07:45:36Z</time>
      </trkpt>
      <trkpt lat="47.73548" lon="5.09086">
        <ele>388.1</ele>
        <time>2022-05-05T07:45:38Z</time>
      </trkpt>
      <trkpt lat="47.73546" lon="5.09088">
        <ele>388.17</ele>
        <time>2022-05-05T07:45:41Z</time>
      </trkpt>
      <trkpt lat="47.73543" lon="5.09091">
        <ele>388.28</ele>
        <time>2022-05-05T07:45:43Z</time>
      </trkpt>
      <trkpt lat="47.7354" lon="5.09093">
        <ele>388.35</ele>
        <time>2022-05-05T07:45:46Z</time>
      </trkpt>
      <trkpt lat="47.73537" lon="5.09094">
        <ele>388.38</ele>
        <time>2022-05-05T07:45:48Z</time>
      </trkpt>
      <trkpt lat="47.73534" lon="5.09095">
        <ele>388.42</ele>
        <time>2022-05-05T07:45:50Z</time>
      </trkpt>
      <trkpt lat="47.73532" lon="5.09096">
        <ele>388.46</ele>
        <time>2022-05-05T07:45:52Z</time>
      </trkpt>
      <trkpt lat="47.73528" lon="5.09097">
        <ele>388.49</ele>
        <time>2022-05-05T07:45:55Z</time>
      </trkpt>
      <trkpt lat="47.73526" lon="5.09097">
        <ele>388.36</ele>
        <time>2022-05-05T07:45:58Z</time>
      </trkpt>
      <trkpt lat="47.73523" lon="5.09096">
        <ele>388.11</ele>
        <time>2022-05-05T07:46:01Z</time>
      </trkpt>
      <trkpt lat="47.7352" lon="5.09096">
        <ele>387.9</ele>
        <time>2022-05-05T07:46:04Z</time>
      </trkpt>
      <trkpt lat="47.73517" lon="5.09094">
        <ele>387.61</ele>
        <time>2022-05-05T07:46:06Z</time>
      </trkpt>
      <trkpt lat="47.73515" lon="5.09091">
        <ele>387.36</ele>
        <time>2022-05-05T07:46:09Z</time>
      </trkpt>
      <trkpt lat="47.73513" lon="5.09088">
        <ele>387.1</ele>
        <time>2022-05-05T07:46:11Z</time>
      </trkpt>
      <trkpt lat="47.7351" lon="5.09085">
        <ele>386.78</ele>
        <time>2022-05-05T07:46:14Z</time>
      </trkpt>
      <trkpt lat="47.73509" lon="5.09081">
        <ele>386.68</ele>
        <time>2022-05-05T07:46:18Z</time>
      </trkpt>
      <trkpt lat="47.73507" lon="5.09076">
        <ele>386.63</ele>
        <time>2022-05-05T07:46:20Z</time>
      </trkpt>
      <trkpt lat="47.73506" lon="5.09071">
        <ele>386.68</ele>
        <time>2022-05-05T07:46:24Z</time>
      </trkpt>
      <trkpt lat="47.73506" lon="5.09067">
        <ele>386.77</ele>
        <time>2022-05-05T07:46:26Z</time>
      </trkpt>
      <trkpt lat="47.73505" lon="5.09063">
        <ele>386.83</ele>
        <time>2022-05-05T07:46:28Z</time>
      </trkpt>
      <trkpt lat="47.73505" lon="5.09059">
        <ele>386.92</ele>
        <time>2022-05-05T07:46:31Z</time>
      </trkpt>
      <trkpt lat="47.73505" lon="5.09054">
        <ele>387.1</ele>
        <time>2022-05-05T07:46:34Z</time>
      </trkpt>
      <trkpt lat="47.73505" lon="5.0905">
        <ele>387.36</ele>
        <time>2022-05-05T07:46:36Z</time>
      </trkpt>
      <trkpt lat="47.73505" lon="5.09046">
        <ele>387.63</ele>
        <time>2022-05-05T07:46:40Z</time>
      </trkpt>
      <trkpt lat="47.73505" lon="5.09042">
        <ele>387.89</ele>
        <time>2022-05-05T07:46:42Z</time>
      </trkpt>
      <trkpt lat="47.73505" lon="5.09036">
        <ele>388.28</ele>
        <time>2022-05-05T07:46:46Z</time>
      </trkpt>
      <trkpt lat="47.73506" lon="5.09031">
        <ele>388.58</ele>
        <time>2022-05-05T07:46:48Z</time>
      </trkpt>
      <trkpt lat="47.73506" lon="5.09026">
        <ele>388.9</ele>
        <time>2022-05-05T07:46:52Z</time>
      </trkpt>
      <trkpt lat="47.73506" lon="5.09022">
        <ele>389.16</ele>
        <time>2022-05-05T07:46:54Z</time>
      </trkpt>
      <trkpt lat="47.73506" lon="5.09018">
        <ele>389.41</ele>
        <time>2022-05-05T07:46:58Z</time>
      </trkpt>
      <trkpt lat="47.73506" lon="5.09013">
        <ele>389.73</ele>
        <time>2022-05-05T07:47:01Z</time>
      </trkpt>
      <trkpt lat="47.73505" lon="5.09009">
        <ele>390.05</ele>
        <time>2022-05-05T07:47:03Z</time>
      </trkpt>
      <trkpt lat="47.73505" lon="5.09005">
        <ele>390.31</ele>
        <time>2022-05-05T07:47:07Z</time>
      </trkpt>
      <trkpt lat="47.73505" lon="5.09001">
        <ele>390.57</ele>
        <time>2022-05-05T07:47:09Z</time>
      </trkpt>
      <trkpt lat="47.73505" lon="5.08996">
        <ele>391.16</ele>
        <time>2022-05-05T07:47:14Z</time>
      </trkpt>
      <trkpt lat="47.73506" lon="5.08992">
        <ele>391.6</ele>
        <time>2022-05-05T07:47:17Z</time>
      </trkpt>
      <trkpt lat="47.73506" lon="5.08988">
        <ele>392.11</ele>
        <time>2022-05-05T07:47:20Z</time>
      </trkpt>
      <trkpt lat="47.73505" lon="5.08984">
        <ele>392.74</ele>
        <time>2022-05-05T07:47:24Z</time>
      </trkpt>
      <trkpt lat="47.73505" lon="5.0898">
        <ele>393.26</ele>
        <time>2022-05-05T07:47:26Z</time>
      </trkpt>
      <trkpt lat="47.73505" lon="5.08976">
        <ele>393.78</ele>
        <time>2022-05-05T07:47:29Z</time>
      </trkpt>
      <trkpt lat="47.73506" lon="5.08971">
        <ele>394.37</ele>
        <time>2022-05-05T07:47:33Z</time>
      </trkpt>
      <trkpt lat="47.73505" lon="5.08967">
        <ele>395.31</ele>
        <time>2022-05-05T07:47:35Z</time>
      </trkpt>
      <trkpt lat="47.73505" lon="5.08963">
        <ele>396.09</ele>
        <time>2022-05-05T07:47:39Z</time>
      </trkpt>
      <trkpt lat="47.73504" lon="5.08958">
        <ele>397.27</ele>
        <time>2022-05-05T07:47:42Z</time>
      </trkpt>
      <trkpt lat="47.73503" lon="5.08954">
        <ele>398.29</ele>
        <time>2022-05-05T07:47:44Z</time>
      </trkpt>
      <trkpt lat="47.73502" lon="5.08949">
        <ele>399.55</ele>
        <time>2022-05-05T07:47:49Z</time>
      </trkpt>
      <trkpt lat="47.73502" lon="5.08945">
        <ele>400.38</ele>
        <time>2022-05-05T07:47:52Z</time>
      </trkpt>
      <trkpt lat="47.73502" lon="5.08941">
        <ele>400.76</ele>
        <time>2022-05-05T07:47:54Z</time>
      </trkpt>
      <trkpt lat="47.73502" lon="5.08936">
        <ele>401.15</ele>
        <time>2022-05-05T07:47:57Z</time>
      </trkpt>
      <trkpt lat="47.73501" lon="5.08932">
        <ele>401.68</ele>
        <time>2022-05-05T07:48:00Z</time>
      </trkpt>
      <trkpt lat="47.735" lon="5.08927">
        <ele>402.26</ele>
        <time>2022-05-05T07:48:03Z</time>
      </trkpt>
      <trkpt lat="47.735" lon="5.08923">
        <ele>402.54</ele>
        <time>2022-05-05T07:48:07Z</time>
      </trkpt>
      <trkpt lat="47.73499" lon="5.08919">
        <ele>402.83</ele>
        <time>2022-05-05T07:48:11Z</time>
      </trkpt>
      <trkpt lat="47.73498" lon="5.08914">
        <ele>403.28</ele>
        <time>2022-05-05T07:48:13Z</time>
      </trkpt>
      <trkpt lat="47.73497" lon="5.0891">
        <ele>403.69</ele>
        <time>2022-05-05T07:48:18Z</time>
      </trkpt>
      <trkpt lat="47.73497" lon="5.08905">
        <ele>404.21</ele>
        <time>2022-05-05T07:48:23Z</time>
      </trkpt>
      <trkpt lat="47.73496" lon="5.089">
        <ele>404.71</ele>
        <time>2022-05-05T07:48:27Z</time>
      </trkpt>
      <trkpt lat="47.73495" lon="5.08896">
        <ele>405.1</ele>
        <time>2022-05-05T07:48:29Z</time>
      </trkpt>
      <trkpt lat="47.73494" lon="5.08892">
        <ele>405.47</ele>
        <time>2022-05-05T07:48:32Z</time>
      </trkpt>
      <trkpt lat="47.73493" lon="5.08889">
        <ele>405.74</ele>
        <time>2022-05-05T07:48:35Z</time>
      </trkpt>
      <trkpt lat="47.73492" lon="5.08885">
        <ele>406.17</ele>
        <time>2022-05-05T07:48:38Z</time>
      </trkpt>
      <trkpt lat="47.73491" lon="5.0888">
        <ele>406.74</ele>
        <time>2022-05-05T07:48:40Z</time>
      </trkpt>
      <trkpt lat="47.7349" lon="5.08876">
        <ele>407.2</ele>
        <time>2022-05-05T07:48:44Z</time>
      </trkpt>
      <trkpt lat="47.73489" lon="5.08872">
        <ele>407.67</ele>
        <time>2022-05-05T07:48:48Z</time>
      </trkpt>
      <trkpt lat="47.73488" lon="5.08868">
        <ele>408.15</ele>
        <time>2022-05-05T07:48:52Z</time>
      </trkpt>
      <trkpt lat="47.73487" lon="5.08865">
        <ele>408.51</ele>
        <time>2022-05-05T07:48:55Z</time>
      </trkpt>
      <trkpt lat="47.73485" lon="5.0886">
        <ele>409.1</ele>
        <time>2022-05-05T07:48:59Z</time>
      </trkpt>
      <trkpt lat="47.73483" lon="5.08857">
        <ele>409.35</ele>
        <time>2022-05-05T07:49:01Z</time>
      </trkpt>
      <trkpt lat="47.73481" lon="5.08854">
        <ele>409.59</ele>
        <time>2022-05-05T07:49:03Z</time>
      </trkpt>
      <trkpt lat="47.73479" lon="5.0885">
        <ele>409.9</ele>
        <time>2022-05-05T07:49:06Z</time>
      </trkpt>
      <trkpt lat="47.73478" lon="5.08846">
        <ele>410.2</ele>
        <time>2022-05-05T07:49:09Z</time>
      </trkpt>
      <trkpt lat="47.73478" lon="5.08842">
        <ele>410.52</ele>
        <time>2022-05-05T07:49:12Z</time>
      </trkpt>
      <trkpt lat="47.73476" lon="5.08837">
        <ele>410.85</ele>
        <time>2022-05-05T07:49:15Z</time>
      </trkpt>
      <trkpt lat="47.73475" lon="5.08833">
        <ele>411.13</ele>
        <time>2022-05-05T07:49:17Z</time>
      </trkpt>
      <trkpt lat="47.73473" lon="5.08829">
        <ele>411.49</ele>
        <time>2022-05-05T07:49:21Z</time>
      </trkpt>
      <trkpt lat="47.7347" lon="5.08826">
        <ele>412.21</ele>
        <time>2022-05-05T07:49:25Z</time>
      </trkpt>
      <trkpt lat="47.73467" lon="5.08824">
        <ele>413.01</ele>
        <time>2022-05-05T07:49:29Z</time>
      </trkpt>
      <trkpt lat="47.73464" lon="5.08823">
        <ele>413.71</ele>
        <time>2022-05-05T07:49:36Z</time>
      </trkpt>
      <trkpt lat="47.73462" lon="5.0882">
        <ele>414.46</ele>
        <time>2022-05-05T07:50:42Z</time>
      </trkpt>
      <trkpt lat="47.73459" lon="5.08819">
        <ele>415.17</ele>
        <time>2022-05-05T07:51:59Z</time>
      </trkpt>
      <trkpt lat="47.73462" lon="5.08819">
        <ele>414.58</ele>
        <time>2022-05-05T07:53:24Z</time>
      </trkpt>
      <trkpt lat="47.7346" lon="5.0882">
        <ele>414.85</ele>
        <time>2022-05-05T07:53:46Z</time>
      </trkpt>
      <trkpt lat="47.73457" lon="5.08822">
        <ele>415.19</ele>
        <time>2022-05-05T07:56:11Z</time>
      </trkpt>
      <trkpt lat="47.73455" lon="5.08824">
        <ele>415.32</ele>
        <time>2022-05-05T07:56:17Z</time>
      </trkpt>
      <trkpt lat="47.73452" lon="5.08826">
        <ele>415.62</ele>
        <time>2022-05-05T07:56:20Z</time>
      </trkpt>
      <trkpt lat="47.73449" lon="5.08826">
        <ele>416.19</ele>
        <time>2022-05-05T07:56:24Z</time>
      </trkpt>
      <trkpt lat="47.73446" lon="5.08827">
        <ele>416.62</ele>
        <time>2022-05-05T07:56:27Z</time>
      </trkpt>
      <trkpt lat="47.73443" lon="5.08825">
        <ele>417.48</ele>
        <time>2022-05-05T07:56:31Z</time>
      </trkpt>
      <trkpt lat="47.7344" lon="5.08823">
        <ele>418.33</ele>
        <time>2022-05-05T07:56:35Z</time>
      </trkpt>
      <trkpt lat="47.73437" lon="5.08822">
        <ele>419.02</ele>
        <time>2022-05-05T07:56:37Z</time>
      </trkpt>
      <trkpt lat="47.73434" lon="5.08822">
        <ele>419.58</ele>
        <time>2022-05-05T07:56:40Z</time>
      </trkpt>
      <trkpt lat="47.73431" lon="5.08822">
        <ele>420.14</ele>
        <time>2022-05-05T07:56:44Z</time>
      </trkpt>
      <trkpt lat="47.73428" lon="5.08821">
        <ele>420.8</ele>
        <time>2022-05-05T07:56:51Z</time>
      </trkpt>
      <trkpt lat="47.73425" lon="5.08821">
        <ele>421.35</ele>
        <time>2022-05-05T07:56:54Z</time>
      </trkpt>
      <trkpt lat="47.73422" lon="5.08821">
        <ele>421.91</ele>
        <time>2022-05-05T07:56:58Z</time>
      </trkpt>
      <trkpt lat="47.73419" lon="5.08821">
        <ele>422.46</ele>
        <time>2022-05-05T07:57:00Z</time>
      </trkpt>
      <trkpt lat="47.73416" lon="5.08821">
        <ele>422.87</ele>
        <time>2022-05-05T07:57:03Z</time>
      </trkpt>
      <trkpt lat="47.73413" lon="5.08822">
        <ele>422.74</ele>
        <time>2022-05-05T07:57:05Z</time>
      </trkpt>
      <trkpt lat="47.7341" lon="5.08822">
        <ele>422.67</ele>
        <time>2022-05-05T07:57:07Z</time>
      </trkpt>
      <trkpt lat="47.73407" lon="5.08823">
        <ele>422.53</ele>
        <time>2022-05-05T07:57:11Z</time>
      </trkpt>
      <trkpt lat="47.73404" lon="5.08824">
        <ele>422.37</ele>
        <time>2022-05-05T07:57:15Z</time>
      </trkpt>
      <trkpt lat="47.734" lon="5.08825">
        <ele>422.18</ele>
        <time>2022-05-05T07:57:18Z</time>
      </trkpt>
      <trkpt lat="47.73398" lon="5.08826">
        <ele>422.03</ele>
        <time>2022-05-05T07:57:20Z</time>
      </trkpt>
      <trkpt lat="47.73395" lon="5.08827">
        <ele>421.85</ele>
        <time>2022-05-05T07:57:23Z</time>
      </trkpt>
      <trkpt lat="47.73392" lon="5.08828">
        <ele>421.67</ele>
        <time>2022-05-05T07:57:28Z</time>
      </trkpt>
      <trkpt lat="47.73389" lon="5.08827">
        <ele>421.69</ele>
        <time>2022-05-05T07:57:32Z</time>
      </trkpt>
      <trkpt lat="47.73386" lon="5.08828">
        <ele>421.95</ele>
        <time>2022-05-05T07:57:34Z</time>
      </trkpt>
      <trkpt lat="47.73383" lon="5.08828">
        <ele>422.34</ele>
        <time>2022-05-05T07:57:37Z</time>
      </trkpt>
      <trkpt lat="47.7338" lon="5.08829">
        <ele>422.65</ele>
        <time>2022-05-05T07:57:41Z</time>
      </trkpt>
      <trkpt lat="47.73377" lon="5.08831">
        <ele>422.89</ele>
        <time>2022-05-05T07:57:43Z</time>
      </trkpt>
      <trkpt lat="47.73374" lon="5.08832">
        <ele>423.24</ele>
        <time>2022-05-05T07:57:47Z</time>
      </trkpt>
      <trkpt lat="47.73372" lon="5.08833">
        <ele>423.45</ele>
        <time>2022-05-05T07:57:50Z</time>
      </trkpt>
      <trkpt lat="47.73369" lon="5.08835">
        <ele>423.86</ele>
        <time>2022-05-05T07:57:54Z</time>
      </trkpt>
      <trkpt lat="47.73366" lon="5.08837">
        <ele>424.23</ele>
        <time>2022-05-05T07:57:56Z</time>
      </trkpt>
      <trkpt lat="47.73364" lon="5.08839">
        <ele>424.44</ele>
        <time>2022-05-05T07:58:00Z</time>
      </trkpt>
      <trkpt lat="47.73361" lon="5.08839">
        <ele>424.81</ele>
        <time>2022-05-05T07:58:03Z</time>
      </trkpt>
      <trkpt lat="47.73358" lon="5.08841">
        <ele>425.06</ele>
        <time>2022-05-05T07:58:06Z</time>
      </trkpt>
      <trkpt lat="47.73356" lon="5.08843">
        <ele>425.2</ele>
        <time>2022-05-05T07:58:09Z</time>
      </trkpt>
      <trkpt lat="47.73353" lon="5.08845">
        <ele>425.46</ele>
        <time>2022-05-05T07:58:13Z</time>
      </trkpt>
      <trkpt lat="47.7335" lon="5.08846">
        <ele>425.74</ele>
        <time>2022-05-05T07:58:17Z</time>
      </trkpt>
      <trkpt lat="47.73348" lon="5.08849">
        <ele>425.85</ele>
        <time>2022-05-05T07:58:18Z</time>
      </trkpt>
      <trkpt lat="47.73345" lon="5.08851">
        <ele>426.1</ele>
        <time>2022-05-05T07:58:21Z</time>
      </trkpt>
      <trkpt lat="47.73342" lon="5.08853">
        <ele>426.36</ele>
        <time>2022-05-05T07:58:23Z</time>
      </trkpt>
      <trkpt lat="47.73339" lon="5.08855">
        <ele>426.61</ele>
        <time>2022-05-05T07:58:28Z</time>
      </trkpt>
      <trkpt lat="47.73336" lon="5.08857">
        <ele>426.86</ele>
        <time>2022-05-05T07:58:29Z</time>
      </trkpt>
      <trkpt lat="47.73334" lon="5.08858">
        <ele>427.04</ele>
        <time>2022-05-05T07:58:32Z</time>
      </trkpt>
      <trkpt lat="47.73331" lon="5.0886">
        <ele>427.79</ele>
        <time>2022-05-05T07:58:35Z</time>
      </trkpt>
      <trkpt lat="47.73329" lon="5.08862">
        <ele>428.35</ele>
        <time>2022-05-05T07:58:37Z</time>
      </trkpt>
      <trkpt lat="47.73326" lon="5.08864">
        <ele>429.22</ele>
        <time>2022-05-05T07:58:42Z</time>
      </trkpt>
      <trkpt lat="47.73323" lon="5.08865">
        <ele>430.17</ele>
        <time>2022-05-05T07:58:44Z</time>
      </trkpt>
      <trkpt lat="47.73321" lon="5.08865">
        <ele>430.84</ele>
        <time>2022-05-05T07:58:47Z</time>
      </trkpt>
      <trkpt lat="47.73317" lon="5.08866">
        <ele>432.15</ele>
        <time>2022-05-05T07:58:52Z</time>
      </trkpt>
      <trkpt lat="47.73314" lon="5.08867">
        <ele>433.14</ele>
        <time>2022-05-05T07:58:55Z</time>
      </trkpt>
      <trkpt lat="47.73311" lon="5.08868">
        <ele>434.14</ele>
        <time>2022-05-05T07:58:59Z</time>
      </trkpt>
      <trkpt lat="47.73308" lon="5.08869">
        <ele>435.16</ele>
        <time>2022-05-05T07:59:00Z</time>
      </trkpt>
      <trkpt lat="47.73306" lon="5.08871">
        <ele>435.84</ele>
        <time>2022-05-05T07:59:04Z</time>
      </trkpt>
      <trkpt lat="47.73303" lon="5.08872">
        <ele>436.99</ele>
        <time>2022-05-05T07:59:07Z</time>
      </trkpt>
      <trkpt lat="47.733" lon="5.08874">
        <ele>438.19</ele>
        <time>2022-05-05T07:59:09Z</time>
      </trkpt>
      <trkpt lat="47.73297" lon="5.08876">
        <ele>439.41</ele>
        <time>2022-05-05T07:59:13Z</time>
      </trkpt>
      <trkpt lat="47.73294" lon="5.08878">
        <ele>440.67</ele>
        <time>2022-05-05T07:59:15Z</time>
      </trkpt>
      <trkpt lat="47.73291" lon="5.0888">
        <ele>441.95</ele>
        <time>2022-05-05T07:59:18Z</time>
      </trkpt>
      <trkpt lat="47.73289" lon="5.08881">
        <ele>442.81</ele>
        <time>2022-05-05T07:59:20Z</time>
      </trkpt>
      <trkpt lat="47.73286" lon="5.08883">
        <ele>444.15</ele>
        <time>2022-05-05T07:59:24Z</time>
      </trkpt>
      <trkpt lat="47.73283" lon="5.08885">
        <ele>445.52</ele>
        <time>2022-05-05T07:59:28Z</time>
      </trkpt>
      <trkpt lat="47.73281" lon="5.08888">
        <ele>446.55</ele>
        <time>2022-05-05T07:59:32Z</time>
      </trkpt>
      <trkpt lat="47.73278" lon="5.0889">
        <ele>447.82</ele>
        <time>2022-05-05T07:59:34Z</time>
      </trkpt>
      <trkpt lat="47.73275" lon="5.08892">
        <ele>448.2</ele>
        <time>2022-05-05T07:59:37Z</time>
      </trkpt>
      <trkpt lat="47.73273" lon="5.08893">
        <ele>448.44</ele>
        <time>2022-05-05T07:59:40Z</time>
      </trkpt>
      <trkpt lat="47.7327" lon="5.08895">
        <ele>448.8</ele>
        <time>2022-05-05T07:59:44Z</time>
      </trkpt>
      <trkpt lat="47.73267" lon="5.08897">
        <ele>449.19</ele>
        <time>2022-05-05T07:59:46Z</time>
      </trkpt>
      <trkpt lat="47.73265" lon="5.08899">
        <ele>449.45</ele>
        <time>2022-05-05T07:59:51Z</time>
      </trkpt>
      <trkpt lat="47.73263" lon="5.08901">
        <ele>449.72</ele>
        <time>2022-05-05T07:59:52Z</time>
      </trkpt>
      <trkpt lat="47.7326" lon="5.08903">
        <ele>450.19</ele>
        <time>2022-05-05T07:59:57Z</time>
      </trkpt>
      <trkpt lat="47.73257" lon="5.08904">
        <ele>450.72</ele>
        <time>2022-05-05T08:00:01Z</time>
      </trkpt>
      <trkpt lat="47.73254" lon="5.08907">
        <ele>451.24</ele>
        <time>2022-05-05T08:00:05Z</time>
      </trkpt>
      <trkpt lat="47.73251" lon="5.08908">
        <ele>451.81</ele>
        <time>2022-05-05T08:00:07Z</time>
      </trkpt>
      <trkpt lat="47.73248" lon="5.08909">
        <ele>452.32</ele>
        <time>2022-05-05T08:00:12Z</time>
      </trkpt>
      <trkpt lat="47.73245" lon="5.08911">
        <ele>452.83</ele>
        <time>2022-05-05T08:00:14Z</time>
      </trkpt>
      <trkpt lat="47.73243" lon="5.08913">
        <ele>453.19</ele>
        <time>2022-05-05T08:00:19Z</time>
      </trkpt>
      <trkpt lat="47.73241" lon="5.08915">
        <ele>453.58</ele>
        <time>2022-05-05T08:00:21Z</time>
      </trkpt>
      <trkpt lat="47.73238" lon="5.08917">
        <ele>454.15</ele>
        <time>2022-05-05T08:00:24Z</time>
      </trkpt>
      <trkpt lat="47.73235" lon="5.08919">
        <ele>454.66</ele>
        <time>2022-05-05T08:00:27Z</time>
      </trkpt>
      <trkpt lat="47.73233" lon="5.08922">
        <ele>454.99</ele>
        <time>2022-05-05T08:00:30Z</time>
      </trkpt>
      <trkpt lat="47.73231" lon="5.08925">
        <ele>455.33</ele>
        <time>2022-05-05T08:00:33Z</time>
      </trkpt>
      <trkpt lat="47.73228" lon="5.08928">
        <ele>455.88</ele>
        <time>2022-05-05T08:00:34Z</time>
      </trkpt>
      <trkpt lat="47.73225" lon="5.08931">
        <ele>456.45</ele>
        <time>2022-05-05T08:00:39Z</time>
      </trkpt>
      <trkpt lat="47.73222" lon="5.08933">
        <ele>457.03</ele>
        <time>2022-05-05T08:00:42Z</time>
      </trkpt>
      <trkpt lat="47.7322" lon="5.08935">
        <ele>457.29</ele>
        <time>2022-05-05T08:00:44Z</time>
      </trkpt>
      <trkpt lat="47.73217" lon="5.08938">
        <ele>457.71</ele>
        <time>2022-05-05T08:00:48Z</time>
      </trkpt>
      <trkpt lat="47.73215" lon="5.0894">
        <ele>458</ele>
        <time>2022-05-05T08:00:53Z</time>
      </trkpt>
      <trkpt lat="47.73213" lon="5.08943">
        <ele>458.31</ele>
        <time>2022-05-05T08:00:56Z</time>
      </trkpt>
      <trkpt lat="47.73211" lon="5.08948">
        <ele>458.74</ele>
        <time>2022-05-05T08:01:01Z</time>
      </trkpt>
      <trkpt lat="47.73209" lon="5.08951">
        <ele>459.14</ele>
        <time>2022-05-05T08:01:03Z</time>
      </trkpt>
      <trkpt lat="47.73207" lon="5.08954">
        <ele>459.54</ele>
        <time>2022-05-05T08:01:07Z</time>
      </trkpt>
      <trkpt lat="47.73204" lon="5.08956">
        <ele>460.04</ele>
        <time>2022-05-05T08:01:09Z</time>
      </trkpt>
      <trkpt lat="47.73202" lon="5.08959">
        <ele>460.44</ele>
        <time>2022-05-05T08:01:13Z</time>
      </trkpt>
      <trkpt lat="47.73199" lon="5.08962">
        <ele>460.98</ele>
        <time>2022-05-05T08:01:15Z</time>
      </trkpt>
      <trkpt lat="47.73197" lon="5.08965">
        <ele>461.37</ele>
        <time>2022-05-05T08:01:17Z</time>
      </trkpt>
      <trkpt lat="47.73194" lon="5.08967">
        <ele>461.88</ele>
        <time>2022-05-05T08:01:21Z</time>
      </trkpt>
      <trkpt lat="47.73192" lon="5.0897">
        <ele>462.27</ele>
        <time>2022-05-05T08:01:24Z</time>
      </trkpt>
      <trkpt lat="47.73189" lon="5.08972">
        <ele>462.78</ele>
        <time>2022-05-05T08:01:27Z</time>
      </trkpt>
      <trkpt lat="47.73187" lon="5.08976">
        <ele>462.91</ele>
        <time>2022-05-05T08:01:30Z</time>
      </trkpt>
      <trkpt lat="47.73185" lon="5.08979">
        <ele>463.12</ele>
        <time>2022-05-05T08:01:33Z</time>
      </trkpt>
      <trkpt lat="47.73183" lon="5.08981">
        <ele>463.41</ele>
        <time>2022-05-05T08:01:35Z</time>
      </trkpt>
      <trkpt lat="47.73181" lon="5.08984">
        <ele>463.7</ele>
        <time>2022-05-05T08:01:39Z</time>
      </trkpt>
      <trkpt lat="47.73178" lon="5.08986">
        <ele>464.26</ele>
        <time>2022-05-05T08:01:43Z</time>
      </trkpt>
      <trkpt lat="47.73175" lon="5.08987">
        <ele>464.85</ele>
        <time>2022-05-05T08:01:45Z</time>
      </trkpt>
      <trkpt lat="47.73172" lon="5.08988">
        <ele>465.47</ele>
        <time>2022-05-05T08:01:47Z</time>
      </trkpt>
      <trkpt lat="47.7317" lon="5.08989">
        <ele>465.91</ele>
        <time>2022-05-05T08:01:49Z</time>
      </trkpt>
      <trkpt lat="47.73167" lon="5.08991">
        <ele>466.6</ele>
        <time>2022-05-05T08:01:53Z</time>
      </trkpt>
      <trkpt lat="47.73164" lon="5.08992">
        <ele>467.06</ele>
        <time>2022-05-05T08:01:56Z</time>
      </trkpt>
      <trkpt lat="47.73162" lon="5.08994">
        <ele>467.36</ele>
        <time>2022-05-05T08:01:58Z</time>
      </trkpt>
      <trkpt lat="47.73159" lon="5.08996">
        <ele>467.76</ele>
        <time>2022-05-05T08:02:01Z</time>
      </trkpt>
      <trkpt lat="47.73156" lon="5.08997">
        <ele>468.13</ele>
        <time>2022-05-05T08:02:06Z</time>
      </trkpt>
      <trkpt lat="47.73154" lon="5.08999">
        <ele>468.36</ele>
        <time>2022-05-05T08:02:07Z</time>
      </trkpt>
      <trkpt lat="47.73151" lon="5.09">
        <ele>468.69</ele>
        <time>2022-05-05T08:02:09Z</time>
      </trkpt>
      <trkpt lat="47.73148" lon="5.09002">
        <ele>468.97</ele>
        <time>2022-05-05T08:02:12Z</time>
      </trkpt>
      <trkpt lat="47.73145" lon="5.09003">
        <ele>469.29</ele>
        <time>2022-05-05T08:02:15Z</time>
      </trkpt>
      <trkpt lat="47.73142" lon="5.09004">
        <ele>469.63</ele>
        <time>2022-05-05T08:02:18Z</time>
      </trkpt>
      <trkpt lat="47.73139" lon="5.09004">
        <ele>469.99</ele>
        <time>2022-05-05T08:02:20Z</time>
      </trkpt>
      <trkpt lat="47.73136" lon="5.09005">
        <ele>469.96</ele>
        <time>2022-05-05T08:02:22Z</time>
      </trkpt>
      <trkpt lat="47.73133" lon="5.09006">
        <ele>469.91</ele>
        <time>2022-05-05T08:02:26Z</time>
      </trkpt>
      <trkpt lat="47.7313" lon="5.09007">
        <ele>469.84</ele>
        <time>2022-05-05T08:02:29Z</time>
      </trkpt>
      <trkpt lat="47.73128" lon="5.09007">
        <ele>469.8</ele>
        <time>2022-05-05T08:02:31Z</time>
      </trkpt>
      <trkpt lat="47.73125" lon="5.09007">
        <ele>469.75</ele>
        <time>2022-05-05T08:02:34Z</time>
      </trkpt>
      <trkpt lat="47.73121" lon="5.09007">
        <ele>469.68</ele>
        <time>2022-05-05T08:02:36Z</time>
      </trkpt>
      <trkpt lat="47.73118" lon="5.09006">
        <ele>469.68</ele>
        <time>2022-05-05T08:02:40Z</time>
      </trkpt>
      <trkpt lat="47.73115" lon="5.09004">
        <ele>469.75</ele>
        <time>2022-05-05T08:02:42Z</time>
      </trkpt>
      <trkpt lat="47.73113" lon="5.09002">
        <ele>469.87</ele>
        <time>2022-05-05T08:02:46Z</time>
      </trkpt>
      <trkpt lat="47.7311" lon="5.09001">
        <ele>469.77</ele>
        <time>2022-05-05T08:02:49Z</time>
      </trkpt>
      <trkpt lat="47.73107" lon="5.09">
        <ele>469.41</ele>
        <time>2022-05-05T08:02:52Z</time>
      </trkpt>
      <trkpt lat="47.73105" lon="5.08998">
        <ele>469.19</ele>
        <time>2022-05-05T08:02:56Z</time>
      </trkpt>
      <trkpt lat="47.73102" lon="5.08996">
        <ele>468.83</ele>
        <time>2022-05-05T08:03:00Z</time>
      </trkpt>
      <trkpt lat="47.73099" lon="5.08994">
        <ele>468.47</ele>
        <time>2022-05-05T08:03:03Z</time>
      </trkpt>
      <trkpt lat="47.73097" lon="5.08992">
        <ele>468.26</ele>
        <time>2022-05-05T08:03:06Z</time>
      </trkpt>
      <trkpt lat="47.73094" lon="5.0899">
        <ele>467.9</ele>
        <time>2022-05-05T08:03:09Z</time>
      </trkpt>
      <trkpt lat="47.73092" lon="5.08989">
        <ele>467.64</ele>
        <time>2022-05-05T08:03:12Z</time>
      </trkpt>
      <trkpt lat="47.73088" lon="5.08987">
        <ele>467.14</ele>
        <time>2022-05-05T08:03:18Z</time>
      </trkpt>
      <trkpt lat="47.73085" lon="5.08986">
        <ele>466.74</ele>
        <time>2022-05-05T08:03:21Z</time>
      </trkpt>
      <trkpt lat="47.73083" lon="5.08984">
        <ele>466.58</ele>
        <time>2022-05-05T08:03:23Z</time>
      </trkpt>
      <trkpt lat="47.7308" lon="5.08981">
        <ele>466.72</ele>
        <time>2022-05-05T08:03:26Z</time>
      </trkpt>
      <trkpt lat="47.73079" lon="5.08977">
        <ele>466.85</ele>
        <time>2022-05-05T08:03:31Z</time>
      </trkpt>
      <trkpt lat="47.73077" lon="5.08972">
        <ele>467.03</ele>
        <time>2022-05-05T08:03:34Z</time>
      </trkpt>
      <trkpt lat="47.73076" lon="5.08969">
        <ele>467.37</ele>
        <time>2022-05-05T08:03:36Z</time>
      </trkpt>
      <trkpt lat="47.73074" lon="5.08966">
        <ele>467.67</ele>
        <time>2022-05-05T08:03:41Z</time>
      </trkpt>
      <trkpt lat="47.73072" lon="5.08962">
        <ele>468.02</ele>
        <time>2022-05-05T08:03:44Z</time>
      </trkpt>
      <trkpt lat="47.73072" lon="5.08958">
        <ele>468.42</ele>
        <time>2022-05-05T08:03:50Z</time>
      </trkpt>
      <trkpt lat="47.73072" lon="5.08953">
        <ele>468.92</ele>
        <time>2022-05-05T08:04:30Z</time>
      </trkpt>
      <trkpt lat="47.73075" lon="5.08956">
        <ele>468.81</ele>
        <time>2022-05-05T08:04:45Z</time>
      </trkpt>
      <trkpt lat="47.73075" lon="5.0896">
        <ele>468.36</ele>
        <time>2022-05-05T08:04:50Z</time>
      </trkpt>
      <trkpt lat="47.73074" lon="5.08964">
        <ele>467.89</ele>
        <time>2022-05-05T08:04:51Z</time>
      </trkpt>
      <trkpt lat="47.73073" lon="5.08969">
        <ele>467.33</ele>
        <time>2022-05-05T08:04:53Z</time>
      </trkpt>
      <trkpt lat="47.73071" lon="5.08972">
        <ele>467.02</ele>
        <time>2022-05-05T08:04:57Z</time>
      </trkpt>
      <trkpt lat="47.73068" lon="5.08975">
        <ele>466.96</ele>
        <time>2022-05-05T08:05:02Z</time>
      </trkpt>
      <trkpt lat="47.73065" lon="5.08976">
        <ele>466.95</ele>
        <time>2022-05-05T08:05:05Z</time>
      </trkpt>
      <trkpt lat="47.73062" lon="5.08974">
        <ele>466.99</ele>
        <time>2022-05-05T08:05:08Z</time>
      </trkpt>
      <trkpt lat="47.7306" lon="5.08972">
        <ele>467.01</ele>
        <time>2022-05-05T08:05:13Z</time>
      </trkpt>
      <trkpt lat="47.73057" lon="5.08972">
        <ele>467.01</ele>
        <time>2022-05-05T08:05:16Z</time>
      </trkpt>
      <trkpt lat="47.73054" lon="5.08972">
        <ele>467.01</ele>
        <time>2022-05-05T08:05:19Z</time>
      </trkpt>
      <trkpt lat="47.73051" lon="5.08971">
        <ele>467.05</ele>
        <time>2022-05-05T08:05:24Z</time>
      </trkpt>
      <trkpt lat="47.73048" lon="5.08971">
        <ele>467.06</ele>
        <time>2022-05-05T08:05:27Z</time>
      </trkpt>
      <trkpt lat="47.73045" lon="5.08972">
        <ele>467.01</ele>
        <time>2022-05-05T08:05:30Z</time>
      </trkpt>
      <trkpt lat="47.73043" lon="5.08973">
        <ele>467.04</ele>
        <time>2022-05-05T08:05:32Z</time>
      </trkpt>
      <trkpt lat="47.7304" lon="5.08974">
        <ele>467.11</ele>
        <time>2022-05-05T08:05:35Z</time>
      </trkpt>
      <trkpt lat="47.73036" lon="5.08977">
        <ele>467.36</ele>
        <time>2022-05-05T08:05:38Z</time>
      </trkpt>
      <trkpt lat="47.73034" lon="5.08979">
        <ele>467.57</ele>
        <time>2022-05-05T08:05:41Z</time>
      </trkpt>
      <trkpt lat="47.73031" lon="5.08982">
        <ele>467.93</ele>
        <time>2022-05-05T08:05:45Z</time>
      </trkpt>
      <trkpt lat="47.73029" lon="5.08983">
        <ele>468.11</ele>
        <time>2022-05-05T08:05:48Z</time>
      </trkpt>
      <trkpt lat="47.73026" lon="5.08984">
        <ele>468.51</ele>
        <time>2022-05-05T08:05:53Z</time>
      </trkpt>
      <trkpt lat="47.73024" lon="5.08985">
        <ele>468.87</ele>
        <time>2022-05-05T08:05:55Z</time>
      </trkpt>
      <trkpt lat="47.7302" lon="5.08985">
        <ele>469.39</ele>
        <time>2022-05-05T08:05:59Z</time>
      </trkpt>
      <trkpt lat="47.73017" lon="5.08984">
        <ele>469.72</ele>
        <time>2022-05-05T08:06:01Z</time>
      </trkpt>
      <trkpt lat="47.73014" lon="5.08985">
        <ele>470.18</ele>
        <time>2022-05-05T08:06:05Z</time>
      </trkpt>
      <trkpt lat="47.73011" lon="5.08986">
        <ele>470.61</ele>
        <time>2022-05-05T08:06:07Z</time>
      </trkpt>
      <trkpt lat="47.73008" lon="5.08988">
        <ele>471.05</ele>
        <time>2022-05-05T08:06:11Z</time>
      </trkpt>
      <trkpt lat="47.73006" lon="5.0899">
        <ele>471.33</ele>
        <time>2022-05-05T08:06:13Z</time>
      </trkpt>
      <trkpt lat="47.73003" lon="5.08991">
        <ele>471.68</ele>
        <time>2022-05-05T08:06:17Z</time>
      </trkpt>
      <trkpt lat="47.73" lon="5.0899">
        <ele>472</ele>
        <time>2022-05-05T08:06:21Z</time>
      </trkpt>
      <trkpt lat="47.72997" lon="5.08991">
        <ele>471.85</ele>
        <time>2022-05-05T08:06:24Z</time>
      </trkpt>
      <trkpt lat="47.72994" lon="5.08991">
        <ele>471.71</ele>
        <time>2022-05-05T08:06:26Z</time>
      </trkpt>
      <trkpt lat="47.72991" lon="5.08992">
        <ele>471.54</ele>
        <time>2022-05-05T08:06:29Z</time>
      </trkpt>
      <trkpt lat="47.72988" lon="5.08992">
        <ele>471.38</ele>
        <time>2022-05-05T08:06:31Z</time>
      </trkpt>
      <trkpt lat="47.72985" lon="5.08993">
        <ele>471.19</ele>
        <time>2022-05-05T08:06:35Z</time>
      </trkpt>
      <trkpt lat="47.72983" lon="5.08995">
        <ele>471</ele>
        <time>2022-05-05T08:06:37Z</time>
      </trkpt>
      <trkpt lat="47.7298" lon="5.08997">
        <ele>470.72</ele>
        <time>2022-05-05T08:06:40Z</time>
      </trkpt>
      <trkpt lat="47.72977" lon="5.09">
        <ele>470.34</ele>
        <time>2022-05-05T08:06:44Z</time>
      </trkpt>
      <trkpt lat="47.72974" lon="5.09003">
        <ele>470.25</ele>
        <time>2022-05-05T08:06:47Z</time>
      </trkpt>
      <trkpt lat="47.72972" lon="5.09006">
        <ele>470.2</ele>
        <time>2022-05-05T08:06:51Z</time>
      </trkpt>
      <trkpt lat="47.72969" lon="5.09008">
        <ele>470.07</ele>
        <time>2022-05-05T08:06:54Z</time>
      </trkpt>
      <trkpt lat="47.72966" lon="5.09009">
        <ele>469.88</ele>
        <time>2022-05-05T08:06:57Z</time>
      </trkpt>
      <trkpt lat="47.72963" lon="5.09011">
        <ele>469.67</ele>
        <time>2022-05-05T08:07:01Z</time>
      </trkpt>
      <trkpt lat="47.7296" lon="5.09012">
        <ele>469.42</ele>
        <time>2022-05-05T08:07:03Z</time>
      </trkpt>
      <trkpt lat="47.72957" lon="5.09014">
        <ele>469.13</ele>
        <time>2022-05-05T08:07:06Z</time>
      </trkpt>
      <trkpt lat="47.72954" lon="5.09015">
        <ele>468.82</ele>
        <time>2022-05-05T08:07:08Z</time>
      </trkpt>
      <trkpt lat="47.72951" lon="5.09016">
        <ele>468.49</ele>
        <time>2022-05-05T08:07:13Z</time>
      </trkpt>
      <trkpt lat="47.72949" lon="5.09019">
        <ele>468.13</ele>
        <time>2022-05-05T08:07:18Z</time>
      </trkpt>
      <trkpt lat="47.72947" lon="5.0902">
        <ele>467.85</ele>
        <time>2022-05-05T08:07:23Z</time>
      </trkpt>
      <trkpt lat="47.72944" lon="5.0902">
        <ele>467.56</ele>
        <time>2022-05-05T08:07:31Z</time>
      </trkpt>
      <trkpt lat="47.72941" lon="5.09021">
        <ele>467.52</ele>
        <time>2022-05-05T08:09:27Z</time>
      </trkpt>
      <trkpt lat="47.72938" lon="5.09022">
        <ele>467.5</ele>
        <time>2022-05-05T08:09:44Z</time>
      </trkpt>
      <trkpt lat="47.72936" lon="5.09024">
        <ele>467.45</ele>
        <time>2022-05-05T08:09:49Z</time>
      </trkpt>
      <trkpt lat="47.72933" lon="5.09025">
        <ele>467.49</ele>
        <time>2022-05-05T08:09:58Z</time>
      </trkpt>
      <trkpt lat="47.7293" lon="5.09025">
        <ele>467.56</ele>
        <time>2022-05-05T08:10:06Z</time>
      </trkpt>
      <trkpt lat="47.72928" lon="5.09022">
        <ele>467.64</ele>
        <time>2022-05-05T08:10:51Z</time>
      </trkpt>
      <trkpt lat="47.72927" lon="5.09026">
        <ele>467.64</ele>
        <time>2022-05-05T08:11:07Z</time>
      </trkpt>
      <trkpt lat="47.72926" lon="5.09031">
        <ele>467.74</ele>
        <time>2022-05-05T08:11:12Z</time>
      </trkpt>
      <trkpt lat="47.72926" lon="5.09035">
        <ele>467.84</ele>
        <time>2022-05-05T08:11:16Z</time>
      </trkpt>
      <trkpt lat="47.72924" lon="5.09039">
        <ele>468.03</ele>
        <time>2022-05-05T08:11:22Z</time>
      </trkpt>
      <trkpt lat="47.72922" lon="5.09041">
        <ele>468.19</ele>
        <time>2022-05-05T08:11:26Z</time>
      </trkpt>
      <trkpt lat="47.7292" lon="5.09044">
        <ele>468.39</ele>
        <time>2022-05-05T08:11:31Z</time>
      </trkpt>
      <trkpt lat="47.72917" lon="5.09047">
        <ele>468.67</ele>
        <time>2022-05-05T08:11:33Z</time>
      </trkpt>
      <trkpt lat="47.72915" lon="5.0905">
        <ele>468.97</ele>
        <time>2022-05-05T08:11:38Z</time>
      </trkpt>
      <trkpt lat="47.72912" lon="5.09054">
        <ele>469.44</ele>
        <time>2022-05-05T08:11:41Z</time>
      </trkpt>
      <trkpt lat="47.7291" lon="5.09057">
        <ele>469.85</ele>
        <time>2022-05-05T08:11:43Z</time>
      </trkpt>
      <trkpt lat="47.72906" lon="5.09059">
        <ele>470.43</ele>
        <time>2022-05-05T08:11:48Z</time>
      </trkpt>
      <trkpt lat="47.72904" lon="5.09061">
        <ele>470.78</ele>
        <time>2022-05-05T08:11:51Z</time>
      </trkpt>
      <trkpt lat="47.72902" lon="5.09064">
        <ele>471.17</ele>
        <time>2022-05-05T08:11:53Z</time>
      </trkpt>
      <trkpt lat="47.729" lon="5.09068">
        <ele>471.61</ele>
        <time>2022-05-05T08:11:56Z</time>
      </trkpt>
      <trkpt lat="47.72898" lon="5.09072">
        <ele>472</ele>
        <time>2022-05-05T08:11:59Z</time>
      </trkpt>
      <trkpt lat="47.72896" lon="5.09075">
        <ele>472.29</ele>
        <time>2022-05-05T08:12:02Z</time>
      </trkpt>
      <trkpt lat="47.72893" lon="5.09078">
        <ele>472.6</ele>
        <time>2022-05-05T08:12:05Z</time>
      </trkpt>
      <trkpt lat="47.72891" lon="5.09081">
        <ele>472.83</ele>
        <time>2022-05-05T08:12:07Z</time>
      </trkpt>
      <trkpt lat="47.72889" lon="5.09084">
        <ele>473.07</ele>
        <time>2022-05-05T08:12:10Z</time>
      </trkpt>
      <trkpt lat="47.72887" lon="5.09088">
        <ele>473.7</ele>
        <time>2022-05-05T08:12:13Z</time>
      </trkpt>
      <trkpt lat="47.72885" lon="5.09091">
        <ele>474.21</ele>
        <time>2022-05-05T08:12:15Z</time>
      </trkpt>
      <trkpt lat="47.72883" lon="5.09094">
        <ele>474.71</ele>
        <time>2022-05-05T08:12:18Z</time>
      </trkpt>
      <trkpt lat="47.7288" lon="5.09097">
        <ele>475.28</ele>
        <time>2022-05-05T08:12:20Z</time>
      </trkpt>
      <trkpt lat="47.72878" lon="5.091">
        <ele>475.74</ele>
        <time>2022-05-05T08:12:24Z</time>
      </trkpt>
      <trkpt lat="47.72875" lon="5.09102">
        <ele>476.18</ele>
        <time>2022-05-05T08:12:27Z</time>
      </trkpt>
      <trkpt lat="47.72873" lon="5.09105">
        <ele>476.61</ele>
        <time>2022-05-05T08:12:28Z</time>
      </trkpt>
      <trkpt lat="47.7287" lon="5.09107">
        <ele>477.02</ele>
        <time>2022-05-05T08:12:31Z</time>
      </trkpt>
      <trkpt lat="47.72867" lon="5.09109">
        <ele>477.41</ele>
        <time>2022-05-05T08:12:35Z</time>
      </trkpt>
      <trkpt lat="47.72865" lon="5.09112">
        <ele>477.82</ele>
        <time>2022-05-05T08:12:37Z</time>
      </trkpt>
      <trkpt lat="47.72863" lon="5.09116">
        <ele>478.4</ele>
        <time>2022-05-05T08:12:41Z</time>
      </trkpt>
      <trkpt lat="47.7286" lon="5.09119">
        <ele>478.72</ele>
        <time>2022-05-05T08:12:43Z</time>
      </trkpt>
      <trkpt lat="47.72858" lon="5.09121">
        <ele>478.69</ele>
        <time>2022-05-05T08:12:46Z</time>
      </trkpt>
      <trkpt lat="47.72855" lon="5.09123">
        <ele>478.53</ele>
        <time>2022-05-05T08:12:47Z</time>
      </trkpt>
      <trkpt lat="47.72853" lon="5.09126">
        <ele>478.58</ele>
        <time>2022-05-05T08:12:51Z</time>
      </trkpt>
      <trkpt lat="47.7285" lon="5.09129">
        <ele>478.47</ele>
        <time>2022-05-05T08:12:53Z</time>
      </trkpt>
      <trkpt lat="47.72848" lon="5.09132">
        <ele>478.49</ele>
        <time>2022-05-05T08:12:56Z</time>
      </trkpt>
      <trkpt lat="47.72846" lon="5.09136">
        <ele>478.57</ele>
        <time>2022-05-05T08:12:58Z</time>
      </trkpt>
      <trkpt lat="47.72844" lon="5.0914">
        <ele>478.66</ele>
        <time>2022-05-05T08:13:02Z</time>
      </trkpt>
      <trkpt lat="47.72842" lon="5.09143">
        <ele>478.69</ele>
        <time>2022-05-05T08:13:04Z</time>
      </trkpt>
      <trkpt lat="47.7284" lon="5.09146">
        <ele>478.73</ele>
        <time>2022-05-05T08:13:06Z</time>
      </trkpt>
      <trkpt lat="47.72838" lon="5.09149">
        <ele>478.76</ele>
        <time>2022-05-05T08:13:09Z</time>
      </trkpt>
      <trkpt lat="47.72835" lon="5.09151">
        <ele>478.55</ele>
        <time>2022-05-05T08:13:11Z</time>
      </trkpt>
      <trkpt lat="47.72832" lon="5.09153">
        <ele>478.33</ele>
        <time>2022-05-05T08:13:14Z</time>
      </trkpt>
      <trkpt lat="47.72829" lon="5.09154">
        <ele>477.99</ele>
        <time>2022-05-05T08:13:17Z</time>
      </trkpt>
      <trkpt lat="47.72827" lon="5.09155">
        <ele>477.79</ele>
        <time>2022-05-05T08:13:19Z</time>
      </trkpt>
      <trkpt lat="47.72824" lon="5.09155">
        <ele>477.34</ele>
        <time>2022-05-05T08:13:21Z</time>
      </trkpt>
      <trkpt lat="47.72821" lon="5.09156">
        <ele>476.97</ele>
        <time>2022-05-05T08:13:22Z</time>
      </trkpt>
      <trkpt lat="47.72818" lon="5.09157">
        <ele>476.58</ele>
        <time>2022-05-05T08:13:25Z</time>
      </trkpt>
      <trkpt lat="47.72815" lon="5.09157">
        <ele>476.12</ele>
        <time>2022-05-05T08:13:27Z</time>
      </trkpt>
      <trkpt lat="47.72812" lon="5.09156">
        <ele>475.6</ele>
        <time>2022-05-05T08:13:30Z</time>
      </trkpt>
      <trkpt lat="47.72809" lon="5.09155">
        <ele>475.1</ele>
        <time>2022-05-05T08:13:33Z</time>
      </trkpt>
      <trkpt lat="47.72806" lon="5.09154">
        <ele>474.61</ele>
        <time>2022-05-05T08:13:34Z</time>
      </trkpt>
      <trkpt lat="47.72803" lon="5.09153">
        <ele>474.6</ele>
        <time>2022-05-05T08:13:38Z</time>
      </trkpt>
      <trkpt lat="47.728" lon="5.09152">
        <ele>474.69</ele>
        <time>2022-05-05T08:13:41Z</time>
      </trkpt>
      <trkpt lat="47.72797" lon="5.09152">
        <ele>474.81</ele>
        <time>2022-05-05T08:13:44Z</time>
      </trkpt>
      <trkpt lat="47.72794" lon="5.09151">
        <ele>474.96</ele>
        <time>2022-05-05T08:13:46Z</time>
      </trkpt>
      <trkpt lat="47.72791" lon="5.0915">
        <ele>475.13</ele>
        <time>2022-05-05T08:13:48Z</time>
      </trkpt>
      <trkpt lat="47.72788" lon="5.0915">
        <ele>475.28</ele>
        <time>2022-05-05T08:13:52Z</time>
      </trkpt>
      <trkpt lat="47.72785" lon="5.09151">
        <ele>475.37</ele>
        <time>2022-05-05T08:13:55Z</time>
      </trkpt>
      <trkpt lat="47.72782" lon="5.09151">
        <ele>475.5</ele>
        <time>2022-05-05T08:13:57Z</time>
      </trkpt>
      <trkpt lat="47.72779" lon="5.09151">
        <ele>475.64</ele>
        <time>2022-05-05T08:14:00Z</time>
      </trkpt>
      <trkpt lat="47.72776" lon="5.09153">
        <ele>475.57</ele>
        <time>2022-05-05T08:14:03Z</time>
      </trkpt>
      <trkpt lat="47.72774" lon="5.09154">
        <ele>475.59</ele>
        <time>2022-05-05T08:14:06Z</time>
      </trkpt>
      <trkpt lat="47.72771" lon="5.09155">
        <ele>475.68</ele>
        <time>2022-05-05T08:14:08Z</time>
      </trkpt>
      <trkpt lat="47.72768" lon="5.09156">
        <ele>475.8</ele>
        <time>2022-05-05T08:14:11Z</time>
      </trkpt>
      <trkpt lat="47.72765" lon="5.09158">
        <ele>475.89</ele>
        <time>2022-05-05T08:14:12Z</time>
      </trkpt>
      <trkpt lat="47.72762" lon="5.0916">
        <ele>476.02</ele>
        <time>2022-05-05T08:14:15Z</time>
      </trkpt>
      <trkpt lat="47.7276" lon="5.09163">
        <ele>476.06</ele>
        <time>2022-05-05T08:14:17Z</time>
      </trkpt>
      <trkpt lat="47.72757" lon="5.09166">
        <ele>476.26</ele>
        <time>2022-05-05T08:14:20Z</time>
      </trkpt>
      <trkpt lat="47.72755" lon="5.09168">
        <ele>476.49</ele>
        <time>2022-05-05T08:14:21Z</time>
      </trkpt>
      <trkpt lat="47.72752" lon="5.09171">
        <ele>476.82</ele>
        <time>2022-05-05T08:14:23Z</time>
      </trkpt>
      <trkpt lat="47.7275" lon="5.09173">
        <ele>477</ele>
        <time>2022-05-05T08:14:25Z</time>
      </trkpt>
      <trkpt lat="47.72746" lon="5.09175">
        <ele>476.76</ele>
        <time>2022-05-05T08:14:28Z</time>
      </trkpt>
      <trkpt lat="47.72743" lon="5.09177">
        <ele>476.59</ele>
        <time>2022-05-05T08:14:29Z</time>
      </trkpt>
      <trkpt lat="47.72741" lon="5.09179">
        <ele>476.5</ele>
        <time>2022-05-05T08:14:32Z</time>
      </trkpt>
      <trkpt lat="47.72738" lon="5.09181">
        <ele>476.36</ele>
        <time>2022-05-05T08:14:34Z</time>
      </trkpt>
      <trkpt lat="47.72735" lon="5.09183">
        <ele>476.24</ele>
        <time>2022-05-05T08:14:35Z</time>
      </trkpt>
      <trkpt lat="47.72732" lon="5.09187">
        <ele>476.18</ele>
        <time>2022-05-05T08:14:38Z</time>
      </trkpt>
      <trkpt lat="47.72729" lon="5.0919">
        <ele>476.12</ele>
        <time>2022-05-05T08:14:39Z</time>
      </trkpt>
      <trkpt lat="47.72727" lon="5.09192">
        <ele>476.1</ele>
        <time>2022-05-05T08:14:42Z</time>
      </trkpt>
      <trkpt lat="47.72724" lon="5.09194">
        <ele>476.05</ele>
        <time>2022-05-05T08:14:43Z</time>
      </trkpt>
      <trkpt lat="47.72721" lon="5.09197">
        <ele>476.36</ele>
        <time>2022-05-05T08:14:45Z</time>
      </trkpt>
      <trkpt lat="47.72719" lon="5.09199">
        <ele>476.7</ele>
        <time>2022-05-05T08:14:48Z</time>
      </trkpt>
      <trkpt lat="47.72717" lon="5.09202">
        <ele>477.14</ele>
        <time>2022-05-05T08:14:50Z</time>
      </trkpt>
      <trkpt lat="47.72715" lon="5.09205">
        <ele>477.56</ele>
        <time>2022-05-05T08:14:54Z</time>
      </trkpt>
      <trkpt lat="47.72712" lon="5.09207">
        <ele>477.93</ele>
        <time>2022-05-05T08:14:57Z</time>
      </trkpt>
      <trkpt lat="47.72709" lon="5.0921">
        <ele>478.37</ele>
        <time>2022-05-05T08:14:59Z</time>
      </trkpt>
      <trkpt lat="47.72707" lon="5.09212">
        <ele>478.65</ele>
        <time>2022-05-05T08:15:01Z</time>
      </trkpt>
      <trkpt lat="47.72703" lon="5.09215">
        <ele>479.09</ele>
        <time>2022-05-05T08:15:04Z</time>
      </trkpt>
      <trkpt lat="47.72701" lon="5.09217">
        <ele>479.34</ele>
        <time>2022-05-05T08:15:05Z</time>
      </trkpt>
      <trkpt lat="47.72699" lon="5.0922">
        <ele>479.66</ele>
        <time>2022-05-05T08:15:10Z</time>
      </trkpt>
      <trkpt lat="47.72696" lon="5.09223">
        <ele>479.97</ele>
        <time>2022-05-05T08:15:13Z</time>
      </trkpt>
      <trkpt lat="47.72694" lon="5.09226">
        <ele>480.19</ele>
        <time>2022-05-05T08:15:16Z</time>
      </trkpt>
      <trkpt lat="47.72692" lon="5.09229">
        <ele>480.53</ele>
        <time>2022-05-05T08:15:18Z</time>
      </trkpt>
      <trkpt lat="47.7269" lon="5.09232">
        <ele>480.82</ele>
        <time>2022-05-05T08:15:19Z</time>
      </trkpt>
      <trkpt lat="47.72687" lon="5.09236">
        <ele>481.17</ele>
        <time>2022-05-05T08:15:21Z</time>
      </trkpt>
      <trkpt lat="47.72685" lon="5.09239">
        <ele>481.35</ele>
        <time>2022-05-05T08:15:22Z</time>
      </trkpt>
      <trkpt lat="47.72683" lon="5.09242">
        <ele>481.48</ele>
        <time>2022-05-05T08:15:24Z</time>
      </trkpt>
      <trkpt lat="47.72681" lon="5.09245">
        <ele>481.57</ele>
        <time>2022-05-05T08:15:26Z</time>
      </trkpt>
      <trkpt lat="47.72679" lon="5.09248">
        <ele>481.6</ele>
        <time>2022-05-05T08:15:28Z</time>
      </trkpt>
      <trkpt lat="47.72677" lon="5.09251">
        <ele>481.69</ele>
        <time>2022-05-05T08:15:31Z</time>
      </trkpt>
      <trkpt lat="47.72675" lon="5.09255">
        <ele>481.99</ele>
        <time>2022-05-05T08:15:33Z</time>
      </trkpt>
      <trkpt lat="47.72673" lon="5.09259">
        <ele>482.24</ele>
        <time>2022-05-05T08:15:36Z</time>
      </trkpt>
      <trkpt lat="47.72671" lon="5.09262">
        <ele>482.41</ele>
        <time>2022-05-05T08:15:38Z</time>
      </trkpt>
      <trkpt lat="47.72668" lon="5.09266">
        <ele>482.58</ele>
        <time>2022-05-05T08:15:41Z</time>
      </trkpt>
      <trkpt lat="47.72666" lon="5.09269">
        <ele>482.64</ele>
        <time>2022-05-05T08:15:43Z</time>
      </trkpt>
      <trkpt lat="47.72663" lon="5.09272">
        <ele>482.56</ele>
        <time>2022-05-05T08:15:44Z</time>
      </trkpt>
      <trkpt lat="47.7266" lon="5.09274">
        <ele>482.42</ele>
        <time>2022-05-05T08:15:47Z</time>
      </trkpt>
      <trkpt lat="47.72658" lon="5.09278">
        <ele>482.36</ele>
        <time>2022-05-05T08:15:49Z</time>
      </trkpt>
      <trkpt lat="47.72655" lon="5.09281">
        <ele>481.98</ele>
        <time>2022-05-05T08:15:51Z</time>
      </trkpt>
      <trkpt lat="47.72654" lon="5.09285">
        <ele>481.69</ele>
        <time>2022-05-05T08:15:53Z</time>
      </trkpt>
      <trkpt lat="47.72652" lon="5.09289">
        <ele>481.35</ele>
        <time>2022-05-05T08:15:55Z</time>
      </trkpt>
      <trkpt lat="47.7265" lon="5.09293">
        <ele>481.03</ele>
        <time>2022-05-05T08:15:57Z</time>
      </trkpt>
      <trkpt lat="47.72649" lon="5.09297">
        <ele>480.78</ele>
        <time>2022-05-05T08:16:00Z</time>
      </trkpt>
      <trkpt lat="47.72647" lon="5.09301">
        <ele>480.5</ele>
        <time>2022-05-05T08:16:01Z</time>
      </trkpt>
      <trkpt lat="47.72646" lon="5.09305">
        <ele>480.28</ele>
        <time>2022-05-05T08:16:04Z</time>
      </trkpt>
      <trkpt lat="47.72644" lon="5.09308">
        <ele>480.06</ele>
        <time>2022-05-05T08:16:06Z</time>
      </trkpt>
      <trkpt lat="47.72642" lon="5.09311">
        <ele>479.87</ele>
        <time>2022-05-05T08:16:10Z</time>
      </trkpt>
      <trkpt lat="47.7264" lon="5.09314">
        <ele>479.71</ele>
        <time>2022-05-05T08:16:13Z</time>
      </trkpt>
      <trkpt lat="47.72638" lon="5.09317">
        <ele>479.54</ele>
        <time>2022-05-05T08:16:15Z</time>
      </trkpt>
      <trkpt lat="47.72635" lon="5.09321">
        <ele>479.24</ele>
        <time>2022-05-05T08:16:16Z</time>
      </trkpt>
      <trkpt lat="47.72633" lon="5.09325">
        <ele>479.02</ele>
        <time>2022-05-05T08:16:19Z</time>
      </trkpt>
      <trkpt lat="47.72631" lon="5.09329">
        <ele>478.83</ele>
        <time>2022-05-05T08:16:20Z</time>
      </trkpt>
      <trkpt lat="47.72629" lon="5.09332">
        <ele>478.67</ele>
        <time>2022-05-05T08:16:22Z</time>
      </trkpt>
      <trkpt lat="47.72626" lon="5.09336">
        <ele>478.53</ele>
        <time>2022-05-05T08:16:24Z</time>
      </trkpt>
      <trkpt lat="47.72624" lon="5.09339">
        <ele>478.48</ele>
        <time>2022-05-05T08:16:26Z</time>
      </trkpt>
      <trkpt lat="47.72622" lon="5.09342">
        <ele>478.46</ele>
        <time>2022-05-05T08:16:29Z</time>
      </trkpt>
      <trkpt lat="47.7262" lon="5.09345">
        <ele>478.47</ele>
        <time>2022-05-05T08:16:31Z</time>
      </trkpt>
      <trkpt lat="47.72618" lon="5.09348">
        <ele>478.51</ele>
        <time>2022-05-05T08:16:33Z</time>
      </trkpt>
      <trkpt lat="47.72616" lon="5.09352">
        <ele>478.61</ele>
        <time>2022-05-05T08:16:35Z</time>
      </trkpt>
      <trkpt lat="47.72614" lon="5.09356">
        <ele>478.75</ele>
        <time>2022-05-05T08:16:39Z</time>
      </trkpt>
      <trkpt lat="47.72612" lon="5.09358">
        <ele>478.86</ele>
        <time>2022-05-05T08:16:41Z</time>
      </trkpt>
      <trkpt lat="47.72609" lon="5.0936">
        <ele>478.89</ele>
        <time>2022-05-05T08:16:44Z</time>
      </trkpt>
      <trkpt lat="47.72607" lon="5.09363">
        <ele>478.98</ele>
        <time>2022-05-05T08:16:47Z</time>
      </trkpt>
      <trkpt lat="47.72605" lon="5.09366">
        <ele>479.09</ele>
        <time>2022-05-05T08:16:50Z</time>
      </trkpt>
      <trkpt lat="47.72601" lon="5.09367">
        <ele>478.98</ele>
        <time>2022-05-05T08:16:52Z</time>
      </trkpt>
      <trkpt lat="47.72598" lon="5.09369">
        <ele>478.96</ele>
        <time>2022-05-05T08:16:54Z</time>
      </trkpt>
      <trkpt lat="47.72595" lon="5.09372">
        <ele>478.98</ele>
        <time>2022-05-05T08:16:55Z</time>
      </trkpt>
      <trkpt lat="47.72593" lon="5.09375">
        <ele>479.02</ele>
        <time>2022-05-05T08:16:58Z</time>
      </trkpt>
      <trkpt lat="47.72591" lon="5.09378">
        <ele>479.05</ele>
        <time>2022-05-05T08:16:59Z</time>
      </trkpt>
      <trkpt lat="47.7259" lon="5.09382">
        <ele>479.17</ele>
        <time>2022-05-05T08:17:01Z</time>
      </trkpt>
      <trkpt lat="47.72588" lon="5.09385">
        <ele>479.17</ele>
        <time>2022-05-05T08:17:04Z</time>
      </trkpt>
      <trkpt lat="47.72586" lon="5.09389">
        <ele>479.19</ele>
        <time>2022-05-05T08:17:07Z</time>
      </trkpt>
      <trkpt lat="47.72584" lon="5.09393">
        <ele>479.04</ele>
        <time>2022-05-05T08:17:09Z</time>
      </trkpt>
      <trkpt lat="47.72582" lon="5.09396">
        <ele>478.98</ele>
        <time>2022-05-05T08:17:12Z</time>
      </trkpt>
      <trkpt lat="47.72579" lon="5.094">
        <ele>478.88</ele>
        <time>2022-05-05T08:17:14Z</time>
      </trkpt>
      <trkpt lat="47.72577" lon="5.09403">
        <ele>478.77</ele>
        <time>2022-05-05T08:17:16Z</time>
      </trkpt>
      <trkpt lat="47.72574" lon="5.09406">
        <ele>478.59</ele>
        <time>2022-05-05T08:17:18Z</time>
      </trkpt>
      <trkpt lat="47.72572" lon="5.09409">
        <ele>478.41</ele>
        <time>2022-05-05T08:17:20Z</time>
      </trkpt>
      <trkpt lat="47.7257" lon="5.09411">
        <ele>478.24</ele>
        <time>2022-05-05T08:17:23Z</time>
      </trkpt>
      <trkpt lat="47.72567" lon="5.09414">
        <ele>477.94</ele>
        <time>2022-05-05T08:17:25Z</time>
      </trkpt>
      <trkpt lat="47.72565" lon="5.09416">
        <ele>477.71</ele>
        <time>2022-05-05T08:17:28Z</time>
      </trkpt>
      <trkpt lat="47.72563" lon="5.09419">
        <ele>477.4</ele>
        <time>2022-05-05T08:17:30Z</time>
      </trkpt>
      <trkpt lat="47.72561" lon="5.09422">
        <ele>477.17</ele>
        <time>2022-05-05T08:17:33Z</time>
      </trkpt>
      <trkpt lat="47.72558" lon="5.09425">
        <ele>477.02</ele>
        <time>2022-05-05T08:17:38Z</time>
      </trkpt>
      <trkpt lat="47.72556" lon="5.09428">
        <ele>476.99</ele>
        <time>2022-05-05T08:17:40Z</time>
      </trkpt>
      <trkpt lat="47.72554" lon="5.0943">
        <ele>477.11</ele>
        <time>2022-05-05T08:17:44Z</time>
      </trkpt>
      <trkpt lat="47.72551" lon="5.09433">
        <ele>477.3</ele>
        <time>2022-05-05T08:17:46Z</time>
      </trkpt>
      <trkpt lat="47.72548" lon="5.09434">
        <ele>477.48</ele>
        <time>2022-05-05T08:17:50Z</time>
      </trkpt>
      <trkpt lat="47.72545" lon="5.09436">
        <ele>477.61</ele>
        <time>2022-05-05T08:17:53Z</time>
      </trkpt>
      <trkpt lat="47.72543" lon="5.09439">
        <ele>477.63</ele>
        <time>2022-05-05T08:17:55Z</time>
      </trkpt>
      <trkpt lat="47.7254" lon="5.09441">
        <ele>477.7</ele>
        <time>2022-05-05T08:17:58Z</time>
      </trkpt>
      <trkpt lat="47.72537" lon="5.09443">
        <ele>477.74</ele>
        <time>2022-05-05T08:18:01Z</time>
      </trkpt>
      <trkpt lat="47.72535" lon="5.09445">
        <ele>477.65</ele>
        <time>2022-05-05T08:18:03Z</time>
      </trkpt>
      <trkpt lat="47.72532" lon="5.09447">
        <ele>477.45</ele>
        <time>2022-05-05T08:18:05Z</time>
      </trkpt>
      <trkpt lat="47.72529" lon="5.09448">
        <ele>477.43</ele>
        <time>2022-05-05T08:18:08Z</time>
      </trkpt>
      <trkpt lat="47.72526" lon="5.09449">
        <ele>477.62</ele>
        <time>2022-05-05T08:18:10Z</time>
      </trkpt>
      <trkpt lat="47.72524" lon="5.09451">
        <ele>477.66</ele>
        <time>2022-05-05T08:18:13Z</time>
      </trkpt>
      <trkpt lat="47.72521" lon="5.09453">
        <ele>477.89</ele>
        <time>2022-05-05T08:18:16Z</time>
      </trkpt>
      <trkpt lat="47.72517" lon="5.09454">
        <ele>478.44</ele>
        <time>2022-05-05T08:18:19Z</time>
      </trkpt>
      <trkpt lat="47.72514" lon="5.09456">
        <ele>478.73</ele>
        <time>2022-05-05T08:18:20Z</time>
      </trkpt>
      <trkpt lat="47.72512" lon="5.09457">
        <ele>478.98</ele>
        <time>2022-05-05T08:18:23Z</time>
      </trkpt>
      <trkpt lat="47.72509" lon="5.09458">
        <ele>479.41</ele>
        <time>2022-05-05T08:18:25Z</time>
      </trkpt>
      <trkpt lat="47.72506" lon="5.0946">
        <ele>479.77</ele>
        <time>2022-05-05T08:18:29Z</time>
      </trkpt>
      <trkpt lat="47.72503" lon="5.09461">
        <ele>480.25</ele>
        <time>2022-05-05T08:18:31Z</time>
      </trkpt>
      <trkpt lat="47.72499" lon="5.09462">
        <ele>480.79</ele>
        <time>2022-05-05T08:18:34Z</time>
      </trkpt>
      <trkpt lat="47.72497" lon="5.09464">
        <ele>480.78</ele>
        <time>2022-05-05T08:18:36Z</time>
      </trkpt>
      <trkpt lat="47.72494" lon="5.09465">
        <ele>480.9</ele>
        <time>2022-05-05T08:18:39Z</time>
      </trkpt>
      <trkpt lat="47.72491" lon="5.09467">
        <ele>480.96</ele>
        <time>2022-05-05T08:18:40Z</time>
      </trkpt>
      <trkpt lat="47.72488" lon="5.09468">
        <ele>481.1</ele>
        <time>2022-05-05T08:18:41Z</time>
      </trkpt>
      <trkpt lat="47.72485" lon="5.0947">
        <ele>481.2</ele>
        <time>2022-05-05T08:18:43Z</time>
      </trkpt>
      <trkpt lat="47.72482" lon="5.09472">
        <ele>481.31</ele>
        <time>2022-05-05T08:18:46Z</time>
      </trkpt>
      <trkpt lat="47.72479" lon="5.09474">
        <ele>481.21</ele>
        <time>2022-05-05T08:18:48Z</time>
      </trkpt>
      <trkpt lat="47.72476" lon="5.09475">
        <ele>481.24</ele>
        <time>2022-05-05T08:18:50Z</time>
      </trkpt>
      <trkpt lat="47.72473" lon="5.09477">
        <ele>481.09</ele>
        <time>2022-05-05T08:18:53Z</time>
      </trkpt>
      <trkpt lat="47.72471" lon="5.0948">
        <ele>480.37</ele>
        <time>2022-05-05T08:18:54Z</time>
      </trkpt>
      <trkpt lat="47.72468" lon="5.09482">
        <ele>479.49</ele>
        <time>2022-05-05T08:18:56Z</time>
      </trkpt>
      <trkpt lat="47.72466" lon="5.09484">
        <ele>478.82</ele>
        <time>2022-05-05T08:18:58Z</time>
      </trkpt>
      <trkpt lat="47.72463" lon="5.09487">
        <ele>477.88</ele>
        <time>2022-05-05T08:19:00Z</time>
      </trkpt>
      <trkpt lat="47.7246" lon="5.0949">
        <ele>477</ele>
        <time>2022-05-05T08:19:01Z</time>
      </trkpt>
      <trkpt lat="47.72458" lon="5.09492">
        <ele>476.46</ele>
        <time>2022-05-05T08:19:03Z</time>
      </trkpt>
      <trkpt lat="47.72455" lon="5.09494">
        <ele>475.82</ele>
        <time>2022-05-05T08:19:05Z</time>
      </trkpt>
      <trkpt lat="47.72452" lon="5.09497">
        <ele>475.12</ele>
        <time>2022-05-05T08:19:06Z</time>
      </trkpt>
      <trkpt lat="47.72449" lon="5.09499">
        <ele>474.58</ele>
        <time>2022-05-05T08:19:08Z</time>
      </trkpt>
      <trkpt lat="47.72446" lon="5.09502">
        <ele>473.82</ele>
        <time>2022-05-05T08:19:10Z</time>
      </trkpt>
      <trkpt lat="47.72444" lon="5.09504">
        <ele>473.25</ele>
        <time>2022-05-05T08:19:12Z</time>
      </trkpt>
      <trkpt lat="47.72442" lon="5.09508">
        <ele>472.41</ele>
        <time>2022-05-05T08:19:16Z</time>
      </trkpt>
      <trkpt lat="47.7244" lon="5.09511">
        <ele>471.76</ele>
        <time>2022-05-05T08:19:18Z</time>
      </trkpt>
      <trkpt lat="47.72438" lon="5.09513">
        <ele>471.3</ele>
        <time>2022-05-05T08:19:22Z</time>
      </trkpt>
      <trkpt lat="47.72435" lon="5.09516">
        <ele>470.64</ele>
        <time>2022-05-05T08:19:23Z</time>
      </trkpt>
      <trkpt lat="47.72433" lon="5.09519">
        <ele>470.04</ele>
        <time>2022-05-05T08:19:26Z</time>
      </trkpt>
      <trkpt lat="47.72431" lon="5.09523">
        <ele>469.29</ele>
        <time>2022-05-05T08:19:28Z</time>
      </trkpt>
      <trkpt lat="47.72429" lon="5.09526">
        <ele>468.73</ele>
        <time>2022-05-05T08:19:30Z</time>
      </trkpt>
      <trkpt lat="47.72427" lon="5.09529">
        <ele>468.31</ele>
        <time>2022-05-05T08:19:34Z</time>
      </trkpt>
      <trkpt lat="47.72424" lon="5.09531">
        <ele>468.12</ele>
        <time>2022-05-05T08:19:38Z</time>
      </trkpt>
      <trkpt lat="47.72422" lon="5.09534">
        <ele>467.92</ele>
        <time>2022-05-05T08:19:40Z</time>
      </trkpt>
      <trkpt lat="47.7242" lon="5.09537">
        <ele>467.75</ele>
        <time>2022-05-05T08:19:43Z</time>
      </trkpt>
      <trkpt lat="47.72417" lon="5.0954">
        <ele>467.57</ele>
        <time>2022-05-05T08:19:45Z</time>
      </trkpt>
      <trkpt lat="47.72415" lon="5.09543">
        <ele>467.69</ele>
        <time>2022-05-05T08:19:48Z</time>
      </trkpt>
      <trkpt lat="47.72412" lon="5.09546">
        <ele>467.96</ele>
        <time>2022-05-05T08:19:50Z</time>
      </trkpt>
      <trkpt lat="47.72409" lon="5.09548">
        <ele>468.25</ele>
        <time>2022-05-05T08:19:53Z</time>
      </trkpt>
      <trkpt lat="47.72405" lon="5.09549">
        <ele>468.69</ele>
        <time>2022-05-05T08:19:55Z</time>
      </trkpt>
      <trkpt lat="47.72402" lon="5.09551">
        <ele>468.92</ele>
        <time>2022-05-05T08:19:57Z</time>
      </trkpt>
      <trkpt lat="47.72398" lon="5.09554">
        <ele>469.15</ele>
        <time>2022-05-05T08:19:59Z</time>
      </trkpt>
      <trkpt lat="47.72396" lon="5.09557">
        <ele>468.97</ele>
        <time>2022-05-05T08:20:00Z</time>
      </trkpt>
      <trkpt lat="47.72393" lon="5.09559">
        <ele>468.94</ele>
        <time>2022-05-05T08:20:01Z</time>
      </trkpt>
      <trkpt lat="47.7239" lon="5.09562">
        <ele>468.72</ele>
        <time>2022-05-05T08:20:04Z</time>
      </trkpt>
      <trkpt lat="47.72388" lon="5.09563">
        <ele>468.85</ele>
        <time>2022-05-05T08:20:06Z</time>
      </trkpt>
      <trkpt lat="47.72385" lon="5.09564">
        <ele>469.31</ele>
        <time>2022-05-05T08:20:10Z</time>
      </trkpt>
      <trkpt lat="47.72382" lon="5.09565">
        <ele>469.79</ele>
        <time>2022-05-05T08:20:13Z</time>
      </trkpt>
      <trkpt lat="47.72379" lon="5.09566">
        <ele>470.3</ele>
        <time>2022-05-05T08:20:15Z</time>
      </trkpt>
      <trkpt lat="47.72376" lon="5.09568">
        <ele>470.7</ele>
        <time>2022-05-05T08:20:16Z</time>
      </trkpt>
      <trkpt lat="47.72373" lon="5.09569">
        <ele>471.27</ele>
        <time>2022-05-05T08:20:20Z</time>
      </trkpt>
      <trkpt lat="47.7237" lon="5.0957">
        <ele>471.86</ele>
        <time>2022-05-05T08:20:21Z</time>
      </trkpt>
      <trkpt lat="47.72367" lon="5.09572">
        <ele>472.38</ele>
        <time>2022-05-05T08:20:24Z</time>
      </trkpt>
      <trkpt lat="47.72363" lon="5.09573">
        <ele>473.28</ele>
        <time>2022-05-05T08:20:26Z</time>
      </trkpt>
      <trkpt lat="47.7236" lon="5.09574">
        <ele>473.77</ele>
        <time>2022-05-05T08:20:28Z</time>
      </trkpt>
      <trkpt lat="47.72356" lon="5.09576">
        <ele>473.98</ele>
        <time>2022-05-05T08:20:30Z</time>
      </trkpt>
      <trkpt lat="47.72353" lon="5.09577">
        <ele>474.2</ele>
        <time>2022-05-05T08:20:31Z</time>
      </trkpt>
      <trkpt lat="47.7235" lon="5.09578">
        <ele>474.43</ele>
        <time>2022-05-05T08:20:34Z</time>
      </trkpt>
      <trkpt lat="47.72347" lon="5.09579">
        <ele>474.68</ele>
        <time>2022-05-05T08:20:36Z</time>
      </trkpt>
      <trkpt lat="47.72343" lon="5.09579">
        <ele>475.06</ele>
        <time>2022-05-05T08:20:37Z</time>
      </trkpt>
      <trkpt lat="47.7234" lon="5.0958">
        <ele>475.34</ele>
        <time>2022-05-05T08:20:40Z</time>
      </trkpt>
      <trkpt lat="47.72338" lon="5.0958">
        <ele>475.54</ele>
        <time>2022-05-05T08:20:41Z</time>
      </trkpt>
      <trkpt lat="47.72335" lon="5.0958">
        <ele>475.83</ele>
        <time>2022-05-05T08:20:44Z</time>
      </trkpt>
      <trkpt lat="47.72331" lon="5.0958">
        <ele>476.03</ele>
        <time>2022-05-05T08:20:47Z</time>
      </trkpt>
      <trkpt lat="47.72328" lon="5.0958">
        <ele>476.07</ele>
        <time>2022-05-05T08:20:50Z</time>
      </trkpt>
      <trkpt lat="47.72325" lon="5.0958">
        <ele>476.11</ele>
        <time>2022-05-05T08:20:52Z</time>
      </trkpt>
      <trkpt lat="47.72321" lon="5.0958">
        <ele>476.16</ele>
        <time>2022-05-05T08:20:56Z</time>
      </trkpt>
      <trkpt lat="47.72318" lon="5.09579">
        <ele>476.26</ele>
        <time>2022-05-05T08:20:57Z</time>
      </trkpt>
      <trkpt lat="47.72315" lon="5.09579">
        <ele>476.31</ele>
        <time>2022-05-05T08:20:59Z</time>
      </trkpt>
      <trkpt lat="47.72312" lon="5.09578">
        <ele>476.44</ele>
        <time>2022-05-05T08:21:02Z</time>
      </trkpt>
      <trkpt lat="47.72309" lon="5.09578">
        <ele>476.5</ele>
        <time>2022-05-05T08:21:03Z</time>
      </trkpt>
      <trkpt lat="47.72306" lon="5.09577">
        <ele>476.67</ele>
        <time>2022-05-05T08:21:05Z</time>
      </trkpt>
      <trkpt lat="47.72303" lon="5.09577">
        <ele>476.68</ele>
        <time>2022-05-05T08:21:07Z</time>
      </trkpt>
      <trkpt lat="47.723" lon="5.09576">
        <ele>476.79</ele>
        <time>2022-05-05T08:21:15Z</time>
      </trkpt>
      <trkpt lat="47.72296" lon="5.09575">
        <ele>476.9</ele>
        <time>2022-05-05T08:21:17Z</time>
      </trkpt>
      <trkpt lat="47.72293" lon="5.09575">
        <ele>476.9</ele>
        <time>2022-05-05T08:21:22Z</time>
      </trkpt>
      <trkpt lat="47.7229" lon="5.09575">
        <ele>476.9</ele>
        <time>2022-05-05T08:21:27Z</time>
      </trkpt>
      <trkpt lat="47.72288" lon="5.09574">
        <ele>477.01</ele>
        <time>2022-05-05T08:21:35Z</time>
      </trkpt>
      <trkpt lat="47.72285" lon="5.09572">
        <ele>477.22</ele>
        <time>2022-05-05T08:21:47Z</time>
      </trkpt>
      <trkpt lat="47.72282" lon="5.09572">
        <ele>477.22</ele>
        <time>2022-05-05T08:21:50Z</time>
      </trkpt>
      <trkpt lat="47.72279" lon="5.09572">
        <ele>477.22</ele>
        <time>2022-05-05T08:22:03Z</time>
      </trkpt>
      <trkpt lat="47.72276" lon="5.09571">
        <ele>477.32</ele>
        <time>2022-05-05T08:22:10Z</time>
      </trkpt>
      <trkpt lat="47.72274" lon="5.09569">
        <ele>477.55</ele>
        <time>2022-05-05T08:23:04Z</time>
      </trkpt>
      <trkpt lat="47.72272" lon="5.09565">
        <ele>478.05</ele>
        <time>2022-05-05T08:23:29Z</time>
      </trkpt>
      <trkpt lat="47.72273" lon="5.0957">
        <ele>477.43</ele>
        <time>2022-05-05T08:25:25Z</time>
      </trkpt>
      <trkpt lat="47.72274" lon="5.09573">
        <ele>477.08</ele>
        <time>2022-05-05T08:25:33Z</time>
      </trkpt>
      <trkpt lat="47.72275" lon="5.09578">
        <ele>476.51</ele>
        <time>2022-05-05T08:25:39Z</time>
      </trkpt>
      <trkpt lat="47.72277" lon="5.09582">
        <ele>476.12</ele>
        <time>2022-05-05T08:25:43Z</time>
      </trkpt>
      <trkpt lat="47.72278" lon="5.09586">
        <ele>475.71</ele>
        <time>2022-05-05T08:25:48Z</time>
      </trkpt>
      <trkpt lat="47.7228" lon="5.0959">
        <ele>475.28</ele>
        <time>2022-05-05T08:25:51Z</time>
      </trkpt>
      <trkpt lat="47.72281" lon="5.09594">
        <ele>474.85</ele>
        <time>2022-05-05T08:25:55Z</time>
      </trkpt>
      <trkpt lat="47.72283" lon="5.09598">
        <ele>474.42</ele>
        <time>2022-05-05T08:25:58Z</time>
      </trkpt>
      <trkpt lat="47.72284" lon="5.09602">
        <ele>473.98</ele>
        <time>2022-05-05T08:26:02Z</time>
      </trkpt>
      <trkpt lat="47.72284" lon="5.09606">
        <ele>473.55</ele>
        <time>2022-05-05T08:26:05Z</time>
      </trkpt>
      <trkpt lat="47.72285" lon="5.0961">
        <ele>473.12</ele>
        <time>2022-05-05T08:26:09Z</time>
      </trkpt>
      <trkpt lat="47.72286" lon="5.09615">
        <ele>472.76</ele>
        <time>2022-05-05T08:26:12Z</time>
      </trkpt>
      <trkpt lat="47.72288" lon="5.0962">
        <ele>472.48</ele>
        <time>2022-05-05T08:26:17Z</time>
      </trkpt>
      <trkpt lat="47.72289" lon="5.09624">
        <ele>472.26</ele>
        <time>2022-05-05T08:26:20Z</time>
      </trkpt>
      <trkpt lat="47.7229" lon="5.09628">
        <ele>472.05</ele>
        <time>2022-05-05T08:26:23Z</time>
      </trkpt>
      <trkpt lat="47.7229" lon="5.09632">
        <ele>471.83</ele>
        <time>2022-05-05T08:26:27Z</time>
      </trkpt>
      <trkpt lat="47.72291" lon="5.09637">
        <ele>471.58</ele>
        <time>2022-05-05T08:26:31Z</time>
      </trkpt>
      <trkpt lat="47.72292" lon="5.09641">
        <ele>471.4</ele>
        <time>2022-05-05T08:26:34Z</time>
      </trkpt>
      <trkpt lat="47.72293" lon="5.09645">
        <ele>471.23</ele>
        <time>2022-05-05T08:26:37Z</time>
      </trkpt>
      <trkpt lat="47.72294" lon="5.0965">
        <ele>471.02</ele>
        <time>2022-05-05T08:26:40Z</time>
      </trkpt>
      <trkpt lat="47.72295" lon="5.09654">
        <ele>470.87</ele>
        <time>2022-05-05T08:26:44Z</time>
      </trkpt>
      <trkpt lat="47.72296" lon="5.09659">
        <ele>470.68</ele>
        <time>2022-05-05T08:26:47Z</time>
      </trkpt>
      <trkpt lat="47.72297" lon="5.09663">
        <ele>470.56</ele>
        <time>2022-05-05T08:26:49Z</time>
      </trkpt>
      <trkpt lat="47.72298" lon="5.09667">
        <ele>470.44</ele>
        <time>2022-05-05T08:26:52Z</time>
      </trkpt>
      <trkpt lat="47.723" lon="5.09672">
        <ele>470.25</ele>
        <time>2022-05-05T08:26:56Z</time>
      </trkpt>
      <trkpt lat="47.72301" lon="5.09676">
        <ele>470.06</ele>
        <time>2022-05-05T08:27:00Z</time>
      </trkpt>
      <trkpt lat="47.72302" lon="5.0968">
        <ele>469.85</ele>
        <time>2022-05-05T08:27:05Z</time>
      </trkpt>
      <trkpt lat="47.72303" lon="5.09685">
        <ele>469.56</ele>
        <time>2022-05-05T08:27:08Z</time>
      </trkpt>
      <trkpt lat="47.72304" lon="5.09689">
        <ele>469.33</ele>
        <time>2022-05-05T08:27:11Z</time>
      </trkpt>
      <trkpt lat="47.72305" lon="5.09693">
        <ele>469.08</ele>
        <time>2022-05-05T08:27:15Z</time>
      </trkpt>
      <trkpt lat="47.72306" lon="5.09696">
        <ele>469.06</ele>
        <time>2022-05-05T08:27:17Z</time>
      </trkpt>
      <trkpt lat="47.72307" lon="5.097">
        <ele>469.2</ele>
        <time>2022-05-05T08:27:21Z</time>
      </trkpt>
      <trkpt lat="47.72308" lon="5.09704">
        <ele>469.32</ele>
        <time>2022-05-05T08:27:24Z</time>
      </trkpt>
      <trkpt lat="47.72309" lon="5.09708">
        <ele>469.44</ele>
        <time>2022-05-05T08:27:27Z</time>
      </trkpt>
      <trkpt lat="47.7231" lon="5.09712">
        <ele>469.54</ele>
        <time>2022-05-05T08:27:30Z</time>
      </trkpt>
      <trkpt lat="47.72311" lon="5.09716">
        <ele>469.63</ele>
        <time>2022-05-05T08:27:33Z</time>
      </trkpt>
      <trkpt lat="47.72313" lon="5.0972">
        <ele>469.83</ele>
        <time>2022-05-05T08:27:36Z</time>
      </trkpt>
      <trkpt lat="47.72314" lon="5.09724">
        <ele>469.85</ele>
        <time>2022-05-05T08:27:39Z</time>
      </trkpt>
      <trkpt lat="47.72315" lon="5.09729">
        <ele>469.78</ele>
        <time>2022-05-05T08:27:44Z</time>
      </trkpt>
      <trkpt lat="47.72316" lon="5.09733">
        <ele>469.74</ele>
        <time>2022-05-05T08:27:48Z</time>
      </trkpt>
      <trkpt lat="47.72317" lon="5.09737">
        <ele>469.7</ele>
        <time>2022-05-05T08:27:52Z</time>
      </trkpt>
      <trkpt lat="47.72318" lon="5.09741">
        <ele>469.67</ele>
        <time>2022-05-05T08:27:55Z</time>
      </trkpt>
      <trkpt lat="47.72318" lon="5.09745">
        <ele>469.52</ele>
        <time>2022-05-05T08:27:58Z</time>
      </trkpt>
      <trkpt lat="47.72319" lon="5.0975">
        <ele>469.45</ele>
        <time>2022-05-05T08:28:01Z</time>
      </trkpt>
      <trkpt lat="47.72319" lon="5.09754">
        <ele>469.17</ele>
        <time>2022-05-05T08:28:06Z</time>
      </trkpt>
      <trkpt lat="47.7232" lon="5.09758">
        <ele>468.97</ele>
        <time>2022-05-05T08:28:10Z</time>
      </trkpt>
      <trkpt lat="47.72322" lon="5.09762">
        <ele>468.83</ele>
        <time>2022-05-05T08:28:13Z</time>
      </trkpt>
      <trkpt lat="47.72323" lon="5.09766">
        <ele>468.58</ele>
        <time>2022-05-05T08:28:16Z</time>
      </trkpt>
      <trkpt lat="47.72324" lon="5.0977">
        <ele>468.32</ele>
        <time>2022-05-05T08:28:20Z</time>
      </trkpt>
      <trkpt lat="47.72325" lon="5.09774">
        <ele>468.03</ele>
        <time>2022-05-05T08:28:25Z</time>
      </trkpt>
      <trkpt lat="47.72326" lon="5.09778">
        <ele>467.7</ele>
        <time>2022-05-05T08:28:28Z</time>
      </trkpt>
      <trkpt lat="47.72328" lon="5.09781">
        <ele>467.27</ele>
        <time>2022-05-05T08:28:33Z</time>
      </trkpt>
      <trkpt lat="47.72329" lon="5.09785">
        <ele>466.63</ele>
        <time>2022-05-05T08:28:38Z</time>
      </trkpt>
      <trkpt lat="47.7233" lon="5.09789">
        <ele>465.96</ele>
        <time>2022-05-05T08:28:41Z</time>
      </trkpt>
      <trkpt lat="47.72332" lon="5.09793">
        <ele>465.26</ele>
        <time>2022-05-05T08:28:43Z</time>
      </trkpt>
      <trkpt lat="47.72332" lon="5.09797">
        <ele>464.56</ele>
        <time>2022-05-05T08:28:46Z</time>
      </trkpt>
      <trkpt lat="47.72333" lon="5.09801">
        <ele>463.83</ele>
        <time>2022-05-05T08:28:50Z</time>
      </trkpt>
      <trkpt lat="47.72334" lon="5.09805">
        <ele>462.96</ele>
        <time>2022-05-05T08:28:53Z</time>
      </trkpt>
      <trkpt lat="47.72335" lon="5.0981">
        <ele>461.83</ele>
        <time>2022-05-05T08:29:01Z</time>
      </trkpt>
      <trkpt lat="47.72336" lon="5.09814">
        <ele>460.87</ele>
        <time>2022-05-05T08:29:07Z</time>
      </trkpt>
      <trkpt lat="47.72337" lon="5.09818">
        <ele>459.91</ele>
        <time>2022-05-05T08:29:16Z</time>
      </trkpt>
      <trkpt lat="47.72338" lon="5.09822">
        <ele>458.93</ele>
        <time>2022-05-05T08:29:20Z</time>
      </trkpt>
      <trkpt lat="47.72338" lon="5.09826">
        <ele>458.19</ele>
        <time>2022-05-05T08:29:24Z</time>
      </trkpt>
      <trkpt lat="47.72339" lon="5.09831">
        <ele>457.01</ele>
        <time>2022-05-05T08:29:30Z</time>
      </trkpt>
      <trkpt lat="47.72342" lon="5.09832">
        <ele>456.07</ele>
        <time>2022-05-05T08:29:47Z</time>
      </trkpt>
      <trkpt lat="47.72343" lon="5.09836">
        <ele>455.28</ele>
        <time>2022-05-05T08:29:57Z</time>
      </trkpt>
      <trkpt lat="47.72345" lon="5.0984">
        <ele>454.34</ele>
        <time>2022-05-05T08:30:02Z</time>
      </trkpt>
      <trkpt lat="47.72345" lon="5.09844">
        <ele>453.91</ele>
        <time>2022-05-05T08:30:09Z</time>
      </trkpt>
      <trkpt lat="47.72346" lon="5.09848">
        <ele>453.22</ele>
        <time>2022-05-05T08:30:17Z</time>
      </trkpt>
      <trkpt lat="47.72348" lon="5.09852">
        <ele>452.29</ele>
        <time>2022-05-05T08:30:25Z</time>
      </trkpt>
      <trkpt lat="47.72351" lon="5.09855">
        <ele>451.21</ele>
        <time>2022-05-05T08:30:28Z</time>
      </trkpt>
      <trkpt lat="47.72354" lon="5.09856">
        <ele>450.34</ele>
        <time>2022-05-05T08:30:46Z</time>
      </trkpt>
      <trkpt lat="47.72357" lon="5.09858">
        <ele>449.37</ele>
        <time>2022-05-05T08:30:48Z</time>
      </trkpt>
      <trkpt lat="47.72359" lon="5.09861">
        <ele>448.54</ele>
        <time>2022-05-05T08:30:51Z</time>
      </trkpt>
      <trkpt lat="47.72362" lon="5.09863">
        <ele>447.64</ele>
        <time>2022-05-05T08:30:55Z</time>
      </trkpt>
      <trkpt lat="47.72364" lon="5.09866">
        <ele>447.02</ele>
        <time>2022-05-05T08:30:59Z</time>
      </trkpt>
      <trkpt lat="47.72366" lon="5.09868">
        <ele>446.57</ele>
        <time>2022-05-05T08:31:05Z</time>
      </trkpt>
      <trkpt lat="47.72369" lon="5.09869">
        <ele>446.17</ele>
        <time>2022-05-05T08:31:09Z</time>
      </trkpt>
      <trkpt lat="47.72372" lon="5.0987">
        <ele>445.79</ele>
        <time>2022-05-05T08:31:13Z</time>
      </trkpt>
      <trkpt lat="47.72375" lon="5.09871">
        <ele>445.43</ele>
        <time>2022-05-05T08:31:19Z</time>
      </trkpt>
      <trkpt lat="47.72378" lon="5.09871">
        <ele>445.18</ele>
        <time>2022-05-05T08:31:23Z</time>
      </trkpt>
      <trkpt lat="47.72381" lon="5.09872">
        <ele>444.85</ele>
        <time>2022-05-05T08:31:27Z</time>
      </trkpt>
      <trkpt lat="47.72384" lon="5.09872">
        <ele>444.61</ele>
        <time>2022-05-05T08:31:31Z</time>
      </trkpt>
      <trkpt lat="47.72387" lon="5.09871">
        <ele>444.44</ele>
        <time>2022-05-05T08:31:34Z</time>
      </trkpt>
      <trkpt lat="47.7239" lon="5.0987">
        <ele>444.28</ele>
        <time>2022-05-05T08:31:39Z</time>
      </trkpt>
      <trkpt lat="47.72393" lon="5.09868">
        <ele>444.21</ele>
        <time>2022-05-05T08:31:42Z</time>
      </trkpt>
      <trkpt lat="47.72396" lon="5.09866">
        <ele>444.14</ele>
        <time>2022-05-05T08:31:46Z</time>
      </trkpt>
      <trkpt lat="47.72398" lon="5.09864">
        <ele>444.14</ele>
        <time>2022-05-05T08:31:51Z</time>
      </trkpt>
      <trkpt lat="47.72401" lon="5.09865">
        <ele>443.85</ele>
        <time>2022-05-05T08:31:58Z</time>
      </trkpt>
      <trkpt lat="47.72404" lon="5.09866">
        <ele>443.56</ele>
        <time>2022-05-05T08:32:02Z</time>
      </trkpt>
      <trkpt lat="47.72407" lon="5.09864">
        <ele>443.49</ele>
        <time>2022-05-05T08:32:05Z</time>
      </trkpt>
      <trkpt lat="47.72409" lon="5.09861">
        <ele>443.57</ele>
        <time>2022-05-05T08:32:07Z</time>
      </trkpt>
      <trkpt lat="47.72412" lon="5.09859">
        <ele>443.63</ele>
        <time>2022-05-05T08:32:12Z</time>
      </trkpt>
      <trkpt lat="47.72415" lon="5.09858">
        <ele>443.56</ele>
        <time>2022-05-05T08:32:16Z</time>
      </trkpt>
      <trkpt lat="47.72417" lon="5.09856">
        <ele>443.73</ele>
        <time>2022-05-05T08:32:19Z</time>
      </trkpt>
      <trkpt lat="47.72419" lon="5.09853">
        <ele>444.07</ele>
        <time>2022-05-05T08:32:22Z</time>
      </trkpt>
      <trkpt lat="47.72421" lon="5.0985">
        <ele>444.35</ele>
        <time>2022-05-05T08:32:26Z</time>
      </trkpt>
      <trkpt lat="47.72424" lon="5.09849">
        <ele>444.28</ele>
        <time>2022-05-05T08:32:30Z</time>
      </trkpt>
      <trkpt lat="47.72427" lon="5.09846">
        <ele>444.37</ele>
        <time>2022-05-05T08:32:36Z</time>
      </trkpt>
      <trkpt lat="47.72429" lon="5.09844">
        <ele>444.37</ele>
        <time>2022-05-05T08:32:38Z</time>
      </trkpt>
      <trkpt lat="47.72432" lon="5.09842">
        <ele>444.23</ele>
        <time>2022-05-05T08:32:41Z</time>
      </trkpt>
      <trkpt lat="47.72434" lon="5.0984">
        <ele>444.14</ele>
        <time>2022-05-05T08:32:44Z</time>
      </trkpt>
      <trkpt lat="47.72437" lon="5.09837">
        <ele>443.93</ele>
        <time>2022-05-05T08:32:46Z</time>
      </trkpt>
      <trkpt lat="47.72439" lon="5.09833">
        <ele>443.87</ele>
        <time>2022-05-05T08:32:52Z</time>
      </trkpt>
      <trkpt lat="47.72441" lon="5.09831">
        <ele>444.07</ele>
        <time>2022-05-05T08:32:56Z</time>
      </trkpt>
      <trkpt lat="47.72444" lon="5.0983">
        <ele>443.9</ele>
        <time>2022-05-05T08:33:03Z</time>
      </trkpt>
      <trkpt lat="47.72447" lon="5.09829">
        <ele>443.42</ele>
        <time>2022-05-05T08:33:12Z</time>
      </trkpt>
      <trkpt lat="47.7245" lon="5.09829">
        <ele>442.63</ele>
        <time>2022-05-05T08:33:29Z</time>
      </trkpt>
      <trkpt lat="47.72452" lon="5.09827">
        <ele>442.57</ele>
        <time>2022-05-05T08:33:34Z</time>
      </trkpt>
      <trkpt lat="47.72455" lon="5.09825">
        <ele>442.21</ele>
        <time>2022-05-05T08:33:37Z</time>
      </trkpt>
      <trkpt lat="47.72457" lon="5.09822">
        <ele>442.32</ele>
        <time>2022-05-05T08:33:39Z</time>
      </trkpt>
      <trkpt lat="47.72459" lon="5.09819">
        <ele>442.4</ele>
        <time>2022-05-05T08:33:42Z</time>
      </trkpt>
      <trkpt lat="47.72461" lon="5.09815">
        <ele>442.66</ele>
        <time>2022-05-05T08:33:45Z</time>
      </trkpt>
      <trkpt lat="47.72463" lon="5.09813">
        <ele>442.47</ele>
        <time>2022-05-05T08:33:54Z</time>
      </trkpt>
      <trkpt lat="47.72465" lon="5.0981">
        <ele>442.46</ele>
        <time>2022-05-05T08:33:57Z</time>
      </trkpt>
      <trkpt lat="47.72468" lon="5.09805">
        <ele>442.5</ele>
        <time>2022-05-05T08:34:00Z</time>
      </trkpt>
      <trkpt lat="47.7247" lon="5.09802">
        <ele>442.6</ele>
        <time>2022-05-05T08:34:02Z</time>
      </trkpt>
      <trkpt lat="47.72472" lon="5.09799">
        <ele>442.72</ele>
        <time>2022-05-05T08:34:04Z</time>
      </trkpt>
      <trkpt lat="47.72475" lon="5.09797">
        <ele>442.56</ele>
        <time>2022-05-05T08:34:07Z</time>
      </trkpt>
      <trkpt lat="47.72478" lon="5.09795">
        <ele>442.38</ele>
        <time>2022-05-05T08:34:11Z</time>
      </trkpt>
      <trkpt lat="47.7248" lon="5.09794">
        <ele>442.16</ele>
        <time>2022-05-05T08:34:17Z</time>
      </trkpt>
      <trkpt lat="47.72483" lon="5.09792">
        <ele>441.91</ele>
        <time>2022-05-05T08:34:19Z</time>
      </trkpt>
      <trkpt lat="47.72486" lon="5.0979">
        <ele>441.61</ele>
        <time>2022-05-05T08:34:22Z</time>
      </trkpt>
      <trkpt lat="47.72489" lon="5.09789">
        <ele>441.07</ele>
        <time>2022-05-05T08:34:24Z</time>
      </trkpt>
      <trkpt lat="47.72491" lon="5.09786">
        <ele>441.12</ele>
        <time>2022-05-05T08:34:28Z</time>
      </trkpt>
      <trkpt lat="47.72494" lon="5.09783">
        <ele>440.85</ele>
        <time>2022-05-05T08:34:32Z</time>
      </trkpt>
      <trkpt lat="47.72496" lon="5.09779">
        <ele>440.96</ele>
        <time>2022-05-05T08:34:34Z</time>
      </trkpt>
      <trkpt lat="47.72499" lon="5.09775">
        <ele>440.61</ele>
        <time>2022-05-05T08:34:37Z</time>
      </trkpt>
      <trkpt lat="47.72501" lon="5.09771">
        <ele>440.48</ele>
        <time>2022-05-05T08:34:40Z</time>
      </trkpt>
      <trkpt lat="47.72503" lon="5.09767">
        <ele>440.35</ele>
        <time>2022-05-05T08:34:42Z</time>
      </trkpt>
      <trkpt lat="47.72504" lon="5.09764">
        <ele>440.34</ele>
        <time>2022-05-05T08:34:45Z</time>
      </trkpt>
      <trkpt lat="47.72507" lon="5.0976">
        <ele>439.76</ele>
        <time>2022-05-05T08:34:49Z</time>
      </trkpt>
      <trkpt lat="47.72509" lon="5.09757">
        <ele>439.33</ele>
        <time>2022-05-05T08:34:52Z</time>
      </trkpt>
      <trkpt lat="47.72511" lon="5.09754">
        <ele>438.84</ele>
        <time>2022-05-05T08:34:56Z</time>
      </trkpt>
      <trkpt lat="47.72514" lon="5.09751">
        <ele>437.92</ele>
        <time>2022-05-05T08:34:59Z</time>
      </trkpt>
      <trkpt lat="47.72517" lon="5.09748">
        <ele>437.11</ele>
        <time>2022-05-05T08:35:02Z</time>
      </trkpt>
      <trkpt lat="47.72519" lon="5.09745">
        <ele>436.69</ele>
        <time>2022-05-05T08:35:03Z</time>
      </trkpt>
      <trkpt lat="47.72522" lon="5.09742">
        <ele>435.84</ele>
        <time>2022-05-05T08:35:06Z</time>
      </trkpt>
      <trkpt lat="47.72523" lon="5.09739">
        <ele>435.72</ele>
        <time>2022-05-05T08:35:09Z</time>
      </trkpt>
      <trkpt lat="47.72525" lon="5.09735">
        <ele>435.24</ele>
        <time>2022-05-05T08:35:12Z</time>
      </trkpt>
      <trkpt lat="47.72527" lon="5.09732">
        <ele>434.63</ele>
        <time>2022-05-05T08:35:13Z</time>
      </trkpt>
      <trkpt lat="47.72529" lon="5.09729">
        <ele>434.31</ele>
        <time>2022-05-05T08:35:16Z</time>
      </trkpt>
      <trkpt lat="47.72532" lon="5.09725">
        <ele>434.07</ele>
        <time>2022-05-05T08:35:19Z</time>
      </trkpt>
      <trkpt lat="47.72534" lon="5.09722">
        <ele>433.92</ele>
        <time>2022-05-05T08:35:22Z</time>
      </trkpt>
      <trkpt lat="47.72536" lon="5.09719">
        <ele>434.13</ele>
        <time>2022-05-05T08:35:23Z</time>
      </trkpt>
      <trkpt lat="47.72539" lon="5.09717">
        <ele>434</ele>
        <time>2022-05-05T08:35:26Z</time>
      </trkpt>
      <trkpt lat="47.72541" lon="5.09715">
        <ele>434.04</ele>
        <time>2022-05-05T08:35:30Z</time>
      </trkpt>
      <trkpt lat="47.72544" lon="5.09713">
        <ele>433.93</ele>
        <time>2022-05-05T08:35:34Z</time>
      </trkpt>
      <trkpt lat="47.72546" lon="5.09711">
        <ele>434.01</ele>
        <time>2022-05-05T08:35:38Z</time>
      </trkpt>
      <trkpt lat="47.72549" lon="5.0971">
        <ele>433.72</ele>
        <time>2022-05-05T08:35:41Z</time>
      </trkpt>
      <trkpt lat="47.72552" lon="5.09709">
        <ele>433.44</ele>
        <time>2022-05-05T08:35:44Z</time>
      </trkpt>
      <trkpt lat="47.72555" lon="5.09708">
        <ele>433.16</ele>
        <time>2022-05-05T08:35:46Z</time>
      </trkpt>
      <trkpt lat="47.72558" lon="5.09706">
        <ele>433.09</ele>
        <time>2022-05-05T08:35:50Z</time>
      </trkpt>
      <trkpt lat="47.72561" lon="5.09704">
        <ele>432.96</ele>
        <time>2022-05-05T08:35:51Z</time>
      </trkpt>
      <trkpt lat="47.72563" lon="5.09702">
        <ele>432.98</ele>
        <time>2022-05-05T08:35:53Z</time>
      </trkpt>
      <trkpt lat="47.72567" lon="5.097">
        <ele>432.58</ele>
        <time>2022-05-05T08:35:56Z</time>
      </trkpt>
      <trkpt lat="47.7257" lon="5.09697">
        <ele>432.47</ele>
        <time>2022-05-05T08:35:57Z</time>
      </trkpt>
      <trkpt lat="47.72573" lon="5.09696">
        <ele>432</ele>
        <time>2022-05-05T08:35:59Z</time>
      </trkpt>
      <trkpt lat="47.72575" lon="5.09695">
        <ele>431.72</ele>
        <time>2022-05-05T08:36:01Z</time>
      </trkpt>
      <trkpt lat="47.72578" lon="5.09693">
        <ele>431.42</ele>
        <time>2022-05-05T08:36:02Z</time>
      </trkpt>
      <trkpt lat="47.72581" lon="5.09691">
        <ele>431.27</ele>
        <time>2022-05-05T08:36:04Z</time>
      </trkpt>
      <trkpt lat="47.72584" lon="5.09689">
        <ele>431.34</ele>
        <time>2022-05-05T08:36:07Z</time>
      </trkpt>
      <trkpt lat="47.72587" lon="5.09687">
        <ele>431.67</ele>
        <time>2022-05-05T08:36:08Z</time>
      </trkpt>
      <trkpt lat="47.72589" lon="5.09685">
        <ele>432.04</ele>
        <time>2022-05-05T08:36:12Z</time>
      </trkpt>
      <trkpt lat="47.72592" lon="5.09684">
        <ele>432.09</ele>
        <time>2022-05-05T08:36:17Z</time>
      </trkpt>
      <trkpt lat="47.72595" lon="5.09683">
        <ele>432.12</ele>
        <time>2022-05-05T08:36:21Z</time>
      </trkpt>
      <trkpt lat="47.72598" lon="5.09682">
        <ele>432.13</ele>
        <time>2022-05-05T08:36:23Z</time>
      </trkpt>
      <trkpt lat="47.72601" lon="5.09681">
        <ele>432.14</ele>
        <time>2022-05-05T08:36:26Z</time>
      </trkpt>
      <trkpt lat="47.72604" lon="5.09679">
        <ele>432.32</ele>
        <time>2022-05-05T08:36:28Z</time>
      </trkpt>
      <trkpt lat="47.72607" lon="5.09678">
        <ele>432.28</ele>
        <time>2022-05-05T08:36:31Z</time>
      </trkpt>
      <trkpt lat="47.7261" lon="5.09677">
        <ele>432.23</ele>
        <time>2022-05-05T08:36:34Z</time>
      </trkpt>
      <trkpt lat="47.72613" lon="5.09676">
        <ele>432.5</ele>
        <time>2022-05-05T08:36:35Z</time>
      </trkpt>
      <trkpt lat="47.72616" lon="5.09675">
        <ele>432.98</ele>
        <time>2022-05-05T08:36:40Z</time>
      </trkpt>
      <trkpt lat="47.72619" lon="5.09675">
        <ele>433.27</ele>
        <time>2022-05-05T08:36:43Z</time>
      </trkpt>
      <trkpt lat="47.72622" lon="5.09675">
        <ele>433.56</ele>
        <time>2022-05-05T08:36:48Z</time>
      </trkpt>
      <trkpt lat="47.72625" lon="5.09675">
        <ele>433.85</ele>
        <time>2022-05-05T08:36:51Z</time>
      </trkpt>
      <trkpt lat="47.72628" lon="5.09675">
        <ele>434.14</ele>
        <time>2022-05-05T08:36:53Z</time>
      </trkpt>
      <trkpt lat="47.72631" lon="5.09677">
        <ele>434.02</ele>
        <time>2022-05-05T08:36:58Z</time>
      </trkpt>
      <trkpt lat="47.72633" lon="5.09679">
        <ele>433.79</ele>
        <time>2022-05-05T08:37:07Z</time>
      </trkpt>
      <trkpt lat="47.72634" lon="5.09683">
        <ele>433.05</ele>
        <time>2022-05-05T08:37:13Z</time>
      </trkpt>
      <trkpt lat="47.72636" lon="5.09687">
        <ele>432.37</ele>
        <time>2022-05-05T08:37:15Z</time>
      </trkpt>
      <trkpt lat="47.72638" lon="5.0969">
        <ele>431.89</ele>
        <time>2022-05-05T08:37:19Z</time>
      </trkpt>
      <trkpt lat="47.72641" lon="5.09692">
        <ele>431.67</ele>
        <time>2022-05-05T08:37:23Z</time>
      </trkpt>
      <trkpt lat="47.72644" lon="5.09694">
        <ele>431.46</ele>
        <time>2022-05-05T08:37:26Z</time>
      </trkpt>
      <trkpt lat="47.72646" lon="5.09697">
        <ele>431.17</ele>
        <time>2022-05-05T08:37:31Z</time>
      </trkpt>
      <trkpt lat="47.72648" lon="5.097">
        <ele>430.92</ele>
        <time>2022-05-05T08:37:42Z</time>
      </trkpt>
      <trkpt lat="47.72649" lon="5.09704">
        <ele>430.48</ele>
        <time>2022-05-05T08:37:53Z</time>
      </trkpt>
      <trkpt lat="47.72652" lon="5.09701">
        <ele>431.11</ele>
        <time>2022-05-05T08:38:01Z</time>
      </trkpt>
      <trkpt lat="47.72655" lon="5.09699">
        <ele>431.6</ele>
        <time>2022-05-05T08:38:02Z</time>
      </trkpt>
      <trkpt lat="47.72657" lon="5.09697">
        <ele>432</ele>
        <time>2022-05-05T08:38:06Z</time>
      </trkpt>
      <trkpt lat="47.7266" lon="5.09694">
        <ele>432.6</ele>
        <time>2022-05-05T08:38:08Z</time>
      </trkpt>
      <trkpt lat="47.72662" lon="5.09692">
        <ele>433.12</ele>
        <time>2022-05-05T08:38:12Z</time>
      </trkpt>
      <trkpt lat="47.72665" lon="5.09693">
        <ele>433.14</ele>
        <time>2022-05-05T08:38:18Z</time>
      </trkpt>
      <trkpt lat="47.72668" lon="5.09695">
        <ele>433.04</ele>
        <time>2022-05-05T08:38:22Z</time>
      </trkpt>
      <trkpt lat="47.72671" lon="5.09696">
        <ele>433.15</ele>
        <time>2022-05-05T08:38:25Z</time>
      </trkpt>
      <trkpt lat="47.72674" lon="5.09697">
        <ele>433.28</ele>
        <time>2022-05-05T08:38:28Z</time>
      </trkpt>
      <trkpt lat="47.72677" lon="5.09699">
        <ele>433.31</ele>
        <time>2022-05-05T08:38:32Z</time>
      </trkpt>
      <trkpt lat="47.72679" lon="5.097">
        <ele>433.38</ele>
        <time>2022-05-05T08:38:35Z</time>
      </trkpt>
      <trkpt lat="47.72683" lon="5.09699">
        <ele>433.78</ele>
        <time>2022-05-05T08:38:39Z</time>
      </trkpt>
      <trkpt lat="47.72685" lon="5.09699">
        <ele>433.94</ele>
        <time>2022-05-05T08:38:40Z</time>
      </trkpt>
      <trkpt lat="47.72689" lon="5.097">
        <ele>434.17</ele>
        <time>2022-05-05T08:38:44Z</time>
      </trkpt>
      <trkpt lat="47.72692" lon="5.097">
        <ele>434.41</ele>
        <time>2022-05-05T08:38:45Z</time>
      </trkpt>
      <trkpt lat="47.72695" lon="5.097">
        <ele>434.64</ele>
        <time>2022-05-05T08:38:49Z</time>
      </trkpt>
      <trkpt lat="47.72698" lon="5.09701">
        <ele>434.78</ele>
        <time>2022-05-05T08:38:53Z</time>
      </trkpt>
      <trkpt lat="47.72701" lon="5.09702">
        <ele>434.93</ele>
        <time>2022-05-05T08:38:55Z</time>
      </trkpt>
      <trkpt lat="47.72704" lon="5.09703">
        <ele>435.07</ele>
        <time>2022-05-05T08:38:58Z</time>
      </trkpt>
      <trkpt lat="47.72707" lon="5.09704">
        <ele>435.22</ele>
        <time>2022-05-05T08:38:59Z</time>
      </trkpt>
      <trkpt lat="47.72709" lon="5.09705">
        <ele>435.29</ele>
        <time>2022-05-05T08:39:02Z</time>
      </trkpt>
      <trkpt lat="47.72712" lon="5.09706">
        <ele>435.43</ele>
        <time>2022-05-05T08:39:04Z</time>
      </trkpt>
      <trkpt lat="47.72715" lon="5.09707">
        <ele>435.58</ele>
        <time>2022-05-05T08:39:07Z</time>
      </trkpt>
      <trkpt lat="47.72718" lon="5.09708">
        <ele>435.72</ele>
        <time>2022-05-05T08:39:10Z</time>
      </trkpt>
      <trkpt lat="47.72721" lon="5.09708">
        <ele>435.94</ele>
        <time>2022-05-05T08:39:13Z</time>
      </trkpt>
      <trkpt lat="47.72724" lon="5.09709">
        <ele>435.57</ele>
        <time>2022-05-05T08:39:16Z</time>
      </trkpt>
      <trkpt lat="47.72727" lon="5.0971">
        <ele>434.85</ele>
        <time>2022-05-05T08:39:18Z</time>
      </trkpt>
      <trkpt lat="47.7273" lon="5.09711">
        <ele>434.13</ele>
        <time>2022-05-05T08:39:21Z</time>
      </trkpt>
      <trkpt lat="47.72733" lon="5.09711">
        <ele>433.48</ele>
        <time>2022-05-05T08:39:23Z</time>
      </trkpt>
      <trkpt lat="47.72736" lon="5.09711">
        <ele>432.83</ele>
        <time>2022-05-05T08:39:26Z</time>
      </trkpt>
      <trkpt lat="47.72739" lon="5.09711">
        <ele>432.18</ele>
        <time>2022-05-05T08:39:30Z</time>
      </trkpt>
      <trkpt lat="47.72742" lon="5.0971">
        <ele>431.61</ele>
        <time>2022-05-05T08:39:32Z</time>
      </trkpt>
      <trkpt lat="47.72745" lon="5.09708">
        <ele>431.1</ele>
        <time>2022-05-05T08:39:34Z</time>
      </trkpt>
      <trkpt lat="47.72748" lon="5.09707">
        <ele>430.53</ele>
        <time>2022-05-05T08:39:36Z</time>
      </trkpt>
      <trkpt lat="47.72751" lon="5.09705">
        <ele>430.08</ele>
        <time>2022-05-05T08:39:40Z</time>
      </trkpt>
      <trkpt lat="47.72754" lon="5.09703">
        <ele>429.76</ele>
        <time>2022-05-05T08:39:42Z</time>
      </trkpt>
      <trkpt lat="47.72757" lon="5.09701">
        <ele>429.46</ele>
        <time>2022-05-05T08:39:45Z</time>
      </trkpt>
      <trkpt lat="47.72759" lon="5.09701">
        <ele>429.16</ele>
        <time>2022-05-05T08:39:47Z</time>
      </trkpt>
      <trkpt lat="47.72762" lon="5.097">
        <ele>428.79</ele>
        <time>2022-05-05T08:39:50Z</time>
      </trkpt>
      <trkpt lat="47.72765" lon="5.09699">
        <ele>428.42</ele>
        <time>2022-05-05T08:39:53Z</time>
      </trkpt>
      <trkpt lat="47.72768" lon="5.09699">
        <ele>427.97</ele>
        <time>2022-05-05T08:39:58Z</time>
      </trkpt>
      <trkpt lat="47.72771" lon="5.09699">
        <ele>427.52</ele>
        <time>2022-05-05T08:40:03Z</time>
      </trkpt>
      <trkpt lat="47.72774" lon="5.09699">
        <ele>427.07</ele>
        <time>2022-05-05T08:40:07Z</time>
      </trkpt>
      <trkpt lat="47.72777" lon="5.09698">
        <ele>426.73</ele>
        <time>2022-05-05T08:40:10Z</time>
      </trkpt>
      <trkpt lat="47.7278" lon="5.09697">
        <ele>426.38</ele>
        <time>2022-05-05T08:40:15Z</time>
      </trkpt>
      <trkpt lat="47.72782" lon="5.09695">
        <ele>426.32</ele>
        <time>2022-05-05T08:40:18Z</time>
      </trkpt>
      <trkpt lat="47.72785" lon="5.09694">
        <ele>426</ele>
        <time>2022-05-05T08:40:22Z</time>
      </trkpt>
      <trkpt lat="47.72787" lon="5.09692">
        <ele>425.88</ele>
        <time>2022-05-05T08:40:23Z</time>
      </trkpt>
      <trkpt lat="47.72791" lon="5.0969">
        <ele>425.42</ele>
        <time>2022-05-05T08:40:27Z</time>
      </trkpt>
      <trkpt lat="47.72793" lon="5.09688">
        <ele>425.25</ele>
        <time>2022-05-05T08:40:28Z</time>
      </trkpt>
      <trkpt lat="47.72796" lon="5.09686">
        <ele>424.89</ele>
        <time>2022-05-05T08:40:31Z</time>
      </trkpt>
      <trkpt lat="47.72798" lon="5.09684">
        <ele>424.67</ele>
        <time>2022-05-05T08:40:36Z</time>
      </trkpt>
      <trkpt lat="47.72801" lon="5.09682">
        <ele>424.25</ele>
        <time>2022-05-05T08:40:38Z</time>
      </trkpt>
      <trkpt lat="47.72804" lon="5.09681">
        <ele>423.76</ele>
        <time>2022-05-05T08:40:42Z</time>
      </trkpt>
      <trkpt lat="47.72807" lon="5.09681">
        <ele>423.25</ele>
        <time>2022-05-05T08:40:46Z</time>
      </trkpt>
      <trkpt lat="47.7281" lon="5.0968">
        <ele>422.8</ele>
        <time>2022-05-05T08:40:48Z</time>
      </trkpt>
      <trkpt lat="47.72813" lon="5.09678">
        <ele>422.41</ele>
        <time>2022-05-05T08:40:53Z</time>
      </trkpt>
      <trkpt lat="47.72815" lon="5.09676">
        <ele>422.19</ele>
        <time>2022-05-05T08:40:57Z</time>
      </trkpt>
      <trkpt lat="47.72817" lon="5.09674">
        <ele>421.98</ele>
        <time>2022-05-05T08:41:00Z</time>
      </trkpt>
      <trkpt lat="47.7282" lon="5.09671">
        <ele>421.68</ele>
        <time>2022-05-05T08:41:04Z</time>
      </trkpt>
      <trkpt lat="47.72823" lon="5.09668">
        <ele>421.41</ele>
        <time>2022-05-05T08:41:09Z</time>
      </trkpt>
      <trkpt lat="47.72826" lon="5.09667">
        <ele>421.04</ele>
        <time>2022-05-05T08:41:11Z</time>
      </trkpt>
      <trkpt lat="47.72829" lon="5.09666">
        <ele>420.64</ele>
        <time>2022-05-05T08:41:16Z</time>
      </trkpt>
      <trkpt lat="47.72832" lon="5.09664">
        <ele>420.21</ele>
        <time>2022-05-05T08:41:19Z</time>
      </trkpt>
      <trkpt lat="47.72835" lon="5.09664">
        <ele>419.72</ele>
        <time>2022-05-05T08:41:23Z</time>
      </trkpt>
      <trkpt lat="47.72838" lon="5.09663">
        <ele>419.25</ele>
        <time>2022-05-05T08:41:29Z</time>
      </trkpt>
      <trkpt lat="47.72841" lon="5.09661">
        <ele>418.85</ele>
        <time>2022-05-05T08:41:33Z</time>
      </trkpt>
      <trkpt lat="47.72844" lon="5.09661">
        <ele>418.39</ele>
        <time>2022-05-05T08:41:37Z</time>
      </trkpt>
      <trkpt lat="47.72847" lon="5.09659">
        <ele>418.08</ele>
        <time>2022-05-05T08:41:40Z</time>
      </trkpt>
      <trkpt lat="47.7285" lon="5.09658">
        <ele>417.75</ele>
        <time>2022-05-05T08:41:43Z</time>
      </trkpt>
      <trkpt lat="47.72853" lon="5.09657">
        <ele>417.45</ele>
        <time>2022-05-05T08:41:47Z</time>
      </trkpt>
      <trkpt lat="47.72856" lon="5.09657">
        <ele>417.06</ele>
        <time>2022-05-05T08:41:51Z</time>
      </trkpt>
      <trkpt lat="47.72858" lon="5.09657">
        <ele>416.8</ele>
        <time>2022-05-05T08:41:55Z</time>
      </trkpt>
      <trkpt lat="47.72861" lon="5.09657">
        <ele>416.41</ele>
        <time>2022-05-05T08:41:58Z</time>
      </trkpt>
      <trkpt lat="47.72864" lon="5.09656">
        <ele>416.08</ele>
        <time>2022-05-05T08:42:03Z</time>
      </trkpt>
      <trkpt lat="47.72867" lon="5.09656">
        <ele>415.61</ele>
        <time>2022-05-05T08:42:08Z</time>
      </trkpt>
      <trkpt lat="47.7287" lon="5.09655">
        <ele>415.27</ele>
        <time>2022-05-05T08:42:13Z</time>
      </trkpt>
      <trkpt lat="47.72873" lon="5.09654">
        <ele>414.92</ele>
        <time>2022-05-05T08:42:15Z</time>
      </trkpt>
      <trkpt lat="47.72876" lon="5.09652">
        <ele>414.68</ele>
        <time>2022-05-05T08:42:20Z</time>
      </trkpt>
      <trkpt lat="47.72878" lon="5.0965">
        <ele>414.6</ele>
        <time>2022-05-05T08:42:23Z</time>
      </trkpt>
      <trkpt lat="47.72881" lon="5.0965">
        <ele>414.11</ele>
        <time>2022-05-05T08:42:30Z</time>
      </trkpt>
      <trkpt lat="47.72884" lon="5.09648">
        <ele>413.84</ele>
        <time>2022-05-05T08:42:33Z</time>
      </trkpt>
      <trkpt lat="47.72887" lon="5.09646">
        <ele>413.55</ele>
        <time>2022-05-05T08:42:38Z</time>
      </trkpt>
      <trkpt lat="47.7289" lon="5.09645">
        <ele>413.09</ele>
        <time>2022-05-05T08:42:44Z</time>
      </trkpt>
      <trkpt lat="47.72892" lon="5.09643">
        <ele>412.87</ele>
        <time>2022-05-05T08:42:49Z</time>
      </trkpt>
      <trkpt lat="47.72895" lon="5.0964">
        <ele>412.55</ele>
        <time>2022-05-05T08:42:53Z</time>
      </trkpt>
      <trkpt lat="47.72898" lon="5.09638">
        <ele>412.09</ele>
        <time>2022-05-05T08:42:56Z</time>
      </trkpt>
      <trkpt lat="47.72901" lon="5.09636">
        <ele>411.55</ele>
        <time>2022-05-05T08:43:01Z</time>
      </trkpt>
      <trkpt lat="47.72904" lon="5.09634">
        <ele>410.99</ele>
        <time>2022-05-05T08:43:04Z</time>
      </trkpt>
      <trkpt lat="47.72906" lon="5.09631">
        <ele>410.7</ele>
        <time>2022-05-05T08:43:10Z</time>
      </trkpt>
      <trkpt lat="47.72908" lon="5.09628">
        <ele>410.39</ele>
        <time>2022-05-05T08:43:14Z</time>
      </trkpt>
      <trkpt lat="47.72909" lon="5.09625">
        <ele>410.29</ele>
        <time>2022-05-05T08:43:21Z</time>
      </trkpt>
      <trkpt lat="47.72912" lon="5.09625">
        <ele>409.59</ele>
        <time>2022-05-05T08:43:28Z</time>
      </trkpt>
      <trkpt lat="47.72915" lon="5.09623">
        <ele>408.97</ele>
        <time>2022-05-05T08:43:31Z</time>
      </trkpt>
      <trkpt lat="47.72917" lon="5.0962">
        <ele>408.6</ele>
        <time>2022-05-05T08:43:33Z</time>
      </trkpt>
      <trkpt lat="47.72919" lon="5.09617">
        <ele>408.25</ele>
        <time>2022-05-05T08:43:35Z</time>
      </trkpt>
      <trkpt lat="47.72921" lon="5.09615">
        <ele>407.88</ele>
        <time>2022-05-05T08:43:38Z</time>
      </trkpt>
      <trkpt lat="47.72924" lon="5.09613">
        <ele>407.31</ele>
        <time>2022-05-05T08:43:41Z</time>
      </trkpt>
      <trkpt lat="47.72927" lon="5.09612">
        <ele>406.71</ele>
        <time>2022-05-05T08:43:43Z</time>
      </trkpt>
      <trkpt lat="47.7293" lon="5.0961">
        <ele>406.16</ele>
        <time>2022-05-05T08:43:46Z</time>
      </trkpt>
      <trkpt lat="47.72932" lon="5.09608">
        <ele>405.8</ele>
        <time>2022-05-05T08:43:51Z</time>
      </trkpt>
      <trkpt lat="47.72934" lon="5.09605">
        <ele>405.48</ele>
        <time>2022-05-05T08:44:00Z</time>
      </trkpt>
      <trkpt lat="47.72936" lon="5.09607">
        <ele>404.97</ele>
        <time>2022-05-05T08:44:44Z</time>
      </trkpt>
      <trkpt lat="47.72939" lon="5.09608">
        <ele>404.29</ele>
        <time>2022-05-05T08:44:50Z</time>
      </trkpt>
      <trkpt lat="47.72942" lon="5.09608">
        <ele>403.64</ele>
        <time>2022-05-05T08:45:01Z</time>
      </trkpt>
      <trkpt lat="47.72943" lon="5.09605">
        <ele>403.53</ele>
        <time>2022-05-05T08:45:09Z</time>
      </trkpt>
      <trkpt lat="47.72945" lon="5.09602">
        <ele>403.19</ele>
        <time>2022-05-05T08:45:14Z</time>
      </trkpt>
      <trkpt lat="47.72948" lon="5.09599">
        <ele>402.54</ele>
        <time>2022-05-05T08:45:19Z</time>
      </trkpt>
      <trkpt lat="47.7295" lon="5.09596">
        <ele>402.14</ele>
        <time>2022-05-05T08:45:23Z</time>
      </trkpt>
      <trkpt lat="47.72951" lon="5.09593">
        <ele>402</ele>
        <time>2022-05-05T08:45:28Z</time>
      </trkpt>
      <trkpt lat="47.72954" lon="5.09589">
        <ele>401.39</ele>
        <time>2022-05-05T08:45:32Z</time>
      </trkpt>
      <trkpt lat="47.72956" lon="5.09586">
        <ele>400.99</ele>
        <time>2022-05-05T08:45:36Z</time>
      </trkpt>
      <trkpt lat="47.72958" lon="5.09582">
        <ele>400.56</ele>
        <time>2022-05-05T08:45:39Z</time>
      </trkpt>
      <trkpt lat="47.7296" lon="5.09579">
        <ele>400.01</ele>
        <time>2022-05-05T08:45:41Z</time>
      </trkpt>
      <trkpt lat="47.72962" lon="5.09576">
        <ele>399.48</ele>
        <time>2022-05-05T08:45:44Z</time>
      </trkpt>
      <trkpt lat="47.72964" lon="5.09573">
        <ele>398.96</ele>
        <time>2022-05-05T08:45:49Z</time>
      </trkpt>
      <trkpt lat="47.72966" lon="5.0957">
        <ele>398.46</ele>
        <time>2022-05-05T08:45:52Z</time>
      </trkpt>
      <trkpt lat="47.72969" lon="5.09568">
        <ele>397.75</ele>
        <time>2022-05-05T08:46:01Z</time>
      </trkpt>
      <trkpt lat="47.72971" lon="5.09566">
        <ele>397.28</ele>
        <time>2022-05-05T08:46:16Z</time>
      </trkpt>
      <trkpt lat="47.72969" lon="5.09568">
        <ele>397.75</ele>
        <time>2022-05-05T08:47:13Z</time>
      </trkpt>
      <trkpt lat="47.72967" lon="5.09572">
        <ele>398.24</ele>
        <time>2022-05-05T08:47:18Z</time>
      </trkpt>
      <trkpt lat="47.72969" lon="5.09569">
        <ele>397.75</ele>
        <time>2022-05-05T08:48:05Z</time>
      </trkpt>
      <trkpt lat="47.72972" lon="5.09567">
        <ele>397.05</ele>
        <time>2022-05-05T08:48:07Z</time>
      </trkpt>
      <trkpt lat="47.72975" lon="5.09567">
        <ele>396.5</ele>
        <time>2022-05-05T08:48:11Z</time>
      </trkpt>
      <trkpt lat="47.72978" lon="5.09568">
        <ele>395.96</ele>
        <time>2022-05-05T08:48:14Z</time>
      </trkpt>
      <trkpt lat="47.72981" lon="5.0957">
        <ele>395.42</ele>
        <time>2022-05-05T08:48:15Z</time>
      </trkpt>
      <trkpt lat="47.72984" lon="5.09573">
        <ele>394.88</ele>
        <time>2022-05-05T08:48:18Z</time>
      </trkpt>
      <trkpt lat="47.72987" lon="5.09576">
        <ele>394.34</ele>
        <time>2022-05-05T08:48:22Z</time>
      </trkpt>
      <trkpt lat="47.72989" lon="5.09579">
        <ele>393.98</ele>
        <time>2022-05-05T08:48:23Z</time>
      </trkpt>
      <trkpt lat="47.72991" lon="5.09582">
        <ele>393.62</ele>
        <time>2022-05-05T08:48:25Z</time>
      </trkpt>
      <trkpt lat="47.72993" lon="5.09585">
        <ele>393.24</ele>
        <time>2022-05-05T08:48:28Z</time>
      </trkpt>
      <trkpt lat="47.72996" lon="5.09588">
        <ele>392.7</ele>
        <time>2022-05-05T08:48:31Z</time>
      </trkpt>
      <trkpt lat="47.72999" lon="5.0959">
        <ele>392.17</ele>
        <time>2022-05-05T08:48:33Z</time>
      </trkpt>
      <trkpt lat="47.73002" lon="5.09593">
        <ele>391.86</ele>
        <time>2022-05-05T08:48:36Z</time>
      </trkpt>
      <trkpt lat="47.73004" lon="5.09595">
        <ele>391.71</ele>
        <time>2022-05-05T08:48:37Z</time>
      </trkpt>
      <trkpt lat="47.73007" lon="5.09596">
        <ele>391.5</ele>
        <time>2022-05-05T08:48:40Z</time>
      </trkpt>
      <trkpt lat="47.7301" lon="5.09598">
        <ele>391.28</ele>
        <time>2022-05-05T08:48:43Z</time>
      </trkpt>
      <trkpt lat="47.73013" lon="5.096">
        <ele>391.06</ele>
        <time>2022-05-05T08:48:45Z</time>
      </trkpt>
      <trkpt lat="47.73016" lon="5.09601">
        <ele>390.85</ele>
        <time>2022-05-05T08:48:48Z</time>
      </trkpt>
      <trkpt lat="47.73018" lon="5.09603">
        <ele>390.7</ele>
        <time>2022-05-05T08:48:50Z</time>
      </trkpt>
      <trkpt lat="47.73021" lon="5.09604">
        <ele>390.49</ele>
        <time>2022-05-05T08:48:53Z</time>
      </trkpt>
      <trkpt lat="47.73024" lon="5.09605">
        <ele>390.27</ele>
        <time>2022-05-05T08:48:55Z</time>
      </trkpt>
      <trkpt lat="47.73028" lon="5.09606">
        <ele>390.01</ele>
        <time>2022-05-05T08:48:59Z</time>
      </trkpt>
      <trkpt lat="47.73031" lon="5.09607">
        <ele>390.15</ele>
        <time>2022-05-05T08:49:01Z</time>
      </trkpt>
      <trkpt lat="47.73034" lon="5.09608">
        <ele>390.32</ele>
        <time>2022-05-05T08:49:03Z</time>
      </trkpt>
      <trkpt lat="47.73037" lon="5.0961">
        <ele>390.6</ele>
        <time>2022-05-05T08:49:06Z</time>
      </trkpt>
      <trkpt lat="47.7304" lon="5.09611">
        <ele>390.87</ele>
        <time>2022-05-05T08:49:08Z</time>
      </trkpt>
      <trkpt lat="47.73042" lon="5.09611">
        <ele>391.01</ele>
        <time>2022-05-05T08:49:11Z</time>
      </trkpt>
      <trkpt lat="47.73045" lon="5.09612">
        <ele>391.34</ele>
        <time>2022-05-05T08:49:13Z</time>
      </trkpt>
      <trkpt lat="47.73048" lon="5.09612">
        <ele>391.55</ele>
        <time>2022-05-05T08:49:17Z</time>
      </trkpt>
      <trkpt lat="47.73051" lon="5.09613">
        <ele>391.88</ele>
        <time>2022-05-05T08:49:19Z</time>
      </trkpt>
      <trkpt lat="47.73054" lon="5.09613">
        <ele>392.09</ele>
        <time>2022-05-05T08:49:22Z</time>
      </trkpt>
      <trkpt lat="47.73057" lon="5.09614">
        <ele>392.36</ele>
        <time>2022-05-05T08:49:24Z</time>
      </trkpt>
      <trkpt lat="47.7306" lon="5.09615">
        <ele>392.58</ele>
        <time>2022-05-05T08:49:26Z</time>
      </trkpt>
      <trkpt lat="47.73063" lon="5.09615">
        <ele>392.69</ele>
        <time>2022-05-05T08:49:29Z</time>
      </trkpt>
      <trkpt lat="47.73065" lon="5.09616">
        <ele>392.87</ele>
        <time>2022-05-05T08:49:32Z</time>
      </trkpt>
      <trkpt lat="47.73068" lon="5.09617">
        <ele>393.08</ele>
        <time>2022-05-05T08:49:34Z</time>
      </trkpt>
      <trkpt lat="47.73071" lon="5.09617">
        <ele>393.19</ele>
        <time>2022-05-05T08:49:36Z</time>
      </trkpt>
      <trkpt lat="47.73075" lon="5.09617">
        <ele>393.34</ele>
        <time>2022-05-05T08:49:39Z</time>
      </trkpt>
      <trkpt lat="47.73077" lon="5.09618">
        <ele>393.52</ele>
        <time>2022-05-05T08:49:41Z</time>
      </trkpt>
      <trkpt lat="47.73081" lon="5.0962">
        <ele>393.88</ele>
        <time>2022-05-05T08:49:45Z</time>
      </trkpt>
      <trkpt lat="47.73084" lon="5.09621">
        <ele>394.25</ele>
        <time>2022-05-05T08:49:47Z</time>
      </trkpt>
      <trkpt lat="47.73087" lon="5.09621">
        <ele>395.09</ele>
        <time>2022-05-05T08:49:50Z</time>
      </trkpt>
      <trkpt lat="47.7309" lon="5.09622">
        <ele>396.04</ele>
        <time>2022-05-05T08:49:52Z</time>
      </trkpt>
      <trkpt lat="47.73093" lon="5.09622">
        <ele>396.88</ele>
        <time>2022-05-05T08:49:54Z</time>
      </trkpt>
      <trkpt lat="47.73096" lon="5.09623">
        <ele>397.87</ele>
        <time>2022-05-05T08:49:57Z</time>
      </trkpt>
      <trkpt lat="47.73099" lon="5.09624">
        <ele>398.86</ele>
        <time>2022-05-05T08:50:01Z</time>
      </trkpt>
      <trkpt lat="47.73102" lon="5.09624">
        <ele>399.72</ele>
        <time>2022-05-05T08:50:04Z</time>
      </trkpt>
      <trkpt lat="47.73105" lon="5.09624">
        <ele>400.58</ele>
        <time>2022-05-05T08:50:07Z</time>
      </trkpt>
      <trkpt lat="47.73108" lon="5.09624">
        <ele>401.43</ele>
        <time>2022-05-05T08:50:09Z</time>
      </trkpt>
      <trkpt lat="47.73111" lon="5.09625">
        <ele>402.47</ele>
        <time>2022-05-05T08:50:13Z</time>
      </trkpt>
      <trkpt lat="47.73114" lon="5.09625">
        <ele>402.76</ele>
        <time>2022-05-05T08:50:16Z</time>
      </trkpt>
      <trkpt lat="47.73117" lon="5.09625">
        <ele>403.03</ele>
        <time>2022-05-05T08:50:20Z</time>
      </trkpt>
      <trkpt lat="47.7312" lon="5.09624">
        <ele>403.13</ele>
        <time>2022-05-05T08:50:22Z</time>
      </trkpt>
      <trkpt lat="47.73123" lon="5.09624">
        <ele>403.41</ele>
        <time>2022-05-05T08:50:26Z</time>
      </trkpt>
      <trkpt lat="47.73126" lon="5.09623">
        <ele>403.52</ele>
        <time>2022-05-05T08:50:30Z</time>
      </trkpt>
      <trkpt lat="47.73129" lon="5.09622">
        <ele>403.64</ele>
        <time>2022-05-05T08:50:32Z</time>
      </trkpt>
      <trkpt lat="47.73132" lon="5.09622">
        <ele>403.92</ele>
        <time>2022-05-05T08:50:36Z</time>
      </trkpt>
      <trkpt lat="47.73135" lon="5.09622">
        <ele>404.2</ele>
        <time>2022-05-05T08:50:38Z</time>
      </trkpt>
      <trkpt lat="47.73138" lon="5.09621">
        <ele>404.34</ele>
        <time>2022-05-05T08:50:42Z</time>
      </trkpt>
      <trkpt lat="47.73141" lon="5.0962">
        <ele>404.66</ele>
        <time>2022-05-05T08:50:45Z</time>
      </trkpt>
      <trkpt lat="47.73144" lon="5.0962">
        <ele>405.19</ele>
        <time>2022-05-05T08:50:48Z</time>
      </trkpt>
      <trkpt lat="47.73146" lon="5.09619">
        <ele>405.38</ele>
        <time>2022-05-05T08:50:50Z</time>
      </trkpt>
      <trkpt lat="47.73149" lon="5.09618">
        <ele>405.72</ele>
        <time>2022-05-05T08:50:53Z</time>
      </trkpt>
      <trkpt lat="47.73152" lon="5.09617">
        <ele>406.04</ele>
        <time>2022-05-05T08:50:56Z</time>
      </trkpt>
      <trkpt lat="47.73155" lon="5.09615">
        <ele>406.12</ele>
        <time>2022-05-05T08:50:58Z</time>
      </trkpt>
      <trkpt lat="47.73158" lon="5.09614">
        <ele>406.38</ele>
        <time>2022-05-05T08:51:02Z</time>
      </trkpt>
      <trkpt lat="47.73161" lon="5.09613">
        <ele>406.62</ele>
        <time>2022-05-05T08:51:04Z</time>
      </trkpt>
      <trkpt lat="47.73164" lon="5.09612">
        <ele>406.83</ele>
        <time>2022-05-05T08:51:06Z</time>
      </trkpt>
      <trkpt lat="47.73167" lon="5.0961">
        <ele>406.81</ele>
        <time>2022-05-05T08:51:09Z</time>
      </trkpt>
      <trkpt lat="47.73171" lon="5.09608">
        <ele>406.99</ele>
        <time>2022-05-05T08:51:13Z</time>
      </trkpt>
      <trkpt lat="47.73174" lon="5.09606">
        <ele>407.05</ele>
        <time>2022-05-05T08:51:15Z</time>
      </trkpt>
      <trkpt lat="47.73177" lon="5.09604">
        <ele>407.14</ele>
        <time>2022-05-05T08:51:19Z</time>
      </trkpt>
      <trkpt lat="47.7318" lon="5.09602">
        <ele>407.27</ele>
        <time>2022-05-05T08:51:21Z</time>
      </trkpt>
      <trkpt lat="47.73183" lon="5.09601">
        <ele>407.6</ele>
        <time>2022-05-05T08:51:24Z</time>
      </trkpt>
      <trkpt lat="47.73186" lon="5.096">
        <ele>407.94</ele>
        <time>2022-05-05T08:51:26Z</time>
      </trkpt>
      <trkpt lat="47.73189" lon="5.09599">
        <ele>408.3</ele>
        <time>2022-05-05T08:51:28Z</time>
      </trkpt>
      <trkpt lat="47.73193" lon="5.09598">
        <ele>408.85</ele>
        <time>2022-05-05T08:51:32Z</time>
      </trkpt>
      <trkpt lat="47.73196" lon="5.09597">
        <ele>409.19</ele>
        <time>2022-05-05T08:51:33Z</time>
      </trkpt>
      <trkpt lat="47.73199" lon="5.09596">
        <ele>409.48</ele>
        <time>2022-05-05T08:51:36Z</time>
      </trkpt>
      <trkpt lat="47.73202" lon="5.09595">
        <ele>409.77</ele>
        <time>2022-05-05T08:51:39Z</time>
      </trkpt>
      <trkpt lat="47.73205" lon="5.09594">
        <ele>410.06</ele>
        <time>2022-05-05T08:51:40Z</time>
      </trkpt>
      <trkpt lat="47.73208" lon="5.09594">
        <ele>410.49</ele>
        <time>2022-05-05T08:51:44Z</time>
      </trkpt>
      <trkpt lat="47.73211" lon="5.09593">
        <ele>410.78</ele>
        <time>2022-05-05T08:51:45Z</time>
      </trkpt>
      <trkpt lat="47.73215" lon="5.09592">
        <ele>411.21</ele>
        <time>2022-05-05T08:51:49Z</time>
      </trkpt>
      <trkpt lat="47.73218" lon="5.09592">
        <ele>411.64</ele>
        <time>2022-05-05T08:51:50Z</time>
      </trkpt>
      <trkpt lat="47.73222" lon="5.09591">
        <ele>412.07</ele>
        <time>2022-05-05T08:51:54Z</time>
      </trkpt>
      <trkpt lat="47.73224" lon="5.0959">
        <ele>412.34</ele>
        <time>2022-05-05T08:51:56Z</time>
      </trkpt>
      <trkpt lat="47.73227" lon="5.09589">
        <ele>412.85</ele>
        <time>2022-05-05T08:51:57Z</time>
      </trkpt>
      <trkpt lat="47.7323" lon="5.09589">
        <ele>413.5</ele>
        <time>2022-05-05T08:52:01Z</time>
      </trkpt>
      <trkpt lat="47.73233" lon="5.09588">
        <ele>414</ele>
        <time>2022-05-05T08:52:03Z</time>
      </trkpt>
      <trkpt lat="47.73236" lon="5.09587">
        <ele>414.5</ele>
        <time>2022-05-05T08:52:05Z</time>
      </trkpt>
      <trkpt lat="47.73239" lon="5.09587">
        <ele>415.15</ele>
        <time>2022-05-05T08:52:08Z</time>
      </trkpt>
      <trkpt lat="47.73242" lon="5.09586">
        <ele>415.66</ele>
        <time>2022-05-05T08:52:11Z</time>
      </trkpt>
      <trkpt lat="47.73246" lon="5.09585">
        <ele>416.38</ele>
        <time>2022-05-05T08:52:15Z</time>
      </trkpt>
      <trkpt lat="47.73248" lon="5.09584">
        <ele>416.66</ele>
        <time>2022-05-05T08:52:17Z</time>
      </trkpt>
      <trkpt lat="47.73252" lon="5.09582">
        <ele>416.81</ele>
        <time>2022-05-05T08:52:21Z</time>
      </trkpt>
      <trkpt lat="47.73255" lon="5.09582">
        <ele>417.04</ele>
        <time>2022-05-05T08:52:24Z</time>
      </trkpt>
      <trkpt lat="47.73258" lon="5.09581">
        <ele>417.04</ele>
        <time>2022-05-05T08:52:27Z</time>
      </trkpt>
      <trkpt lat="47.73262" lon="5.0958">
        <ele>417.13</ele>
        <time>2022-05-05T08:52:30Z</time>
      </trkpt>
      <trkpt lat="47.73264" lon="5.0958">
        <ele>417.29</ele>
        <time>2022-05-05T08:52:32Z</time>
      </trkpt>
      <trkpt lat="47.73268" lon="5.0958">
        <ele>417.61</ele>
        <time>2022-05-05T08:52:35Z</time>
      </trkpt>
      <trkpt lat="47.73271" lon="5.0958">
        <ele>417.85</ele>
        <time>2022-05-05T08:52:38Z</time>
      </trkpt>
      <trkpt lat="47.73273" lon="5.0958">
        <ele>418.01</ele>
        <time>2022-05-05T08:52:40Z</time>
      </trkpt>
      <trkpt lat="47.73276" lon="5.09579">
        <ele>418.07</ele>
        <time>2022-05-05T08:52:44Z</time>
      </trkpt>
      <trkpt lat="47.7328" lon="5.09578">
        <ele>418.07</ele>
        <time>2022-05-05T08:52:47Z</time>
      </trkpt>
      <trkpt lat="47.73283" lon="5.09577">
        <ele>417.95</ele>
        <time>2022-05-05T08:52:51Z</time>
      </trkpt>
      <trkpt lat="47.73286" lon="5.09577">
        <ele>417.99</ele>
        <time>2022-05-05T08:52:55Z</time>
      </trkpt>
      <trkpt lat="47.73289" lon="5.09576">
        <ele>417.89</ele>
        <time>2022-05-05T08:52:57Z</time>
      </trkpt>
      <trkpt lat="47.73292" lon="5.09576">
        <ele>417.95</ele>
        <time>2022-05-05T08:53:01Z</time>
      </trkpt>
      <trkpt lat="47.73295" lon="5.09577">
        <ele>418.14</ele>
        <time>2022-05-05T08:53:03Z</time>
      </trkpt>
      <trkpt lat="47.73298" lon="5.09577">
        <ele>418.19</ele>
        <time>2022-05-05T08:53:07Z</time>
      </trkpt>
      <trkpt lat="47.73301" lon="5.09577">
        <ele>418.24</ele>
        <time>2022-05-05T08:53:11Z</time>
      </trkpt>
      <trkpt lat="47.73304" lon="5.09576">
        <ele>418.18</ele>
        <time>2022-05-05T08:53:14Z</time>
      </trkpt>
      <trkpt lat="47.73307" lon="5.09576">
        <ele>418.42</ele>
        <time>2022-05-05T08:53:17Z</time>
      </trkpt>
      <trkpt lat="47.7331" lon="5.09576">
        <ele>418.86</ele>
        <time>2022-05-05T08:53:22Z</time>
      </trkpt>
      <trkpt lat="47.73313" lon="5.09577">
        <ele>419.36</ele>
        <time>2022-05-05T08:53:25Z</time>
      </trkpt>
      <trkpt lat="47.73316" lon="5.09577">
        <ele>419.79</ele>
        <time>2022-05-05T08:53:28Z</time>
      </trkpt>
      <trkpt lat="47.73319" lon="5.09578">
        <ele>420.25</ele>
        <time>2022-05-05T08:53:30Z</time>
      </trkpt>
      <trkpt lat="47.73322" lon="5.09579">
        <ele>420.68</ele>
        <time>2022-05-05T08:53:33Z</time>
      </trkpt>
      <trkpt lat="47.73325" lon="5.09579">
        <ele>421.07</ele>
        <time>2022-05-05T08:53:36Z</time>
      </trkpt>
      <trkpt lat="47.73328" lon="5.0958">
        <ele>421.45</ele>
        <time>2022-05-05T08:53:38Z</time>
      </trkpt>
      <trkpt lat="47.73331" lon="5.09581">
        <ele>421.8</ele>
        <time>2022-05-05T08:53:42Z</time>
      </trkpt>
      <trkpt lat="47.73334" lon="5.09582">
        <ele>422.14</ele>
        <time>2022-05-05T08:53:44Z</time>
      </trkpt>
      <trkpt lat="47.73337" lon="5.09583">
        <ele>422.54</ele>
        <time>2022-05-05T08:53:48Z</time>
      </trkpt>
      <trkpt lat="47.7334" lon="5.09584">
        <ele>423.01</ele>
        <time>2022-05-05T08:53:51Z</time>
      </trkpt>
      <trkpt lat="47.73343" lon="5.09584">
        <ele>423.44</ele>
        <time>2022-05-05T08:53:53Z</time>
      </trkpt>
      <trkpt lat="47.73346" lon="5.09584">
        <ele>423.87</ele>
        <time>2022-05-05T08:53:57Z</time>
      </trkpt>
      <trkpt lat="47.7335" lon="5.09585">
        <ele>424.52</ele>
        <time>2022-05-05T08:54:00Z</time>
      </trkpt>
      <trkpt lat="47.73353" lon="5.09585">
        <ele>424.95</ele>
        <time>2022-05-05T08:54:03Z</time>
      </trkpt>
      <trkpt lat="47.73356" lon="5.09586">
        <ele>425.46</ele>
        <time>2022-05-05T08:54:07Z</time>
      </trkpt>
      <trkpt lat="47.73358" lon="5.09586">
        <ele>425.74</ele>
        <time>2022-05-05T08:54:09Z</time>
      </trkpt>
      <trkpt lat="47.73362" lon="5.09587">
        <ele>426.33</ele>
        <time>2022-05-05T08:54:13Z</time>
      </trkpt>
      <trkpt lat="47.73364" lon="5.09588">
        <ele>426.56</ele>
        <time>2022-05-05T08:54:15Z</time>
      </trkpt>
      <trkpt lat="47.73367" lon="5.09589">
        <ele>426.88</ele>
        <time>2022-05-05T08:54:17Z</time>
      </trkpt>
      <trkpt lat="47.7337" lon="5.0959">
        <ele>427.2</ele>
        <time>2022-05-05T08:54:20Z</time>
      </trkpt>
      <trkpt lat="47.73373" lon="5.09592">
        <ele>427.61</ele>
        <time>2022-05-05T08:54:23Z</time>
      </trkpt>
      <trkpt lat="47.73376" lon="5.09594">
        <ele>428.05</ele>
        <time>2022-05-05T08:54:26Z</time>
      </trkpt>
      <trkpt lat="47.73378" lon="5.09595">
        <ele>428.31</ele>
        <time>2022-05-05T08:54:29Z</time>
      </trkpt>
      <trkpt lat="47.73381" lon="5.09594">
        <ele>428.47</ele>
        <time>2022-05-05T08:54:32Z</time>
      </trkpt>
      <trkpt lat="47.73384" lon="5.09595">
        <ele>428.83</ele>
        <time>2022-05-05T08:54:35Z</time>
      </trkpt>
      <trkpt lat="47.73388" lon="5.09596">
        <ele>429.29</ele>
        <time>2022-05-05T08:54:39Z</time>
      </trkpt>
      <trkpt lat="47.73391" lon="5.09597">
        <ele>429.59</ele>
        <time>2022-05-05T08:54:41Z</time>
      </trkpt>
      <trkpt lat="47.73394" lon="5.09599">
        <ele>429.98</ele>
        <time>2022-05-05T08:54:45Z</time>
      </trkpt>
      <trkpt lat="47.73397" lon="5.09599">
        <ele>430.15</ele>
        <time>2022-05-05T08:54:49Z</time>
      </trkpt>
      <trkpt lat="47.734" lon="5.09601">
        <ele>430.56</ele>
        <time>2022-05-05T08:55:04Z</time>
      </trkpt>
      <trkpt lat="47.73403" lon="5.09602">
        <ele>430.87</ele>
        <time>2022-05-05T08:55:07Z</time>
      </trkpt>
      <trkpt lat="47.73406" lon="5.09603">
        <ele>431.18</ele>
        <time>2022-05-05T08:55:09Z</time>
      </trkpt>
      <trkpt lat="47.73409" lon="5.09604">
        <ele>431.49</ele>
        <time>2022-05-05T08:55:12Z</time>
      </trkpt>
      <trkpt lat="47.73412" lon="5.09605">
        <ele>431.82</ele>
        <time>2022-05-05T08:55:16Z</time>
      </trkpt>
      <trkpt lat="47.73415" lon="5.09606">
        <ele>432.16</ele>
        <time>2022-05-05T08:55:18Z</time>
      </trkpt>
      <trkpt lat="47.73418" lon="5.09608">
        <ele>432.73</ele>
        <time>2022-05-05T08:55:20Z</time>
      </trkpt>
      <trkpt lat="47.73421" lon="5.09609">
        <ele>433.28</ele>
        <time>2022-05-05T08:55:24Z</time>
      </trkpt>
      <trkpt lat="47.73424" lon="5.0961">
        <ele>433.86</ele>
        <time>2022-05-05T08:55:25Z</time>
      </trkpt>
      <trkpt lat="47.73427" lon="5.09611">
        <ele>434.47</ele>
        <time>2022-05-05T08:55:29Z</time>
      </trkpt>
      <trkpt lat="47.7343" lon="5.09613">
        <ele>435.43</ele>
        <time>2022-05-05T08:55:31Z</time>
      </trkpt>
      <trkpt lat="47.73433" lon="5.09614">
        <ele>436.1</ele>
        <time>2022-05-05T08:55:34Z</time>
      </trkpt>
      <trkpt lat="47.73435" lon="5.09616">
        <ele>436.88</ele>
        <time>2022-05-05T08:55:38Z</time>
      </trkpt>
      <trkpt lat="47.73439" lon="5.09617">
        <ele>437.61</ele>
        <time>2022-05-05T08:55:40Z</time>
      </trkpt>
      <trkpt lat="47.73441" lon="5.09618">
        <ele>438.08</ele>
        <time>2022-05-05T08:55:43Z</time>
      </trkpt>
      <trkpt lat="47.73444" lon="5.09619">
        <ele>438.65</ele>
        <time>2022-05-05T08:55:46Z</time>
      </trkpt>
      <trkpt lat="47.73447" lon="5.09621">
        <ele>439.14</ele>
        <time>2022-05-05T08:55:48Z</time>
      </trkpt>
      <trkpt lat="47.7345" lon="5.09622">
        <ele>439.39</ele>
        <time>2022-05-05T08:55:52Z</time>
      </trkpt>
      <trkpt lat="47.73452" lon="5.09622">
        <ele>439.4</ele>
        <time>2022-05-05T08:55:54Z</time>
      </trkpt>
      <trkpt lat="47.73455" lon="5.09623">
        <ele>439.68</ele>
        <time>2022-05-05T08:55:57Z</time>
      </trkpt>
      <trkpt lat="47.73458" lon="5.09625">
        <ele>440.24</ele>
        <time>2022-05-05T08:56:00Z</time>
      </trkpt>
      <trkpt lat="47.73461" lon="5.09628">
        <ele>441.14</ele>
        <time>2022-05-05T08:56:03Z</time>
      </trkpt>
      <trkpt lat="47.73464" lon="5.0963">
        <ele>441.81</ele>
        <time>2022-05-05T08:56:05Z</time>
      </trkpt>
      <trkpt lat="47.73466" lon="5.09632">
        <ele>442.49</ele>
        <time>2022-05-05T08:56:07Z</time>
      </trkpt>
      <trkpt lat="47.73469" lon="5.09635">
        <ele>443.56</ele>
        <time>2022-05-05T08:56:11Z</time>
      </trkpt>
      <trkpt lat="47.73471" lon="5.09637">
        <ele>444.31</ele>
        <time>2022-05-05T08:56:14Z</time>
      </trkpt>
      <trkpt lat="47.73475" lon="5.09639">
        <ele>445.63</ele>
        <time>2022-05-05T08:56:17Z</time>
      </trkpt>
      <trkpt lat="47.73478" lon="5.09642">
        <ele>446.99</ele>
        <time>2022-05-05T08:56:21Z</time>
      </trkpt>
      <trkpt lat="47.73481" lon="5.09644">
        <ele>448.07</ele>
        <time>2022-05-05T08:56:25Z</time>
      </trkpt>
      <trkpt lat="47.73483" lon="5.09646">
        <ele>448.92</ele>
        <time>2022-05-05T08:56:27Z</time>
      </trkpt>
      <trkpt lat="47.73486" lon="5.09648">
        <ele>449.95</ele>
        <time>2022-05-05T08:56:29Z</time>
      </trkpt>
      <trkpt lat="47.73488" lon="5.0965">
        <ele>450.75</ele>
        <time>2022-05-05T08:56:32Z</time>
      </trkpt>
      <trkpt lat="47.73491" lon="5.09653">
        <ele>451.93</ele>
        <time>2022-05-05T08:56:36Z</time>
      </trkpt>
      <trkpt lat="47.73493" lon="5.09655">
        <ele>452.68</ele>
        <time>2022-05-05T08:56:39Z</time>
      </trkpt>
      <trkpt lat="47.73496" lon="5.09657">
        <ele>453.58</ele>
        <time>2022-05-05T08:56:42Z</time>
      </trkpt>
      <trkpt lat="47.73499" lon="5.09659">
        <ele>454.46</ele>
        <time>2022-05-05T08:56:45Z</time>
      </trkpt>
      <trkpt lat="47.73501" lon="5.09661">
        <ele>455.01</ele>
        <time>2022-05-05T08:56:48Z</time>
      </trkpt>
      <trkpt lat="47.73504" lon="5.09663">
        <ele>455.42</ele>
        <time>2022-05-05T08:56:53Z</time>
      </trkpt>
      <trkpt lat="47.73506" lon="5.09665">
        <ele>455.75</ele>
        <time>2022-05-05T08:56:55Z</time>
      </trkpt>
      <trkpt lat="47.73509" lon="5.09667">
        <ele>456</ele>
        <time>2022-05-05T08:57:00Z</time>
      </trkpt>
      <trkpt lat="47.73512" lon="5.09668">
        <ele>456.02</ele>
        <time>2022-05-05T08:57:02Z</time>
      </trkpt>
      <trkpt lat="47.73514" lon="5.0967">
        <ele>456.06</ele>
        <time>2022-05-05T08:57:05Z</time>
      </trkpt>
      <trkpt lat="47.73517" lon="5.09672">
        <ele>456.12</ele>
        <time>2022-05-05T08:57:10Z</time>
      </trkpt>
      <trkpt lat="47.73519" lon="5.09674">
        <ele>456.18</ele>
        <time>2022-05-05T08:57:12Z</time>
      </trkpt>
      <trkpt lat="47.73522" lon="5.09675">
        <ele>456.24</ele>
        <time>2022-05-05T08:57:15Z</time>
      </trkpt>
      <trkpt lat="47.73525" lon="5.09677">
        <ele>456.33</ele>
        <time>2022-05-05T08:57:20Z</time>
      </trkpt>
      <trkpt lat="47.73528" lon="5.09678">
        <ele>456.44</ele>
        <time>2022-05-05T08:57:24Z</time>
      </trkpt>
      <trkpt lat="47.73531" lon="5.0968">
        <ele>456.94</ele>
        <time>2022-05-05T08:57:27Z</time>
      </trkpt>
      <trkpt lat="47.73532" lon="5.09684">
        <ele>457.23</ele>
        <time>2022-05-05T08:57:34Z</time>
      </trkpt>
      <trkpt lat="47.73534" lon="5.09687">
        <ele>457.63</ele>
        <time>2022-05-05T08:57:40Z</time>
      </trkpt>
      <trkpt lat="47.73535" lon="5.09691">
        <ele>457.92</ele>
        <time>2022-05-05T08:57:45Z</time>
      </trkpt>
      <trkpt lat="47.73536" lon="5.09695">
        <ele>458.2</ele>
        <time>2022-05-05T08:57:48Z</time>
      </trkpt>
      <trkpt lat="47.73538" lon="5.09699">
        <ele>458.58</ele>
        <time>2022-05-05T08:57:53Z</time>
      </trkpt>
      <trkpt lat="47.7354" lon="5.09703">
        <ele>458.93</ele>
        <time>2022-05-05T08:57:56Z</time>
      </trkpt>
      <trkpt lat="47.73542" lon="5.09707">
        <ele>459.27</ele>
        <time>2022-05-05T08:58:01Z</time>
      </trkpt>
      <trkpt lat="47.73543" lon="5.0971">
        <ele>459.45</ele>
        <time>2022-05-05T08:58:06Z</time>
      </trkpt>
      <trkpt lat="47.73545" lon="5.09714">
        <ele>459.75</ele>
        <time>2022-05-05T08:58:13Z</time>
      </trkpt>
      <trkpt lat="47.73546" lon="5.09719">
        <ele>459.93</ele>
        <time>2022-05-05T08:58:17Z</time>
      </trkpt>
      <trkpt lat="47.73547" lon="5.09723">
        <ele>460.05</ele>
        <time>2022-05-05T08:58:20Z</time>
      </trkpt>
      <trkpt lat="47.73548" lon="5.09727">
        <ele>460.01</ele>
        <time>2022-05-05T08:58:23Z</time>
      </trkpt>
      <trkpt lat="47.73549" lon="5.0973">
        <ele>460.01</ele>
        <time>2022-05-05T08:58:29Z</time>
      </trkpt>
      <trkpt lat="47.7355" lon="5.09734">
        <ele>459.98</ele>
        <time>2022-05-05T08:59:23Z</time>
      </trkpt>
      <trkpt lat="47.73552" lon="5.09737">
        <ele>460.08</ele>
        <time>2022-05-05T09:00:33Z</time>
      </trkpt>
      <trkpt lat="47.73553" lon="5.09741">
        <ele>460.05</ele>
        <time>2022-05-05T09:00:38Z</time>
      </trkpt>
      <trkpt lat="47.73555" lon="5.09745">
        <ele>460.12</ele>
        <time>2022-05-05T09:00:42Z</time>
      </trkpt>
      <trkpt lat="47.73557" lon="5.09749">
        <ele>460.2</ele>
        <time>2022-05-05T09:00:48Z</time>
      </trkpt>
      <trkpt lat="47.73559" lon="5.09752">
        <ele>460.31</ele>
        <time>2022-05-05T09:00:51Z</time>
      </trkpt>
      <trkpt lat="47.73561" lon="5.09755">
        <ele>460.44</ele>
        <time>2022-05-05T09:00:54Z</time>
      </trkpt>
      <trkpt lat="47.73563" lon="5.09758">
        <ele>460.59</ele>
        <time>2022-05-05T09:00:57Z</time>
      </trkpt>
      <trkpt lat="47.73566" lon="5.0976">
        <ele>460.9</ele>
        <time>2022-05-05T09:01:02Z</time>
      </trkpt>
      <trkpt lat="47.73568" lon="5.09762">
        <ele>461.11</ele>
        <time>2022-05-05T09:01:05Z</time>
      </trkpt>
      <trkpt lat="47.73571" lon="5.09763">
        <ele>461.46</ele>
        <time>2022-05-05T09:01:09Z</time>
      </trkpt>
      <trkpt lat="47.73573" lon="5.09766">
        <ele>461.67</ele>
        <time>2022-05-05T09:01:12Z</time>
      </trkpt>
      <trkpt lat="47.73576" lon="5.09769">
        <ele>462.03</ele>
        <time>2022-05-05T09:01:15Z</time>
      </trkpt>
      <trkpt lat="47.73578" lon="5.09773">
        <ele>462.27</ele>
        <time>2022-05-05T09:01:18Z</time>
      </trkpt>
      <trkpt lat="47.7358" lon="5.09776">
        <ele>462.53</ele>
        <time>2022-05-05T09:01:21Z</time>
      </trkpt>
      <trkpt lat="47.73582" lon="5.09779">
        <ele>462.47</ele>
        <time>2022-05-05T09:01:22Z</time>
      </trkpt>
      <trkpt lat="47.73584" lon="5.09782">
        <ele>461.87</ele>
        <time>2022-05-05T09:01:24Z</time>
      </trkpt>
      <trkpt lat="47.73586" lon="5.09786">
        <ele>461.03</ele>
        <time>2022-05-05T09:01:28Z</time>
      </trkpt>
      <trkpt lat="47.73587" lon="5.09789">
        <ele>460.38</ele>
        <time>2022-05-05T09:01:31Z</time>
      </trkpt>
      <trkpt lat="47.73589" lon="5.09793">
        <ele>459.68</ele>
        <time>2022-05-05T09:01:33Z</time>
      </trkpt>
      <trkpt lat="47.73591" lon="5.09796">
        <ele>459.3</ele>
        <time>2022-05-05T09:01:35Z</time>
      </trkpt>
      <trkpt lat="47.73592" lon="5.098">
        <ele>458.53</ele>
        <time>2022-05-05T09:01:36Z</time>
      </trkpt>
      <trkpt lat="47.73594" lon="5.09804">
        <ele>458.05</ele>
        <time>2022-05-05T09:01:39Z</time>
      </trkpt>
      <trkpt lat="47.73596" lon="5.09807">
        <ele>457.89</ele>
        <time>2022-05-05T09:01:42Z</time>
      </trkpt>
      <trkpt lat="47.73598" lon="5.09811">
        <ele>457.5</ele>
        <time>2022-05-05T09:01:45Z</time>
      </trkpt>
      <trkpt lat="47.736" lon="5.09815">
        <ele>457.02</ele>
        <time>2022-05-05T09:01:48Z</time>
      </trkpt>
      <trkpt lat="47.73603" lon="5.09818">
        <ele>456.9</ele>
        <time>2022-05-05T09:01:50Z</time>
      </trkpt>
      <trkpt lat="47.73605" lon="5.09821">
        <ele>456.5</ele>
        <time>2022-05-05T09:01:52Z</time>
      </trkpt>
      <trkpt lat="47.73607" lon="5.09825">
        <ele>455.78</ele>
        <time>2022-05-05T09:01:56Z</time>
      </trkpt>
      <trkpt lat="47.73609" lon="5.09828">
        <ele>455.25</ele>
        <time>2022-05-05T09:01:59Z</time>
      </trkpt>
      <trkpt lat="47.73611" lon="5.09831">
        <ele>454.66</ele>
        <time>2022-05-05T09:02:01Z</time>
      </trkpt>
      <trkpt lat="47.73613" lon="5.09834">
        <ele>454.38</ele>
        <time>2022-05-05T09:02:04Z</time>
      </trkpt>
      <trkpt lat="47.73615" lon="5.09837">
        <ele>454.43</ele>
        <time>2022-05-05T09:02:07Z</time>
      </trkpt>
      <trkpt lat="47.73616" lon="5.09841">
        <ele>454.08</ele>
        <time>2022-05-05T09:02:10Z</time>
      </trkpt>
      <trkpt lat="47.73618" lon="5.09844">
        <ele>454.1</ele>
        <time>2022-05-05T09:02:12Z</time>
      </trkpt>
      <trkpt lat="47.73619" lon="5.09847">
        <ele>453.88</ele>
        <time>2022-05-05T09:02:15Z</time>
      </trkpt>
      <trkpt lat="47.73622" lon="5.09851">
        <ele>453.95</ele>
        <time>2022-05-05T09:02:16Z</time>
      </trkpt>
      <trkpt lat="47.73624" lon="5.09854">
        <ele>453.93</ele>
        <time>2022-05-05T09:02:19Z</time>
      </trkpt>
      <trkpt lat="47.73626" lon="5.09858">
        <ele>453.72</ele>
        <time>2022-05-05T09:02:22Z</time>
      </trkpt>
      <trkpt lat="47.73629" lon="5.09861">
        <ele>453.88</ele>
        <time>2022-05-05T09:02:23Z</time>
      </trkpt>
      <trkpt lat="47.73631" lon="5.09864">
        <ele>453.4</ele>
        <time>2022-05-05T09:02:26Z</time>
      </trkpt>
      <trkpt lat="47.73634" lon="5.09867">
        <ele>453.01</ele>
        <time>2022-05-05T09:02:28Z</time>
      </trkpt>
      <trkpt lat="47.73636" lon="5.0987">
        <ele>452.34</ele>
        <time>2022-05-05T09:02:30Z</time>
      </trkpt>
      <trkpt lat="47.73638" lon="5.09873">
        <ele>451.6</ele>
        <time>2022-05-05T09:02:33Z</time>
      </trkpt>
      <trkpt lat="47.73641" lon="5.09875">
        <ele>451.27</ele>
        <time>2022-05-05T09:02:34Z</time>
      </trkpt>
      <trkpt lat="47.73643" lon="5.09878">
        <ele>450.49</ele>
        <time>2022-05-05T09:02:37Z</time>
      </trkpt>
      <trkpt lat="47.73645" lon="5.09881">
        <ele>449.75</ele>
        <time>2022-05-05T09:02:39Z</time>
      </trkpt>
      <trkpt lat="47.73648" lon="5.09883">
        <ele>449.55</ele>
        <time>2022-05-05T09:02:42Z</time>
      </trkpt>
      <trkpt lat="47.73651" lon="5.09886">
        <ele>449.08</ele>
        <time>2022-05-05T09:02:43Z</time>
      </trkpt>
      <trkpt lat="47.73653" lon="5.09888">
        <ele>448.81</ele>
        <time>2022-05-05T09:02:46Z</time>
      </trkpt>
      <trkpt lat="47.73656" lon="5.09891">
        <ele>448.41</ele>
        <time>2022-05-05T09:02:49Z</time>
      </trkpt>
      <trkpt lat="47.73659" lon="5.09894">
        <ele>447.93</ele>
        <time>2022-05-05T09:02:51Z</time>
      </trkpt>
      <trkpt lat="47.73661" lon="5.09896">
        <ele>447.58</ele>
        <time>2022-05-05T09:02:54Z</time>
      </trkpt>
      <trkpt lat="47.73665" lon="5.09898">
        <ele>447.48</ele>
        <time>2022-05-05T09:02:57Z</time>
      </trkpt>
      <trkpt lat="47.73667" lon="5.099">
        <ele>447.01</ele>
        <time>2022-05-05T09:02:58Z</time>
      </trkpt>
      <trkpt lat="47.7367" lon="5.09903">
        <ele>446.04</ele>
        <time>2022-05-05T09:03:01Z</time>
      </trkpt>
      <trkpt lat="47.73673" lon="5.09905">
        <ele>445.46</ele>
        <time>2022-05-05T09:03:04Z</time>
      </trkpt>
      <trkpt lat="47.73676" lon="5.09907">
        <ele>444.92</ele>
        <time>2022-05-05T09:03:06Z</time>
      </trkpt>
      <trkpt lat="47.73678" lon="5.09908">
        <ele>444.68</ele>
        <time>2022-05-05T09:03:09Z</time>
      </trkpt>
      <trkpt lat="47.73681" lon="5.0991">
        <ele>444.18</ele>
        <time>2022-05-05T09:03:11Z</time>
      </trkpt>
      <trkpt lat="47.73684" lon="5.09912">
        <ele>443.72</ele>
        <time>2022-05-05T09:03:15Z</time>
      </trkpt>
      <trkpt lat="47.73687" lon="5.09914">
        <ele>443.28</ele>
        <time>2022-05-05T09:03:17Z</time>
      </trkpt>
      <trkpt lat="47.7369" lon="5.09916">
        <ele>442.88</ele>
        <time>2022-05-05T09:03:19Z</time>
      </trkpt>
      <trkpt lat="47.73693" lon="5.09917">
        <ele>442.78</ele>
        <time>2022-05-05T09:03:21Z</time>
      </trkpt>
      <trkpt lat="47.73696" lon="5.09918">
        <ele>442.47</ele>
        <time>2022-05-05T09:03:24Z</time>
      </trkpt>
      <trkpt lat="47.73699" lon="5.09919">
        <ele>442.01</ele>
        <time>2022-05-05T09:03:26Z</time>
      </trkpt>
      <trkpt lat="47.73702" lon="5.09921">
        <ele>441.21</ele>
        <time>2022-05-05T09:03:29Z</time>
      </trkpt>
      <trkpt lat="47.73705" lon="5.09922">
        <ele>440.77</ele>
        <time>2022-05-05T09:03:32Z</time>
      </trkpt>
      <trkpt lat="47.73708" lon="5.09923">
        <ele>440.34</ele>
        <time>2022-05-05T09:03:34Z</time>
      </trkpt>
      <trkpt lat="47.73711" lon="5.09925">
        <ele>439.58</ele>
        <time>2022-05-05T09:03:36Z</time>
      </trkpt>
      <trkpt lat="47.73713" lon="5.09926">
        <ele>439.2</ele>
        <time>2022-05-05T09:03:38Z</time>
      </trkpt>
      <trkpt lat="47.73716" lon="5.09928">
        <ele>438.46</ele>
        <time>2022-05-05T09:03:41Z</time>
      </trkpt>
      <trkpt lat="47.73719" lon="5.0993">
        <ele>437.74</ele>
        <time>2022-05-05T09:03:43Z</time>
      </trkpt>
      <trkpt lat="47.73722" lon="5.09931">
        <ele>437.36</ele>
        <time>2022-05-05T09:03:46Z</time>
      </trkpt>
      <trkpt lat="47.73725" lon="5.09931">
        <ele>438.01</ele>
        <time>2022-05-05T09:03:49Z</time>
      </trkpt>
      <trkpt lat="47.73728" lon="5.09932">
        <ele>438.42</ele>
        <time>2022-05-05T09:03:52Z</time>
      </trkpt>
      <trkpt lat="47.73732" lon="5.09934">
        <ele>438.8</ele>
        <time>2022-05-05T09:03:55Z</time>
      </trkpt>
      <trkpt lat="47.73734" lon="5.09935">
        <ele>439.02</ele>
        <time>2022-05-05T09:03:56Z</time>
      </trkpt>
      <trkpt lat="47.73737" lon="5.09936">
        <ele>439.51</ele>
        <time>2022-05-05T09:03:59Z</time>
      </trkpt>
      <trkpt lat="47.7374" lon="5.09938">
        <ele>439.76</ele>
        <time>2022-05-05T09:04:01Z</time>
      </trkpt>
      <trkpt lat="47.73743" lon="5.09939">
        <ele>440.31</ele>
        <time>2022-05-05T09:04:03Z</time>
      </trkpt>
      <trkpt lat="47.73746" lon="5.09941">
        <ele>440.65</ele>
        <time>2022-05-05T09:04:06Z</time>
      </trkpt>
      <trkpt lat="47.73749" lon="5.09943">
        <ele>441.03</ele>
        <time>2022-05-05T09:04:08Z</time>
      </trkpt>
      <trkpt lat="47.73751" lon="5.09946">
        <ele>440.97</ele>
        <time>2022-05-05T09:04:10Z</time>
      </trkpt>
      <trkpt lat="47.73754" lon="5.09948">
        <ele>441.37</ele>
        <time>2022-05-05T09:04:13Z</time>
      </trkpt>
      <trkpt lat="47.73757" lon="5.0995">
        <ele>441.76</ele>
        <time>2022-05-05T09:04:15Z</time>
      </trkpt>
      <trkpt lat="47.7376" lon="5.09952">
        <ele>442.16</ele>
        <time>2022-05-05T09:04:18Z</time>
      </trkpt>
      <trkpt lat="47.73762" lon="5.09953">
        <ele>442.48</ele>
        <time>2022-05-05T09:04:19Z</time>
      </trkpt>
      <trkpt lat="47.73764" lon="5.09956">
        <ele>442.45</ele>
        <time>2022-05-05T09:04:22Z</time>
      </trkpt>
      <trkpt lat="47.73767" lon="5.09959">
        <ele>442.66</ele>
        <time>2022-05-05T09:04:24Z</time>
      </trkpt>
      <trkpt lat="47.73769" lon="5.09963">
        <ele>442.45</ele>
        <time>2022-05-05T09:04:26Z</time>
      </trkpt>
      <trkpt lat="47.73771" lon="5.09966">
        <ele>442.41</ele>
        <time>2022-05-05T09:04:28Z</time>
      </trkpt>
      <trkpt lat="47.73773" lon="5.09969">
        <ele>442.38</ele>
        <time>2022-05-05T09:04:30Z</time>
      </trkpt>
      <trkpt lat="47.73775" lon="5.09971">
        <ele>442.52</ele>
        <time>2022-05-05T09:04:33Z</time>
      </trkpt>
      <trkpt lat="47.73778" lon="5.09974">
        <ele>442.77</ele>
        <time>2022-05-05T09:04:35Z</time>
      </trkpt>
      <trkpt lat="47.7378" lon="5.09977">
        <ele>442.55</ele>
        <time>2022-05-05T09:04:38Z</time>
      </trkpt>
      <trkpt lat="47.73782" lon="5.09981">
        <ele>442.19</ele>
        <time>2022-05-05T09:04:41Z</time>
      </trkpt>
      <trkpt lat="47.73784" lon="5.09985">
        <ele>441.83</ele>
        <time>2022-05-05T09:04:43Z</time>
      </trkpt>
      <trkpt lat="47.73786" lon="5.09987">
        <ele>441.76</ele>
        <time>2022-05-05T09:04:45Z</time>
      </trkpt>
      <trkpt lat="47.73788" lon="5.0999">
        <ele>441.54</ele>
        <time>2022-05-05T09:04:47Z</time>
      </trkpt>
      <trkpt lat="47.7379" lon="5.09994">
        <ele>441.18</ele>
        <time>2022-05-05T09:04:51Z</time>
      </trkpt>
      <trkpt lat="47.73793" lon="5.09997">
        <ele>441.08</ele>
        <time>2022-05-05T09:04:53Z</time>
      </trkpt>
      <trkpt lat="47.73795" lon="5.1">
        <ele>440.86</ele>
        <time>2022-05-05T09:04:55Z</time>
      </trkpt>
      <trkpt lat="47.73797" lon="5.10004">
        <ele>440.3</ele>
        <time>2022-05-05T09:04:57Z</time>
      </trkpt>
      <trkpt lat="47.73799" lon="5.10007">
        <ele>439.9</ele>
        <time>2022-05-05T09:04:59Z</time>
      </trkpt>
      <trkpt lat="47.738" lon="5.10011">
        <ele>439.18</ele>
        <time>2022-05-05T09:05:02Z</time>
      </trkpt>
      <trkpt lat="47.73802" lon="5.10014">
        <ele>438.72</ele>
        <time>2022-05-05T09:05:04Z</time>
      </trkpt>
      <trkpt lat="47.73804" lon="5.10017">
        <ele>438.23</ele>
        <time>2022-05-05T09:05:07Z</time>
      </trkpt>
      <trkpt lat="47.73806" lon="5.10021">
        <ele>437.52</ele>
        <time>2022-05-05T09:05:09Z</time>
      </trkpt>
      <trkpt lat="47.73808" lon="5.10024">
        <ele>437.14</ele>
        <time>2022-05-05T09:05:11Z</time>
      </trkpt>
      <trkpt lat="47.7381" lon="5.10028">
        <ele>436.61</ele>
        <time>2022-05-05T09:05:14Z</time>
      </trkpt>
      <trkpt lat="47.73812" lon="5.10031">
        <ele>436.46</ele>
        <time>2022-05-05T09:05:16Z</time>
      </trkpt>
      <trkpt lat="47.73814" lon="5.10034">
        <ele>436.32</ele>
        <time>2022-05-05T09:05:18Z</time>
      </trkpt>
      <trkpt lat="47.73816" lon="5.10038">
        <ele>436.03</ele>
        <time>2022-05-05T09:05:20Z</time>
      </trkpt>
      <trkpt lat="47.73818" lon="5.10042">
        <ele>435.74</ele>
        <time>2022-05-05T09:05:22Z</time>
      </trkpt>
      <trkpt lat="47.7382" lon="5.10046">
        <ele>435.46</ele>
        <time>2022-05-05T09:05:26Z</time>
      </trkpt>
      <trkpt lat="47.73822" lon="5.1005">
        <ele>435.17</ele>
        <time>2022-05-05T09:05:27Z</time>
      </trkpt>
      <trkpt lat="47.73824" lon="5.10054">
        <ele>434.88</ele>
        <time>2022-05-05T09:05:29Z</time>
      </trkpt>
      <trkpt lat="47.73826" lon="5.10057">
        <ele>434.68</ele>
        <time>2022-05-05T09:05:32Z</time>
      </trkpt>
      <trkpt lat="47.73828" lon="5.10061">
        <ele>434.25</ele>
        <time>2022-05-05T09:05:34Z</time>
      </trkpt>
      <trkpt lat="47.7383" lon="5.10065">
        <ele>433.82</ele>
        <time>2022-05-05T09:05:36Z</time>
      </trkpt>
      <trkpt lat="47.73832" lon="5.10069">
        <ele>433.39</ele>
        <time>2022-05-05T09:05:38Z</time>
      </trkpt>
      <trkpt lat="47.73833" lon="5.10072">
        <ele>432.99</ele>
        <time>2022-05-05T09:05:41Z</time>
      </trkpt>
      <trkpt lat="47.73834" lon="5.10076">
        <ele>432.42</ele>
        <time>2022-05-05T09:05:43Z</time>
      </trkpt>
      <trkpt lat="47.73836" lon="5.1008">
        <ele>431.98</ele>
        <time>2022-05-05T09:05:45Z</time>
      </trkpt>
      <trkpt lat="47.73838" lon="5.10084">
        <ele>431.6</ele>
        <time>2022-05-05T09:05:47Z</time>
      </trkpt>
      <trkpt lat="47.7384" lon="5.10087">
        <ele>431.6</ele>
        <time>2022-05-05T09:05:49Z</time>
      </trkpt>
      <trkpt lat="47.73842" lon="5.10091">
        <ele>431.51</ele>
        <time>2022-05-05T09:05:51Z</time>
      </trkpt>
      <trkpt lat="47.73844" lon="5.10094">
        <ele>431.53</ele>
        <time>2022-05-05T09:05:53Z</time>
      </trkpt>
      <trkpt lat="47.73846" lon="5.10097">
        <ele>431.57</ele>
        <time>2022-05-05T09:05:54Z</time>
      </trkpt>
      <trkpt lat="47.73848" lon="5.10101">
        <ele>431.54</ele>
        <time>2022-05-05T09:05:57Z</time>
      </trkpt>
      <trkpt lat="47.7385" lon="5.10105">
        <ele>431.53</ele>
        <time>2022-05-05T09:05:59Z</time>
      </trkpt>
      <trkpt lat="47.73852" lon="5.10108">
        <ele>431.62</ele>
        <time>2022-05-05T09:06:01Z</time>
      </trkpt>
      <trkpt lat="47.73855" lon="5.10112">
        <ele>431.81</ele>
        <time>2022-05-05T09:06:03Z</time>
      </trkpt>
      <trkpt lat="47.73857" lon="5.10115">
        <ele>431.86</ele>
        <time>2022-05-05T09:06:05Z</time>
      </trkpt>
      <trkpt lat="47.73859" lon="5.10118">
        <ele>431.89</ele>
        <time>2022-05-05T09:06:08Z</time>
      </trkpt>
      <trkpt lat="47.73861" lon="5.10121">
        <ele>431.91</ele>
        <time>2022-05-05T09:06:09Z</time>
      </trkpt>
      <trkpt lat="47.73863" lon="5.10124">
        <ele>431.6</ele>
        <time>2022-05-05T09:06:12Z</time>
      </trkpt>
      <trkpt lat="47.73866" lon="5.10128">
        <ele>431.21</ele>
        <time>2022-05-05T09:06:14Z</time>
      </trkpt>
      <trkpt lat="47.73868" lon="5.10131">
        <ele>430.96</ele>
        <time>2022-05-05T09:06:15Z</time>
      </trkpt>
      <trkpt lat="47.7387" lon="5.10134">
        <ele>430.74</ele>
        <time>2022-05-05T09:06:17Z</time>
      </trkpt>
      <trkpt lat="47.73873" lon="5.10138">
        <ele>430.5</ele>
        <time>2022-05-05T09:06:19Z</time>
      </trkpt>
      <trkpt lat="47.73875" lon="5.10141">
        <ele>430.54</ele>
        <time>2022-05-05T09:06:22Z</time>
      </trkpt>
      <trkpt lat="47.73877" lon="5.10144">
        <ele>430.68</ele>
        <time>2022-05-05T09:06:23Z</time>
      </trkpt>
      <trkpt lat="47.7388" lon="5.10146">
        <ele>430.85</ele>
        <time>2022-05-05T09:06:25Z</time>
      </trkpt>
      <trkpt lat="47.73883" lon="5.1015">
        <ele>431.1</ele>
        <time>2022-05-05T09:06:27Z</time>
      </trkpt>
      <trkpt lat="47.73885" lon="5.10153">
        <ele>431.3</ele>
        <time>2022-05-05T09:06:31Z</time>
      </trkpt>
      <trkpt lat="47.73887" lon="5.10156">
        <ele>431.51</ele>
        <time>2022-05-05T09:06:33Z</time>
      </trkpt>
      <trkpt lat="47.7389" lon="5.10159">
        <ele>431.62</ele>
        <time>2022-05-05T09:06:35Z</time>
      </trkpt>
      <trkpt lat="47.73893" lon="5.10162">
        <ele>431.41</ele>
        <time>2022-05-05T09:06:38Z</time>
      </trkpt>
      <trkpt lat="47.73895" lon="5.10164">
        <ele>431.27</ele>
        <time>2022-05-05T09:06:39Z</time>
      </trkpt>
      <trkpt lat="47.73897" lon="5.10168">
        <ele>431.06</ele>
        <time>2022-05-05T09:06:41Z</time>
      </trkpt>
      <trkpt lat="47.739" lon="5.10173">
        <ele>430.53</ele>
        <time>2022-05-05T09:06:44Z</time>
      </trkpt>
      <trkpt lat="47.73902" lon="5.10176">
        <ele>430.23</ele>
        <time>2022-05-05T09:06:46Z</time>
      </trkpt>
      <trkpt lat="47.73904" lon="5.10179">
        <ele>429.96</ele>
        <time>2022-05-05T09:06:48Z</time>
      </trkpt>
      <trkpt lat="47.73906" lon="5.10182">
        <ele>429.73</ele>
        <time>2022-05-05T09:06:51Z</time>
      </trkpt>
      <trkpt lat="47.73909" lon="5.10184">
        <ele>429.48</ele>
        <time>2022-05-05T09:06:53Z</time>
      </trkpt>
      <trkpt lat="47.73911" lon="5.10186">
        <ele>429.33</ele>
        <time>2022-05-05T09:06:54Z</time>
      </trkpt>
      <trkpt lat="47.73914" lon="5.10189">
        <ele>429.13</ele>
        <time>2022-05-05T09:06:57Z</time>
      </trkpt>
      <trkpt lat="47.73916" lon="5.10191">
        <ele>429.03</ele>
        <time>2022-05-05T09:06:59Z</time>
      </trkpt>
      <trkpt lat="47.73919" lon="5.10194">
        <ele>428.75</ele>
        <time>2022-05-05T09:07:00Z</time>
      </trkpt>
      <trkpt lat="47.73921" lon="5.10196">
        <ele>428.36</ele>
        <time>2022-05-05T09:07:02Z</time>
      </trkpt>
      <trkpt lat="47.73924" lon="5.10199">
        <ele>427.72</ele>
        <time>2022-05-05T09:07:05Z</time>
      </trkpt>
      <trkpt lat="47.73927" lon="5.10202">
        <ele>427.07</ele>
        <time>2022-05-05T09:07:09Z</time>
      </trkpt>
      <trkpt lat="47.73929" lon="5.10204">
        <ele>426.64</ele>
        <time>2022-05-05T09:07:10Z</time>
      </trkpt>
      <trkpt lat="47.73932" lon="5.10207">
        <ele>425.99</ele>
        <time>2022-05-05T09:07:13Z</time>
      </trkpt>
      <trkpt lat="47.73934" lon="5.10209">
        <ele>425.56</ele>
        <time>2022-05-05T09:07:16Z</time>
      </trkpt>
      <trkpt lat="47.73936" lon="5.10211">
        <ele>425.12</ele>
        <time>2022-05-05T09:07:18Z</time>
      </trkpt>
      <trkpt lat="47.73938" lon="5.10214">
        <ele>424.58</ele>
        <time>2022-05-05T09:07:20Z</time>
      </trkpt>
      <trkpt lat="47.73941" lon="5.10217">
        <ele>423.94</ele>
        <time>2022-05-05T09:07:23Z</time>
      </trkpt>
      <trkpt lat="47.73943" lon="5.1022">
        <ele>423.4</ele>
        <time>2022-05-05T09:07:27Z</time>
      </trkpt>
      <trkpt lat="47.73945" lon="5.10222">
        <ele>423.06</ele>
        <time>2022-05-05T09:07:29Z</time>
      </trkpt>
      <trkpt lat="47.73948" lon="5.10225">
        <ele>422.94</ele>
        <time>2022-05-05T09:07:32Z</time>
      </trkpt>
      <trkpt lat="47.7395" lon="5.10228">
        <ele>422.73</ele>
        <time>2022-05-05T09:07:35Z</time>
      </trkpt>
      <trkpt lat="47.73952" lon="5.1023">
        <ele>422.63</ele>
        <time>2022-05-05T09:07:37Z</time>
      </trkpt>
      <trkpt lat="47.73955" lon="5.10231">
        <ele>422.69</ele>
        <time>2022-05-05T09:07:39Z</time>
      </trkpt>
      <trkpt lat="47.73957" lon="5.10234">
        <ele>422.44</ele>
        <time>2022-05-05T09:07:42Z</time>
      </trkpt>
      <trkpt lat="47.7396" lon="5.10236">
        <ele>422.35</ele>
        <time>2022-05-05T09:07:45Z</time>
      </trkpt>
      <trkpt lat="47.73962" lon="5.10238">
        <ele>422.2</ele>
        <time>2022-05-05T09:07:47Z</time>
      </trkpt>
      <trkpt lat="47.73965" lon="5.10241">
        <ele>421.95</ele>
        <time>2022-05-05T09:07:51Z</time>
      </trkpt>
      <trkpt lat="47.73968" lon="5.10243">
        <ele>421.82</ele>
        <time>2022-05-05T09:07:53Z</time>
      </trkpt>
      <trkpt lat="47.73971" lon="5.10243">
        <ele>421.95</ele>
        <time>2022-05-05T09:07:55Z</time>
      </trkpt>
      <trkpt lat="47.73973" lon="5.10245">
        <ele>421.67</ele>
        <time>2022-05-05T09:07:57Z</time>
      </trkpt>
      <trkpt lat="47.73976" lon="5.10246">
        <ele>421.32</ele>
        <time>2022-05-05T09:07:59Z</time>
      </trkpt>
      <trkpt lat="47.73979" lon="5.10247">
        <ele>420.97</ele>
        <time>2022-05-05T09:08:03Z</time>
      </trkpt>
      <trkpt lat="47.73982" lon="5.10248">
        <ele>420.61</ele>
        <time>2022-05-05T09:08:04Z</time>
      </trkpt>
      <trkpt lat="47.73985" lon="5.10249">
        <ele>420.24</ele>
        <time>2022-05-05T09:08:08Z</time>
      </trkpt>
      <trkpt lat="47.73987" lon="5.1025">
        <ele>419.94</ele>
        <time>2022-05-05T09:08:10Z</time>
      </trkpt>
      <trkpt lat="47.73991" lon="5.10252">
        <ele>419.36</ele>
        <time>2022-05-05T09:08:12Z</time>
      </trkpt>
      <trkpt lat="47.73994" lon="5.10253">
        <ele>419.04</ele>
        <time>2022-05-05T09:08:15Z</time>
      </trkpt>
      <trkpt lat="47.73998" lon="5.10255">
        <ele>418.57</ele>
        <time>2022-05-05T09:08:17Z</time>
      </trkpt>
      <trkpt lat="47.74001" lon="5.10257">
        <ele>417.9</ele>
        <time>2022-05-05T09:08:19Z</time>
      </trkpt>
      <trkpt lat="47.74003" lon="5.10258">
        <ele>417.1</ele>
        <time>2022-05-05T09:08:22Z</time>
      </trkpt>
      <trkpt lat="47.74006" lon="5.1026">
        <ele>415.82</ele>
        <time>2022-05-05T09:08:24Z</time>
      </trkpt>
      <trkpt lat="47.74009" lon="5.10261">
        <ele>414.64</ele>
        <time>2022-05-05T09:08:27Z</time>
      </trkpt>
      <trkpt lat="47.74012" lon="5.10261">
        <ele>413.58</ele>
        <time>2022-05-05T09:08:32Z</time>
      </trkpt>
      <trkpt lat="47.74015" lon="5.10263">
        <ele>412.23</ele>
        <time>2022-05-05T09:08:36Z</time>
      </trkpt>
      <trkpt lat="47.74018" lon="5.10264">
        <ele>411</ele>
        <time>2022-05-05T09:08:38Z</time>
      </trkpt>
      <trkpt lat="47.74021" lon="5.10265">
        <ele>409.76</ele>
        <time>2022-05-05T09:08:39Z</time>
      </trkpt>
      <trkpt lat="47.74023" lon="5.10267">
        <ele>408.7</ele>
        <time>2022-05-05T09:08:42Z</time>
      </trkpt>
      <trkpt lat="47.74026" lon="5.10269">
        <ele>407.24</ele>
        <time>2022-05-05T09:08:43Z</time>
      </trkpt>
      <trkpt lat="47.7403" lon="5.1027">
        <ele>406</ele>
        <time>2022-05-05T09:08:45Z</time>
      </trkpt>
      <trkpt lat="47.74033" lon="5.10271">
        <ele>405.28</ele>
        <time>2022-05-05T09:08:48Z</time>
      </trkpt>
      <trkpt lat="47.74036" lon="5.10271">
        <ele>404.74</ele>
        <time>2022-05-05T09:08:50Z</time>
      </trkpt>
      <trkpt lat="47.74039" lon="5.10271">
        <ele>404.2</ele>
        <time>2022-05-05T09:08:53Z</time>
      </trkpt>
      <trkpt lat="47.74042" lon="5.1027">
        <ele>403.84</ele>
        <time>2022-05-05T09:08:54Z</time>
      </trkpt>
      <trkpt lat="47.74045" lon="5.1027">
        <ele>403.3</ele>
        <time>2022-05-05T09:08:56Z</time>
      </trkpt>
      <trkpt lat="47.74048" lon="5.1027">
        <ele>402.76</ele>
        <time>2022-05-05T09:09:00Z</time>
      </trkpt>
      <trkpt lat="47.74051" lon="5.10272">
        <ele>401.86</ele>
        <time>2022-05-05T09:09:04Z</time>
      </trkpt>
      <trkpt lat="47.74053" lon="5.10274">
        <ele>401.14</ele>
        <time>2022-05-05T09:09:07Z</time>
      </trkpt>
      <trkpt lat="47.74056" lon="5.10277">
        <ele>400.09</ele>
        <time>2022-05-05T09:09:10Z</time>
      </trkpt>
      <trkpt lat="47.74057" lon="5.10281">
        <ele>399.5</ele>
        <time>2022-05-05T09:09:13Z</time>
      </trkpt>
      <trkpt lat="47.74058" lon="5.10285">
        <ele>398.98</ele>
        <time>2022-05-05T09:09:15Z</time>
      </trkpt>
      <trkpt lat="47.74059" lon="5.10289">
        <ele>398.47</ele>
        <time>2022-05-05T09:09:16Z</time>
      </trkpt>
      <trkpt lat="47.74059" lon="5.10295">
        <ele>397.84</ele>
        <time>2022-05-05T09:09:18Z</time>
      </trkpt>
      <trkpt lat="47.74059" lon="5.10299">
        <ele>397.43</ele>
        <time>2022-05-05T09:09:20Z</time>
      </trkpt>
      <trkpt lat="47.74059" lon="5.10304">
        <ele>396.91</ele>
        <time>2022-05-05T09:09:22Z</time>
      </trkpt>
      <trkpt lat="47.74059" lon="5.10308">
        <ele>396.75</ele>
        <time>2022-05-05T09:09:25Z</time>
      </trkpt>
      <trkpt lat="47.74059" lon="5.10314">
        <ele>396.75</ele>
        <time>2022-05-05T09:09:28Z</time>
      </trkpt>
      <trkpt lat="47.74059" lon="5.10318">
        <ele>396.75</ele>
        <time>2022-05-05T09:09:30Z</time>
      </trkpt>
      <trkpt lat="47.74059" lon="5.10323">
        <ele>396.75</ele>
        <time>2022-05-05T09:09:31Z</time>
      </trkpt>
      <trkpt lat="47.74058" lon="5.10329">
        <ele>396.82</ele>
        <time>2022-05-05T09:09:34Z</time>
      </trkpt>
      <trkpt lat="47.74058" lon="5.10333">
        <ele>396.82</ele>
        <time>2022-05-05T09:09:36Z</time>
      </trkpt>
      <trkpt lat="47.74057" lon="5.10338">
        <ele>397.04</ele>
        <time>2022-05-05T09:09:38Z</time>
      </trkpt>
      <trkpt lat="47.74056" lon="5.10343">
        <ele>397.3</ele>
        <time>2022-05-05T09:09:40Z</time>
      </trkpt>
      <trkpt lat="47.74056" lon="5.10347">
        <ele>397.44</ele>
        <time>2022-05-05T09:09:43Z</time>
      </trkpt>
      <trkpt lat="47.74055" lon="5.10351">
        <ele>397.59</ele>
        <time>2022-05-05T09:09:45Z</time>
      </trkpt>
      <trkpt lat="47.74055" lon="5.10356">
        <ele>397.75</ele>
        <time>2022-05-05T09:09:47Z</time>
      </trkpt>
      <trkpt lat="47.74054" lon="5.10362">
        <ele>397.65</ele>
        <time>2022-05-05T09:09:50Z</time>
      </trkpt>
      <trkpt lat="47.74054" lon="5.10366">
        <ele>397.1</ele>
        <time>2022-05-05T09:09:52Z</time>
      </trkpt>
      <trkpt lat="47.74054" lon="5.10371">
        <ele>396.41</ele>
        <time>2022-05-05T09:09:54Z</time>
      </trkpt>
      <trkpt lat="47.74054" lon="5.10375">
        <ele>395.86</ele>
        <time>2022-05-05T09:09:57Z</time>
      </trkpt>
      <trkpt lat="47.74054" lon="5.1038">
        <ele>395.17</ele>
        <time>2022-05-05T09:09:59Z</time>
      </trkpt>
      <trkpt lat="47.74054" lon="5.10385">
        <ele>394.48</ele>
        <time>2022-05-05T09:10:03Z</time>
      </trkpt>
      <trkpt lat="47.74053" lon="5.1039">
        <ele>393.79</ele>
        <time>2022-05-05T09:10:05Z</time>
      </trkpt>
      <trkpt lat="47.74053" lon="5.10394">
        <ele>393.36</ele>
        <time>2022-05-05T09:10:08Z</time>
      </trkpt>
      <trkpt lat="47.74053" lon="5.10399">
        <ele>392.82</ele>
        <time>2022-05-05T09:10:10Z</time>
      </trkpt>
      <trkpt lat="47.74053" lon="5.10404">
        <ele>392.28</ele>
        <time>2022-05-05T09:10:12Z</time>
      </trkpt>
      <trkpt lat="47.74053" lon="5.10408">
        <ele>391.84</ele>
        <time>2022-05-05T09:10:14Z</time>
      </trkpt>
      <trkpt lat="47.74055" lon="5.10412">
        <ele>391.48</ele>
        <time>2022-05-05T09:10:17Z</time>
      </trkpt>
      <trkpt lat="47.74057" lon="5.10414">
        <ele>391.29</ele>
        <time>2022-05-05T09:10:20Z</time>
      </trkpt>
      <trkpt lat="47.7406" lon="5.10416">
        <ele>391.07</ele>
        <time>2022-05-05T09:10:21Z</time>
      </trkpt>
      <trkpt lat="47.74063" lon="5.10417">
        <ele>391</ele>
        <time>2022-05-05T09:10:23Z</time>
      </trkpt>
      <trkpt lat="47.74066" lon="5.10419">
        <ele>390.99</ele>
        <time>2022-05-05T09:10:25Z</time>
      </trkpt>
      <trkpt lat="47.74069" lon="5.10421">
        <ele>390.93</ele>
        <time>2022-05-05T09:10:27Z</time>
      </trkpt>
      <trkpt lat="47.74072" lon="5.10422">
        <ele>390.85</ele>
        <time>2022-05-05T09:10:31Z</time>
      </trkpt>
      <trkpt lat="47.74075" lon="5.10422">
        <ele>390.79</ele>
        <time>2022-05-05T09:10:33Z</time>
      </trkpt>
      <trkpt lat="47.74078" lon="5.10422">
        <ele>390.73</ele>
        <time>2022-05-05T09:10:35Z</time>
      </trkpt>
      <trkpt lat="47.74081" lon="5.10423">
        <ele>390.6</ele>
        <time>2022-05-05T09:10:37Z</time>
      </trkpt>
      <trkpt lat="47.74084" lon="5.10424">
        <ele>390.45</ele>
        <time>2022-05-05T09:10:40Z</time>
      </trkpt>
      <trkpt lat="47.74087" lon="5.10423">
        <ele>390.41</ele>
        <time>2022-05-05T09:10:42Z</time>
      </trkpt>
      <trkpt lat="47.7409" lon="5.10422">
        <ele>390.38</ele>
        <time>2022-05-05T09:10:44Z</time>
      </trkpt>
      <trkpt lat="47.74092" lon="5.1042">
        <ele>390.45</ele>
        <time>2022-05-05T09:10:46Z</time>
      </trkpt>
      <trkpt lat="47.74095" lon="5.10419">
        <ele>390.41</ele>
        <time>2022-05-05T09:10:48Z</time>
      </trkpt>
      <trkpt lat="47.74099" lon="5.10417">
        <ele>390.41</ele>
        <time>2022-05-05T09:10:50Z</time>
      </trkpt>
      <trkpt lat="47.74102" lon="5.10415">
        <ele>390.43</ele>
        <time>2022-05-05T09:10:54Z</time>
      </trkpt>
      <trkpt lat="47.74106" lon="5.10414">
        <ele>390.32</ele>
        <time>2022-05-05T09:10:56Z</time>
      </trkpt>
      <trkpt lat="47.74109" lon="5.10414">
        <ele>390.19</ele>
        <time>2022-05-05T09:10:57Z</time>
      </trkpt>
      <trkpt lat="47.74111" lon="5.10414">
        <ele>390.1</ele>
        <time>2022-05-05T09:11:00Z</time>
      </trkpt>
      <trkpt lat="47.74114" lon="5.10413">
        <ele>389.92</ele>
        <time>2022-05-05T09:11:02Z</time>
      </trkpt>
      <trkpt lat="47.74118" lon="5.10413">
        <ele>389.64</ele>
        <time>2022-05-05T09:11:04Z</time>
      </trkpt>
      <trkpt lat="47.74121" lon="5.10413">
        <ele>389.42</ele>
        <time>2022-05-05T09:11:06Z</time>
      </trkpt>
      <trkpt lat="47.74124" lon="5.10415">
        <ele>389.13</ele>
        <time>2022-05-05T09:11:08Z</time>
      </trkpt>
      <trkpt lat="47.74126" lon="5.10418">
        <ele>388.88</ele>
        <time>2022-05-05T09:11:11Z</time>
      </trkpt>
      <trkpt lat="47.74128" lon="5.10421">
        <ele>388.66</ele>
        <time>2022-05-05T09:11:14Z</time>
      </trkpt>
      <trkpt lat="47.74131" lon="5.10423">
        <ele>388.44</ele>
        <time>2022-05-05T09:11:17Z</time>
      </trkpt>
      <trkpt lat="47.74132" lon="5.10427">
        <ele>388.31</ele>
        <time>2022-05-05T09:11:21Z</time>
      </trkpt>
      <trkpt lat="47.74133" lon="5.10431">
        <ele>388.21</ele>
        <time>2022-05-05T09:11:23Z</time>
      </trkpt>
      <trkpt lat="47.74133" lon="5.10436">
        <ele>388.13</ele>
        <time>2022-05-05T09:11:25Z</time>
      </trkpt>
      <trkpt lat="47.74133" lon="5.10441">
        <ele>388.05</ele>
        <time>2022-05-05T09:11:28Z</time>
      </trkpt>
      <trkpt lat="47.74133" lon="5.10446">
        <ele>388.01</ele>
        <time>2022-05-05T09:11:30Z</time>
      </trkpt>
      <trkpt lat="47.74133" lon="5.1045">
        <ele>388.04</ele>
        <time>2022-05-05T09:11:32Z</time>
      </trkpt>
      <trkpt lat="47.74132" lon="5.10454">
        <ele>388.09</ele>
        <time>2022-05-05T09:11:34Z</time>
      </trkpt>
      <trkpt lat="47.74132" lon="5.10459">
        <ele>388.13</ele>
        <time>2022-05-05T09:11:37Z</time>
      </trkpt>
      <trkpt lat="47.74132" lon="5.10464">
        <ele>388.17</ele>
        <time>2022-05-05T09:11:41Z</time>
      </trkpt>
      <trkpt lat="47.74132" lon="5.10469">
        <ele>388.22</ele>
        <time>2022-05-05T09:11:43Z</time>
      </trkpt>
      <trkpt lat="47.74132" lon="5.10474">
        <ele>388.36</ele>
        <time>2022-05-05T09:11:45Z</time>
      </trkpt>
      <trkpt lat="47.74132" lon="5.1048">
        <ele>388.74</ele>
        <time>2022-05-05T09:11:48Z</time>
      </trkpt>
      <trkpt lat="47.74131" lon="5.10486">
        <ele>389.14</ele>
        <time>2022-05-05T09:11:50Z</time>
      </trkpt>
      <trkpt lat="47.74131" lon="5.10491">
        <ele>389.44</ele>
        <time>2022-05-05T09:11:53Z</time>
      </trkpt>
      <trkpt lat="47.7413" lon="5.10496">
        <ele>389.76</ele>
        <time>2022-05-05T09:11:55Z</time>
      </trkpt>
      <trkpt lat="47.7413" lon="5.105">
        <ele>390</ele>
        <time>2022-05-05T09:11:57Z</time>
      </trkpt>
      <trkpt lat="47.7413" lon="5.10505">
        <ele>390.48</ele>
        <time>2022-05-05T09:12:00Z</time>
      </trkpt>
      <trkpt lat="47.7413" lon="5.1051">
        <ele>390.96</ele>
        <time>2022-05-05T09:12:02Z</time>
      </trkpt>
      <trkpt lat="47.74128" lon="5.10515">
        <ele>391.41</ele>
        <time>2022-05-05T09:12:05Z</time>
      </trkpt>
      <trkpt lat="47.74127" lon="5.10519">
        <ele>391.76</ele>
        <time>2022-05-05T09:12:07Z</time>
      </trkpt>
      <trkpt lat="47.74125" lon="5.10523">
        <ele>392.07</ele>
        <time>2022-05-05T09:12:10Z</time>
      </trkpt>
      <trkpt lat="47.74123" lon="5.10529">
        <ele>392.55</ele>
        <time>2022-05-05T09:12:13Z</time>
      </trkpt>
      <trkpt lat="47.74121" lon="5.10533">
        <ele>392.87</ele>
        <time>2022-05-05T09:12:15Z</time>
      </trkpt>
      <trkpt lat="47.7412" lon="5.10537">
        <ele>393.2</ele>
        <time>2022-05-05T09:12:16Z</time>
      </trkpt>
      <trkpt lat="47.74118" lon="5.10542">
        <ele>393.53</ele>
        <time>2022-05-05T09:12:20Z</time>
      </trkpt>
    </trkseg>
  </trk>
</gpx>